[[{"header":{"parameterUnit":"m.s-1","parameterCategory":1,"la1":30.6,"la2":29.2853,"lo1":-89.7004,"lo2":-87.6739,"dy":0.0162,"dx":0.0183,"nx":112,"ny":82,"refTime":"2025-04-09T12:00:00:Z","depth":0,"parameterNumber":2,"parameterNumberName":"U-component_of_WINDS"},"data":[0.0,0.0,0.0,0.0,0.0,0.0,0.0,0.0,0.0,0.0,0.0,0.0,0.0,0.0,0.0,0.0,0.0,0.0,0.0,0.0,0.0,0.0,0.0,0.0,0.0,0.0,0.0,0.0,0.0,0.0,0.0,0.0,0.0,0.0,0.0,0.0,0.0,0.0,0.0,0.0,0.0,0.0,0.0,0.0,0.0,0.0,0.0,0.0,0.0,0.0,0.0,0.0,0.0,0.0,0.0,0.0,0.0,0.0,0.0,0.0,0.0,0.0,0.0,0.0,0.0,0.0,0.0,0.0,0.0,0.0,0.0,0.0,0.0,0.0,0.0,0.0,0.0,0.0,0.0,0.0,0.0,0.0,0.0,0.0,0.0,0.0,0.0,0.0,0.0,0.0,0.0,5.0298,5.6126,5.9358,5.855,5.7319,5.3933,4.7702,0.0,0.0,0.0,0.0,0.0,0.0,0.0,0.0,0.0,0.0,0.0,0.0,0.0,0.0,0.0,0.0,0.0,0.0,0.0,0.0,0.0,0.0,0.0,0.0,0.0,0.0,0.0,0.0,0.0,0.0,0.0,0.0,0.0,0.0,0.0,0.0,0.0,0.0,0.0,0.0,0.0,0.0,0.0,0.0,0.0,0.0,0.0,0.0,0.0,0.0,0.0,0.0,0.0,0.0,0.0,0.0,0.0,0.0,0.0,0.0,0.0,0.0,0.0,0.0,0.0,0.0,0.0,0.0,0.0,0.0,0.0,0.0,0.0,0.0,0.0,0.0,0.0,0.0,0.0,0.0,0.0,0.0,0.0,0.0,0.0,0.0,0.0,0.0,0.0,0.0,0.0,0.0,0.0,0.0,0.0,0.0,0.0,0.0,0.0,0.0,0.0,0.0,0.0,0.0,4.7022,5.5967,5.9127,6.0242,5.9396,5.6588,5.3203,4.9279,0.0,0.0,0.0,0.0,0.0,0.0,0.0,0.0,0.0,0.0,0.0,0.0,0.0,0.0,0.0,0.0,0.0,0.0,0.0,0.0,0.0,0.0,0.0,0.0,0.0,0.0,0.0,0.0,0.0,0.0,0.0,0.0,0.0,0.0,0.0,0.0,0.0,0.0,0.0,0.0,0.0,0.0,0.0,0.0,0.0,0.0,0.0,0.0,0.0,0.0,0.0,0.0,0.0,0.0,0.0,0.0,0.0,0.0,0.0,0.0,0.0,0.0,0.0,0.0,0.0,0.0,0.0,0.0,0.0,0.0,0.0,0.0,0.0,0.0,0.0,0.0,0.0,0.0,0.0,0.0,0.0,0.0,0.0,0.0,0.0,0.0,0.0,0.0,0.0,0.0,0.0,0.0,0.0,0.0,0.0,0.0,0.0,0.0,0.0,0.0,0.0,0.0,0.0,4.5573,5.0402,5.8143,6.005,6.0627,6.0242,5.7511,5.4203,5.0356,4.4893,0.0,0.0,0.0,0.0,0.0,0.0,0.0,0.0,0.0,0.0,0.0,0.0,0.0,0.0,0.0,0.0,0.0,0.0,0.0,0.0,0.0,0.0,0.0,0.0,0.0,0.0,0.0,0.0,0.0,0.0,0.0,0.0,0.0,0.0,0.0,0.0,0.0,0.0,0.0,0.0,0.0,0.0,0.0,0.0,0.0,0.0,0.0,0.0,0.0,0.0,0.0,0.0,0.0,0.0,0.0,0.0,0.0,0.0,0.0,0.0,0.0,0.0,0.0,0.0,0.0,0.0,0.0,0.0,0.0,0.0,0.0,0.0,0.0,0.0,0.0,0.0,0.0,0.0,0.0,0.0,0.0,0.0,0.0,0.0,0.0,0.0,0.0,0.0,0.0,0.0,0.0,0.0,0.0,0.0,0.0,0.0,0.0,0.0,0.0,0.0,0.0,0.0,5.1053,5.4126,5.9242,6.0396,6.0781,6.0781,5.7896,5.4549,5.0933,4.4547,0.0,0.0,0.0,0.0,0.0,0.0,0.0,0.0,0.0,0.0,0.0,0.0,0.0,0.0,0.0,0.0,0.0,0.0,0.0,0.0,0.0,0.0,0.0,0.0,0.0,0.0,0.0,0.0,0.0,0.0,0.0,0.0,0.0,0.0,0.0,0.0,0.0,0.0,0.0,0.0,0.0,0.0,0.0,0.0,0.0,0.0,0.0,0.0,0.0,0.0,0.0,0.0,0.0,0.0,0.0,0.0,0.0,0.0,0.0,0.0,0.0,0.0,0.0,0.0,0.0,0.0,0.0,0.0,0.0,0.0,0.0,0.0,0.0,0.0,0.0,0.0,0.0,0.0,0.0,0.0,0.0,0.0,0.0,0.0,0.0,0.0,0.0,0.0,0.0,0.0,0.0,0.0,0.0,0.0,0.0,0.0,0.0,0.0,0.0,0.0,0.0,0.0,5.2809,5.7627,6.0396,6.0742,6.0781,6.0781,5.628,5.2664,5.0818,4.2893,0.0,0.0,0.0,0.0,0.0,0.0,0.0,0.0,0.0,0.0,0.0,0.0,0.0,0.0,0.0,0.0,0.0,0.0,0.0,0.0,0.0,0.0,0.0,0.0,0.0,0.0,0.0,0.0,0.0,0.0,0.0,0.0,0.0,0.0,0.0,0.0,0.0,0.0,0.0,0.0,0.0,0.0,0.0,0.0,0.0,0.0,0.0,0.0,0.0,0.0,0.0,0.0,0.0,0.0,0.0,0.0,0.0,0.0,0.0,0.0,0.0,0.0,0.0,0.0,0.0,0.0,0.0,0.0,0.0,0.0,0.0,0.0,0.0,0.0,0.0,0.0,0.0,0.0,0.0,0.0,0.0,0.0,0.0,0.0,0.0,0.0,0.0,0.0,0.0,0.0,0.0,0.0,0.0,0.0,0.0,0.0,0.0,0.0,0.0,0.0,0.0,0.0,5.1813,5.6203,0.0,6.0781,6.0781,6.0781,5.7588,5.4164,5.0894,0.0,0.0,0.0,0.0,0.0,0.0,0.0,0.0,0.0,0.0,0.0,0.0,0.0,0.0,0.0,0.0,0.0,0.0,0.0,0.0,0.0,0.0,0.0,0.0,0.0,0.0,0.0,0.0,0.0,0.0,0.0,0.0,0.0,0.0,0.0,0.0,0.0,0.0,0.0,0.0,0.0,0.0,0.0,0.0,0.0,0.0,0.0,0.0,0.0,0.0,0.0,0.0,0.0,0.0,0.0,0.0,0.0,0.0,0.0,0.0,0.0,0.0,0.0,0.0,0.0,0.0,0.0,0.0,0.0,0.0,0.0,0.0,0.0,0.0,0.0,0.0,0.0,0.0,0.0,0.0,0.0,0.0,0.0,0.0,0.0,0.0,0.0,0.0,0.0,0.0,0.0,0.0,0.0,0.0,0.0,0.0,0.0,0.0,0.0,0.0,0.0,0.0,4.7395,5.2354,5.6626,0.0,6.0781,6.0781,6.0781,5.7703,5.4203,5.051,0.0,0.0,0.0,0.0,0.0,0.0,0.0,0.0,0.0,0.0,0.0,0.0,0.0,0.0,0.0,0.0,0.0,0.0,0.0,0.0,0.0,0.0,0.0,0.0,0.0,0.0,0.0,0.0,0.0,0.0,0.0,0.0,0.0,0.0,0.0,0.0,0.0,0.0,0.0,0.0,0.0,0.0,0.0,0.0,0.0,0.0,0.0,0.0,0.0,0.0,0.0,0.0,0.0,0.0,0.0,0.0,0.0,0.0,0.0,0.0,0.0,0.0,0.0,0.0,0.0,0.0,0.0,0.0,0.0,0.0,0.0,0.0,0.0,0.0,0.0,0.0,0.0,0.0,0.0,0.0,0.0,0.0,0.0,0.0,0.0,0.0,0.0,0.0,0.0,0.0,0.0,0.0,0.0,0.0,0.0,0.0,0.0,0.0,0.0,0.0,0.0,0.0,4.834,5.517,5.9858,6.0704,6.0819,6.0819,6.0819,5.6165,5.2164,0.0,0.0,0.0,0.0,0.0,0.0,0.0,0.0,0.0,0.0,0.0,0.0,0.0,0.0,0.0,0.0,0.0,0.0,0.0,0.0,0.0,0.0,0.0,0.0,0.0,0.0,0.0,0.0,0.0,0.0,0.0,0.0,0.0,0.0,0.0,0.0,0.0,0.0,0.0,0.0,0.0,0.0,0.0,0.0,0.0,0.0,0.0,0.0,0.0,0.0,0.0,0.0,0.0,0.0,0.0,0.0,0.0,0.0,0.0,0.0,0.0,0.0,0.0,0.0,0.0,0.0,0.0,0.0,0.0,0.0,0.0,0.0,0.0,0.0,0.0,0.0,0.0,0.0,0.0,0.0,0.0,0.0,0.0,0.0,0.0,0.0,0.0,0.0,0.0,0.0,0.0,0.0,0.0,0.0,0.0,0.0,0.0,0.0,0.0,0.0,0.0,0.0,0.0,0.0,5.5797,6.0742,6.1627,6.1704,6.1704,6.1704,5.8127,5.428,5.0548,0.0,0.0,0.0,0.0,0.0,0.0,0.0,0.0,0.0,0.0,0.0,0.0,0.0,0.0,0.0,0.0,0.0,0.0,0.0,0.0,0.0,0.0,0.0,0.0,0.0,0.0,0.0,0.0,0.0,0.0,0.0,0.0,0.0,0.0,0.0,0.0,0.0,0.0,0.0,0.0,0.0,0.0,0.0,0.0,0.0,0.0,0.0,0.0,0.0,0.0,0.0,0.0,0.0,0.0,0.0,0.0,0.0,0.0,0.0,0.0,0.0,0.0,0.0,0.0,0.0,0.0,0.0,0.0,0.0,0.0,0.0,0.0,0.0,0.0,0.0,0.0,0.0,0.0,0.0,0.0,0.0,0.0,0.0,0.0,0.0,0.0,0.0,0.0,0.0,0.0,0.0,0.0,0.0,0.0,0.0,0.0,0.0,0.0,0.0,0.0,0.0,0.0,4.9798,5.678,6.1627,6.2474,6.2589,6.2435,6.2127,5.9588,5.5895,5.101,0.0,0.0,0.0,0.0,0.0,0.0,0.0,0.0,0.0,0.0,0.0,0.0,0.0,0.0,0.0,0.0,0.0,0.0,0.0,0.0,0.0,0.0,0.0,0.0,0.0,0.0,0.0,0.0,0.0,0.0,0.0,0.0,0.0,0.0,0.0,0.0,0.0,0.0,0.0,0.0,0.0,0.0,0.0,0.0,0.0,0.0,0.0,0.0,0.0,0.0,0.0,0.0,0.0,0.0,0.0,0.0,0.0,0.0,0.0,0.0,0.0,0.0,0.0,0.0,0.0,0.0,0.0,0.0,0.0,0.0,0.0,0.0,0.0,0.0,0.0,0.0,0.0,0.0,0.0,0.0,0.0,0.0,0.0,0.0,0.0,0.0,0.0,0.0,0.0,0.0,0.0,0.0,0.0,0.0,0.0,0.0,0.0,0.0,0.0,0.0,0.0,0.0,5.1395,5.7973,6.2512,6.332,6.3435,6.3089,6.2281,6.0627,5.7165,5.1433,0.0,0.0,0.0,0.0,0.0,0.0,0.0,0.0,0.0,0.0,0.0,0.0,0.0,0.0,0.0,0.0,0.0,0.0,0.0,0.0,0.0,0.0,0.0,0.0,0.0,0.0,0.0,0.0,0.0,0.0,0.0,0.0,0.0,0.0,0.0,0.0,0.0,0.0,0.0,0.0,0.0,0.0,0.0,0.0,0.0,0.0,0.0,0.0,0.0,0.0,0.0,0.0,0.0,0.0,0.0,0.0,0.0,0.0,0.0,0.0,4.1277,0.0,0.0,0.0,0.0,0.0,0.0,0.0,0.0,0.0,0.0,0.0,0.0,0.0,0.0,0.0,0.0,0.0,0.0,0.0,0.0,0.0,0.0,0.0,0.0,0.0,0.0,0.0,0.0,0.0,0.0,0.0,0.0,0.0,0.0,0.0,0.0,0.0,0.0,0.0,0.0,0.0,5.2279,5.8858,6.3358,6.4243,6.432,6.3974,6.3128,6.1473,5.855,5.3972,0.0,0.0,0.0,0.0,0.0,0.0,0.0,0.0,0.0,0.0,0.0,0.0,0.0,0.0,0.0,0.0,0.0,0.0,0.0,0.0,0.0,0.0,0.0,0.0,0.0,0.0,0.0,0.0,0.0,0.0,0.0,0.0,0.0,0.0,0.0,0.0,0.0,0.0,0.0,0.0,0.0,0.0,0.0,0.0,0.0,0.0,0.0,0.0,0.0,0.0,0.0,0.0,0.0,0.0,0.0,0.0,0.0,0.0,0.0,0.0,0.0,4.4162,0.0,0.0,0.0,0.0,0.0,0.0,0.0,0.0,0.0,0.0,0.0,0.0,0.0,0.0,0.0,0.0,0.0,0.0,0.0,0.0,0.0,0.0,0.0,0.0,0.0,0.0,0.0,0.0,0.0,0.0,0.0,0.0,0.0,0.0,0.0,0.0,0.0,0.0,0.0,0.0,5.3164,5.9358,6.3782,6.5089,6.5205,6.4859,6.4012,6.2743,6.0396,5.6588,5.2702,0.0,0.0,0.0,0.0,0.0,0.0,0.0,0.0,0.0,0.0,0.0,0.0,0.0,0.0,0.0,0.0,0.0,0.0,0.0,0.0,0.0,0.0,0.0,0.0,0.0,0.0,0.0,0.0,0.0,0.0,0.0,0.0,0.0,0.0,0.0,0.0,0.0,0.0,0.0,0.0,0.0,0.0,0.0,0.0,0.0,0.0,0.0,0.0,0.0,0.0,0.0,0.0,0.0,5.1471,5.2049,5.2933,5.3587,5.4357,5.5049,5.2202,5.0702,5.0125,0.0,0.0,0.0,0.0,0.0,0.0,0.0,0.0,0.0,0.0,0.0,0.0,0.0,0.0,0.0,0.0,0.0,0.0,0.0,0.0,0.0,0.0,0.0,0.0,0.0,5.2081,5.1056,0.0,0.0,0.0,0.0,0.0,0.0,0.0,0.0,0.0,0.0,0.0,0.0,5.4511,6.005,6.4128,6.5743,6.5897,6.5551,6.4666,6.3935,6.2166,5.8934,5.5818,5.201,0.0,0.0,0.0,0.0,0.0,0.0,0.0,0.0,0.0,0.0,0.0,0.0,0.0,0.0,0.0,0.0,0.0,0.0,0.0,0.0,0.0,0.0,0.0,0.0,0.0,0.0,0.0,0.0,0.0,0.0,0.0,0.0,3.4353,3.7007,0.0,0.0,0.0,0.0,0.0,0.0,0.0,0.0,0.0,0.0,0.0,0.0,0.0,0.0,5.2202,5.528,5.728,5.8204,5.9704,6.0858,6.1627,6.1743,6.2281,6.3089,6.2627,0.0,5.3741,5.2664,0.0,0.0,0.0,0.0,0.0,0.0,0.0,0.0,0.0,0.0,0.0,0.0,0.0,0.0,0.0,0.0,0.0,0.0,0.0,0.0,0.0,0.0,5.7543,5.7251,5.7828,5.7774,0.0,5.0074,4.5235,4.3023,0.0,0.0,0.0,0.0,0.0,0.0,0.0,0.0,5.7126,6.1666,6.482,6.5782,6.5897,6.5551,6.4666,6.4474,6.332,6.0627,5.8665,5.6319,5.3433,4.8779,0.0,0.0,0.0,0.0,0.0,0.0,0.0,0.0,0.0,0.0,0.0,0.0,0.0,0.0,0.0,0.0,0.0,0.0,0.0,0.0,0.0,0.0,0.0,0.0,0.0,0.0,0.0,0.0,0.0,3.5507,3.8892,4.0008,4.0623,4.0585,0.0,0.0,0.0,0.0,0.0,0.0,0.0,0.0,0.0,5.301,5.5088,5.7049,5.8858,6.0858,6.2243,6.3128,6.432,6.5089,6.5436,6.5936,6.6628,6.7475,6.7475,6.5513,6.205,5.8819,5.5203,5.1587,0.0,0.0,0.0,0.0,4.9971,5.0298,5.3464,5.4227,0.0,0.0,0.0,0.0,0.0,0.0,0.0,0.0,0.0,0.0,0.0,0.0,0.0,6.0858,6.1396,6.1435,6.0704,5.7751,5.3728,0.0,4.8068,4.6894,4.2239,0.0,0.0,0.0,0.0,0.0,5.9127,6.3012,6.5628,6.6474,6.6551,6.6244,6.5397,6.4897,6.3897,6.232,6.0627,5.8781,5.6703,5.3126,4.9125,0.0,0.0,0.0,0.0,0.0,0.0,0.0,0.0,0.0,0.0,0.0,0.0,0.0,0.0,0.0,0.0,0.0,0.0,0.0,0.0,0.0,0.0,0.0,0.0,0.0,0.0,0.0,0.0,3.9815,4.2854,4.3085,4.4778,4.5201,0.0,0.0,0.0,0.0,0.0,0.0,5.1548,5.3895,5.6319,5.8858,6.0781,6.2704,6.4589,6.5667,6.6667,6.7513,6.8129,6.8513,6.8744,6.9398,7.0052,7.0667,7.0667,7.0167,6.9013,6.432,6.0165,5.6665,5.5818,5.4587,5.3549,5.5665,5.6165,5.6357,6.0396,6.1358,6.045,5.8347,0.0,5.5629,5.1648,0.0,0.0,0.0,0.0,5.5895,5.9088,6.0666,6.1935,6.382,6.4436,6.4551,6.432,6.3782,6.1358,0.0,5.4472,5.351,4.7394,0.0,0.0,0.0,0.0,5.7242,6.1243,6.4359,6.6513,6.7321,6.7244,6.6859,6.6244,6.5436,6.4551,6.3705,6.2243,6.0781,5.9319,5.6819,5.3395,4.8933,0.0,0.0,0.0,0.0,0.0,0.0,0.0,0.0,0.0,0.0,0.0,0.0,0.0,0.0,0.0,0.0,0.0,0.0,0.0,0.0,0.0,0.0,0.0,0.0,0.0,0.0,0.0,0.0,0.0,4.6547,4.8856,0.0,0.0,0.0,0.0,5.024,5.1895,5.4357,5.7665,5.9473,6.1589,6.4128,6.6667,6.8013,6.8129,6.9783,7.1014,7.186,7.1898,7.236,7.3168,7.3245,7.3283,7.3322,7.3322,7.2822,7.1745,6.8205,6.5243,6.2781,6.1973,6.1089,6.0396,6.1358,6.2166,6.2974,6.4051,6.4397,6.432,6.418,6.195,5.9219,5.8989,5.722,0.0,0.0,5.9704,6.1012,6.3628,6.5474,6.6744,6.6859,6.7552,6.7936,6.709,6.6859,6.5551,0.0,5.9127,5.7473,5.5434,0.0,5.4626,5.6203,5.805,6.0512,6.3974,6.5936,6.7359,6.8244,6.759,6.709,6.7051,6.6282,6.5474,6.4589,6.3666,6.2781,6.1935,5.9473,5.6857,5.4164,4.924,0.0,0.0,0.0,0.0,0.0,0.0,0.0,0.0,0.0,0.0,0.0,0.0,0.0,0.0,0.0,0.0,0.0,0.0,0.0,0.0,0.0,0.0,0.0,0.0,0.0,0.0,0.0,0.0,5.0779,5.2702,0.0,0.0,5.3087,5.4241,5.6203,5.7973,6.0165,6.3051,6.4782,6.659,6.859,7.009,7.1129,7.1668,7.2783,7.3514,7.3822,7.4938,7.563,7.5976,7.6476,7.6707,7.6707,7.6707,7.6245,7.5399,7.4168,7.1206,6.7398,6.709,6.6474,6.582,6.6667,6.7167,6.7552,6.8359,6.8321,6.7705,6.6551,6.5013,6.3628,6.3628,6.2974,6.2435,6.3358,6.4205,6.5051,6.5974,6.7051,6.7936,6.7936,6.8167,6.8321,6.8013,6.7936,6.7475,6.5974,6.3897,6.1627,5.9358,5.9204,5.9396,5.9435,6.1358,6.382,6.6667,6.8052,6.8898,6.9206,6.8975,6.8321,6.7205,6.6821,6.582,6.3897,6.3474,6.2704,6.132,6.0396,5.8434,5.5318,5.2972,4.8471,0.0,0.0,0.0,0.0,0.0,0.0,0.0,0.0,0.0,0.0,0.0,0.0,0.0,0.0,0.0,0.0,0.0,0.0,0.0,0.0,0.0,0.0,0.0,0.0,0.0,0.0,5.2779,5.3895,5.6549,5.7934,5.7049,5.8011,5.9511,6.1512,6.3243,6.5205,6.7475,6.8936,7.0437,7.2129,7.3014,7.3899,7.4784,7.5592,7.5976,7.6015,7.713,7.7707,7.7707,7.8246,7.8477,7.8477,7.8477,7.8207,7.7707,7.7707,7.5707,7.2591,7.1706,7.086,7.0206,7.0783,7.0975,7.1052,7.1591,7.1245,7.036,6.9206,6.8244,6.759,6.759,6.759,6.7628,6.7936,6.8398,6.8898,6.9167,6.9706,7.0129,7.0129,7.0129,7.0129,7.0129,7.0129,7.0052,6.9744,6.7628,6.5243,6.3281,6.3397,6.3589,6.3012,6.4359,6.6282,6.8552,6.936,6.9821,7.009,6.986,6.9129,6.7667,6.7013,6.5859,6.3858,6.3205,6.2281,6.0858,6.0512,5.9011,5.6203,5.4203,5.0317,4.4355,0.0,0.0,0.0,0.0,0.0,0.0,0.0,0.0,0.0,0.0,0.0,0.0,0.0,0.0,0.0,0.0,0.0,0.0,0.0,0.0,0.0,0.0,0.0,4.824,5.2664,5.5857,5.5972,6.0358,6.2435,6.005,6.2781,6.5089,6.6013,6.7628,6.9283,7.0975,7.1898,7.3091,7.4784,7.563,7.6476,7.7323,7.813,7.8515,7.8515,7.8554,7.8592,7.8592,7.8592,7.8592,7.8592,7.8592,7.8592,7.8592,7.8592,7.8554,7.8284,7.5784,7.4361,7.3668,7.3668,7.3668,7.3668,7.3591,7.3014,7.2322,7.2245,7.1668,7.0975,7.0975,7.0975,7.1168,7.2014,7.2245,7.2437,7.3283,7.3514,7.3514,7.3514,7.3514,7.3514,7.3514,7.3514,7.3245,7.2399,7.0244,6.8282,6.7321,6.7167,6.7128,6.7167,6.7167,0.0,6.9513,6.9744,7.0052,7.0821,7.0206,6.9398,6.8513,6.6898,6.5551,6.4666,6.3012,6.1704,6.0819,5.9973,5.8742,5.7088,5.2933,4.9586,4.7086,0.0,0.0,0.0,0.0,0.0,0.0,0.0,0.0,0.0,0.0,0.0,0.0,0.0,0.0,0.0,0.0,0.0,0.0,0.0,0.0,0.0,0.0,5.2702,5.351,5.6395,5.9396,6.1858,6.3935,6.5628,6.6782,6.7167,6.8205,7.0321,7.1475,7.2822,7.4514,7.5399,7.6361,7.74,7.7669,7.7938,7.8169,7.9015,7.9438,7.9438,8.0092,8.04,8.04,8.04,8.04,8.04,8.04,8.04,8.04,8.04,8.0015,7.9323,7.7977,7.7323,7.713,7.713,7.713,7.6938,7.5745,7.5168,7.4745,7.3553,7.2976,7.2783,7.2783,7.2783,7.286,7.3091,7.3129,7.3206,7.3437,7.3514,7.3514,7.3514,7.3514,7.3514,7.3514,7.3514,7.3437,7.3206,7.2591,7.1437,6.936,6.8475,6.8244,6.8898,6.8975,0.0,7.0437,7.0552,7.0667,7.0898,7.0706,7.0244,6.9398,6.7744,6.6167,6.4705,6.3012,6.1704,6.0819,6.055,5.9935,5.8819,5.528,5.2818,0.0,0.0,0.0,0.0,0.0,0.0,0.0,0.0,0.0,0.0,0.0,0.0,0.0,0.0,0.0,0.0,0.0,0.0,0.0,0.0,0.0,0.0,5.4203,5.7396,5.9665,6.0935,6.2781,6.582,6.7244,6.8706,7.0552,7.0937,7.1822,7.363,7.4591,7.5668,7.6976,7.7515,7.8169,7.9015,7.9054,7.9208,7.9592,8.0092,8.0323,8.0362,8.0862,8.1093,8.1093,8.1093,8.1093,0.0,8.1093,8.1093,8.1093,8.1093,8.0785,0.0,0.0,0.0,0.0,0.0,7.8477,7.8361,7.74,7.7053,7.6899,7.5899,7.5592,7.5515,7.5207,7.5091,7.5014,7.4668,7.4553,7.4553,7.4553,7.4553,7.4553,7.4553,7.4553,7.4553,7.4553,7.4553,7.4437,7.4091,7.4014,0.0,7.1629,7.086,7.0706,7.1206,7.1283,7.1475,7.1937,7.1668,7.1591,7.1937,7.1668,7.1091,7.0283,6.8629,0.0,0.0,0.0,6.155,6.0319,5.9935,0.0,0.0,0.0,0.0,0.0,0.0,0.0,0.0,5.0587,5.0105,0.0,0.0,0.0,0.0,0.0,0.0,0.0,0.0,0.0,0.0,0.0,0.0,0.0,0.0,0.0,0.0,5.8858,6.155,6.5743,6.5743,6.6167,6.8436,7.0167,7.1591,7.2552,7.3976,7.5245,7.6207,7.7092,7.79,7.8592,0.0,0.0,0.0,0.0,8.0323,8.1093,8.1093,8.1093,8.1093,8.1093,8.1093,8.1093,8.1093,8.1093,8.1093,8.1093,8.1093,8.1093,8.1093,8.1093,8.1016,8.0246,7.9477,7.8784,7.8784,7.8784,7.8784,7.8669,0.0,0.0,7.8515,7.8477,7.8361,7.763,7.7438,7.7284,7.6515,7.6284,7.6284,7.6284,7.6284,7.6284,7.6284,7.6284,7.6245,7.6169,7.613,7.5899,7.5014,7.4861,7.463,7.3899,7.363,7.3514,7.3514,7.3514,7.3514,7.3514,7.2822,7.2629,7.3437,0.0,0.0,7.1245,6.959,6.7898,6.6436,6.3935,6.182,6.0281,5.955,5.9473,6.0204,6.0204,6.0973,6.2512,6.2512,6.2512,6.2358,5.6088,5.4818,0.0,0.0,0.0,0.0,0.0,0.0,0.0,0.0,0.0,0.0,0.0,0.0,0.0,0.0,0.0,5.8511,6.1589,6.4859,6.8475,6.9502,7.0105,7.0606,7.2041,7.3668,7.5322,7.563,7.6361,7.79,7.8823,7.94,7.9554,8.0208,0.0,8.0823,8.0862,8.0939,8.1093,8.1093,8.1093,8.1093,0.0,0.0,8.1093,8.1093,8.1093,8.1093,8.1093,8.1093,8.1093,8.1093,8.1093,8.1093,8.09,8.0746,8.0592,8.0592,8.0592,8.0516,7.9785,7.9554,7.9438,7.8707,7.8477,7.8477,7.8323,7.8246,0.0,7.8054,7.8015,7.8015,7.8015,7.8015,7.8015,7.8015,7.8015,7.7823,7.7169,7.7053,7.6784,7.5938,7.5745,7.5707,7.5553,7.4399,7.3514,7.3514,7.3514,7.3514,7.3514,7.336,7.3322,7.3476,7.336,7.3168,7.3014,7.0821,6.9321,6.8975,6.6551,6.5013,6.4666,6.4512,6.4512,6.4666,6.4666,6.482,6.5166,6.5166,6.5166,6.5089,6.2358,6.1473,0.0,0.0,0.0,0.0,0.0,0.0,0.0,0.0,0.0,0.0,0.0,5.1807,0.0,0.0,5.9832,6.3498,6.5884,6.8155,7.0733,7.2272,7.308,7.308,7.4239,7.5585,7.6958,7.7776,7.8507,7.9276,8.0092,8.0592,8.0592,8.1016,8.1285,8.14,8.14,8.1554,8.1862,8.1862,8.2016,8.2362,8.2362,8.2362,8.2362,8.2362,8.2362,8.2362,8.2362,8.2362,8.2324,8.1862,8.1477,8.1093,8.1093,8.1093,8.1093,8.1093,8.1093,8.1054,8.0592,8.0439,8.04,7.9939,7.9785,7.9708,7.9285,7.9131,7.9054,7.8631,7.8477,7.8477,7.8477,7.8477,7.8477,7.8477,7.8477,7.84,7.7977,7.79,7.7746,7.7323,7.7246,7.7246,7.7246,7.6553,7.5707,7.4899,7.4745,7.4745,7.4745,7.4361,7.4284,7.4707,7.4361,7.4091,7.4091,7.2168,7.0591,6.9744,6.8513,6.7628,6.7167,6.7167,6.7359,6.7782,6.7782,6.8013,6.8398,6.8398,6.8398,6.8398,6.7975,6.6859,0.0,0.0,0.0,0.0,0.0,0.0,0.0,0.0,4.8716,5.1296,5.3906,5.6764,6.0126,6.1888,6.4191,6.832,6.9836,7.1118,7.3031,7.4494,7.5495,7.5813,7.6438,7.7282,7.8325,7.9649,8.0393,8.0404,8.103,8.1439,8.1439,8.1591,8.1793,8.1947,8.213,8.2381,8.2862,8.2817,8.3093,8.3593,8.3593,8.3593,8.3593,8.3593,8.3593,8.3593,8.3593,8.3593,8.3555,8.2824,8.217,8.1593,8.1593,8.1593,8.1554,8.1208,8.1093,8.1093,8.1093,8.1093,8.1093,8.1093,8.1093,8.0977,8.0285,8.0054,7.99,7.9208,7.9015,7.9015,7.9015,7.9015,7.9015,7.9015,7.9015,7.8938,7.8784,7.8746,7.8707,7.8515,7.8477,7.8477,7.8477,7.8477,7.7977,7.6476,7.6245,7.6245,7.6245,7.563,7.5515,7.6399,7.5861,7.5361,7.5207,7.3976,7.2476,7.0783,7.0667,7.0283,6.9436,6.9398,6.9744,7.0437,7.0437,7.0744,7.1398,7.1398,7.1398,7.1437,7.2129,7.0898,4.5781,4.4531,0.0,4.6211,4.6758,4.824,0.0,0.0,5.5815,5.8502,6.111,6.3033,6.3402,6.6115,6.8679,6.9862,7.1412,7.3339,7.5793,7.6437,7.7235,7.872,7.8222,7.8453,8.0215,8.0386,8.0698,8.1459,8.1607,8.1701,8.1701,8.2405,8.282,8.2859,8.3615,8.3932,8.3746,8.376,8.3708,8.3593,8.3593,8.3593,8.3593,8.3593,8.3593,8.3593,8.3593,8.3593,8.3593,8.3478,8.3401,8.3324,8.3324,8.3324,8.3131,8.1631,8.1093,8.1093,8.1093,8.1093,8.1093,8.1093,8.1093,8.1093,8.0977,8.0939,8.0939,8.0823,8.0823,8.0823,8.0823,8.0823,8.0823,8.0823,8.0823,8.0592,7.9823,7.9669,7.9438,7.8631,7.8477,7.8477,7.8477,7.8477,7.8169,7.7284,7.713,7.713,7.713,7.7053,7.7323,7.813,7.813,7.7784,7.7053,7.6823,7.5976,7.4245,7.413,7.3783,7.2976,7.2937,7.2976,7.3091,7.3091,7.3129,7.3206,7.3206,7.3206,7.3206,7.3322,7.2745,5.1484,0.0,0.0,0.0,5.2422,5.418,5.6758,5.8003,5.9402,6.2031,6.4258,6.619,6.7576,6.9486,7.1561,0.0,7.4702,7.5915,7.7946,7.7901,7.8132,7.9442,7.9213,7.9465,8.0742,8.127,8.1591,8.1858,8.2357,8.261,8.2609,8.3448,8.397,8.4083,8.448,8.4778,8.5019,8.5023,8.5093,8.5286,8.5286,8.5209,8.5055,8.5055,8.5055,8.5055,8.5055,8.4786,8.4362,8.4362,8.4055,8.3593,8.3593,8.3593,8.3439,8.2247,8.1785,8.1747,8.1246,8.1093,8.1093,8.1093,8.1093,8.1093,8.1093,8.1093,8.1093,8.1093,8.1093,8.1093,8.1093,8.1093,8.1093,8.1093,8.1093,8.1016,8.0631,8.0554,8.0439,8.0092,8.0015,8.0015,8.0015,8.0015,7.9746,7.8861,7.8323,7.7977,7.7977,7.7977,7.813,7.8438,7.8477,7.8361,7.8015,7.7977,7.7669,7.6976,7.6899,7.6746,7.6438,7.6399,7.6399,7.6399,7.6399,7.6399,7.6399,7.6399,7.6399,7.6399,7.6399,7.6207,5.418,0.0,0.0,5.4805,5.7226,5.9375,5.9609,6.1172,6.3086,6.5,6.6758,6.8515,7.0351,7.1797,0.0,7.6211,7.7031,7.7937,7.9602,7.9121,7.8976,7.9925,7.986,8.0039,8.0937,8.1797,8.2344,8.2422,8.3047,8.3497,8.3751,8.456,8.512,8.5234,8.5508,8.5898,8.6523,8.6515,8.6781,8.7311,8.7301,8.7204,8.7012,8.6671,8.6517,8.6517,8.6247,8.5786,8.5247,8.5247,8.4863,8.4286,8.4286,8.4286,8.417,8.3324,8.2862,8.2593,8.1977,8.1785,8.1747,8.1516,8.1439,8.14,8.117,8.1093,8.1093,8.1093,8.1093,8.1093,8.1093,8.1093,8.1093,8.1093,8.1093,8.1093,8.1093,8.1093,8.1093,8.1093,8.1093,8.1093,8.1093,8.1093,8.09,8.0246,7.9631,7.9131,7.89,7.9054,7.9208,7.9208,7.9208,7.9208,7.9208,7.9208,7.9092,7.8861,7.8861,7.8746,7.8515,7.8477,7.8477,7.8477,7.8477,7.8477,7.8477,7.8477,7.8477,7.8477,7.8477,7.8477,0.0,0.0,5.5625,5.7344,6.0312,6.3086,6.3906,6.6094,6.8008,6.8086,6.9414,7.0625,7.0703,7.2773,7.4844,7.5781,7.7344,7.9023,8.0702,8.0198,7.998,8.0847,8.0195,8.0039,0.0,8.1797,8.2656,8.3476,8.3594,8.3945,8.4804,8.5663,8.6132,8.6172,8.6992,8.7695,8.832,8.8323,8.8646,8.9307,8.9328,8.9311,8.9272,8.8161,8.7627,8.7589,8.6555,8.6094,8.6055,8.6055,8.6055,8.6017,8.6017,8.6017,8.594,8.5132,8.4286,8.3555,8.3516,8.3516,8.3362,8.2554,8.2247,8.2131,8.1323,8.1093,8.1093,8.1093,8.1093,8.1093,8.1093,8.1093,8.1093,8.1093,8.1093,8.1093,8.1093,8.1093,8.1093,8.1093,8.1093,8.1093,8.1093,8.1093,8.1093,8.1054,8.1054,8.0708,7.9862,8.0516,8.1016,8.1016,8.1016,8.1016,8.1016,8.1016,8.0669,7.9823,7.9746,7.9361,7.8515,7.8477,7.8477,7.8477,7.8477,7.8477,7.8477,7.8477,7.8477,7.8477,7.8477,7.8477,0.0,0.0,5.9258,6.1562,6.4336,6.6523,6.6836,6.7969,6.9023,6.9062,6.9492,7.0078,7.0586,7.1875,7.3711,7.6328,7.7734,7.9297,8.1562,8.1089,8.0477,8.0155,8.039,0.0,0.0,0.0,0.0,8.3476,8.414,8.4844,8.5703,8.7109,8.7851,8.7851,8.8711,8.9258,8.9453,8.9475,8.9495,8.9612,8.948,8.9382,8.9382,8.8994,8.8713,8.8551,8.8205,8.794,8.7825,8.7825,8.7478,8.6978,8.6978,8.6594,8.6055,8.5786,8.5517,8.5093,8.3978,8.3593,8.3555,8.3247,8.317,8.3093,8.2824,8.2362,8.19,8.19,8.1516,8.1093,8.1093,8.1093,8.1093,8.1093,8.1093,8.1093,8.1093,8.1093,8.1093,8.1093,8.1093,8.1093,8.1093,8.1093,8.1093,8.1093,8.1093,8.0977,8.0708,8.0939,8.1093,8.1093,8.1093,8.1093,8.1093,8.1093,8.0977,8.0669,8.0669,8.0516,8.0246,8.0208,8.0208,8.0208,8.0208,8.0208,8.0208,8.0208,8.0208,8.0208,8.0208,8.0208,0.0,6.1133,6.2812,6.5117,6.7422,6.9101,6.9101,6.9726,7.0156,6.957,6.9453,6.9453,6.9375,7.0039,7.1875,7.5664,7.6992,7.8672,8.1836,8.1562,8.0781,8.0234,8.039,0.0,0.0,0.0,0.0,8.3906,8.457,8.5547,8.6992,8.8125,8.8828,8.914,8.9726,9.0156,9.0469,9.0469,9.0547,9.0742,9.0602,9.0529,9.0529,9.0139,8.9869,8.9693,8.9231,8.894,8.8786,8.8709,8.8363,8.7863,8.7863,8.7517,8.6978,8.6671,8.6555,8.6363,8.4978,8.4478,8.4439,8.417,8.4055,8.4016,8.367,8.3208,8.2747,8.2747,8.2401,8.19,8.1593,8.1516,8.1477,8.117,8.1093,8.1093,8.1093,8.1093,8.1093,8.1093,8.1093,8.1093,8.1093,8.1093,8.1093,8.1093,8.1093,8.1093,8.1093,8.1093,8.1093,8.1093,8.1093,8.1093,8.1093,8.1093,8.1093,8.1093,8.1093,8.1093,8.1093,8.1093,8.1093,8.1093,8.1093,8.1093,8.1093,8.1093,8.1093,8.1093,8.1093,8.1093,6.1523,6.3906,6.6289,6.8047,6.9648,7.082,7.082,7.1367,7.1406,6.9687,6.9219,6.8633,0.0,0.0,6.9531,7.3789,7.5312,7.7461,8.1758,8.164,8.1133,0.0,0.0,0.0,0.0,0.0,0.0,8.4844,0.0,8.6054,8.8554,8.8789,8.9219,9.0039,9.0117,9.0547,9.1367,9.1367,9.1797,9.2617,9.2617,9.2617,9.2578,9.1562,9.1054,9.0974,8.9717,8.9128,8.9133,8.8902,8.8786,8.8748,8.8748,8.8748,8.8594,8.7786,8.7478,8.7325,8.6478,8.6132,8.5978,8.5209,8.4978,8.4824,8.3978,8.3708,8.367,8.367,8.3632,8.3401,8.2593,8.2362,8.217,8.14,8.1246,8.1246,8.1246,8.1246,8.1246,8.1246,8.1208,8.1131,8.1093,8.1093,8.1093,8.1093,8.1093,8.1093,8.1093,8.1093,8.1093,8.1093,8.1093,8.1093,8.1093,8.1093,8.1093,8.1093,8.1093,8.1093,8.1093,8.1093,8.1093,8.1093,8.1093,8.1093,8.1093,8.1093,8.1093,8.1093,8.1093,8.1093,6.5351,6.793,6.9805,7.1562,7.2305,7.2656,7.2656,7.1328,6.9844,6.8711,6.6953,6.5273,0.0,0.0,0.0,7.207,7.5039,0.0,8.2656,8.3086,0.0,0.0,0.0,8.3398,8.2969,8.3515,0.0,0.0,8.625,8.6719,8.8594,8.9922,9.0742,9.0976,9.1601,9.2031,9.2265,9.2265,9.2383,9.2617,9.2617,9.2617,9.2578,9.2304,9.207,9.1874,9.1373,9.1062,9.0864,9.0633,9.0171,8.9594,8.9594,8.9248,8.8671,8.844,8.8363,8.8248,8.7363,8.6632,8.6055,8.5863,8.5786,8.5747,8.5517,8.5055,8.4555,8.4555,8.4093,8.3555,8.3324,8.3247,8.3208,8.3016,8.2939,8.2939,8.2939,8.2939,8.2939,8.2939,8.2439,8.1785,8.1208,8.1093,8.1093,8.1093,8.1093,8.1093,8.1093,8.1093,8.1093,8.1093,8.1093,8.1093,8.1093,8.1093,8.1093,8.1093,8.1093,8.1093,8.1093,8.1093,8.1093,8.1093,8.1093,8.1093,8.1093,8.1093,8.1093,8.1093,8.1093,8.1093,6.8398,7.082,7.2656,7.3633,7.3594,7.3086,7.2344,7.0781,6.8711,6.5937,6.4492,0.0,0.0,0.0,0.0,0.0,0.0,0.0,8.289,8.3594,8.375,0.0,8.4922,0.0,8.4804,8.5547,8.6601,0.0,8.7265,8.7656,8.9726,9.0781,9.1484,9.1875,9.2734,9.3359,9.375,9.375,9.375,9.375,9.375,9.3554,9.3164,9.3164,9.289,9.2343,0.0,9.1796,9.1633,9.1325,9.0902,9.0479,9.0479,9.021,8.9748,8.9363,8.9248,8.9094,8.8248,8.7632,8.7094,8.6363,8.6094,8.6094,8.6094,8.5786,8.544,8.544,8.5055,8.4632,8.4247,8.417,8.4055,8.367,8.3593,8.3593,8.3593,8.3593,8.3593,8.3593,8.3208,8.2708,8.2285,8.2208,8.2054,8.167,8.1939,8.2054,8.167,8.1323,8.1093,8.1093,8.1093,8.1093,8.1093,8.1093,8.1093,8.1093,8.1093,8.1093,8.1093,8.1093,8.1093,8.1093,8.1093,8.1285,8.1631,8.1631,8.1823,8.2208,8.2208,8.2208,7.1055,7.3047,7.4805,7.4922,7.4101,7.2851,7.125,6.9726,6.7305,6.2656,0.0,0.0,5.7422,0.0,6.418,6.8828,0.0,7.6758,8.289,8.3789,8.4179,8.5273,8.6054,8.6562,8.6679,8.7383,8.8203,8.914,8.8554,8.914,9.1367,9.1562,9.2031,9.2929,9.3672,9.4453,9.5195,9.5195,9.5195,9.5195,9.5195,9.4804,9.4062,9.4062,9.3594,9.2734,0.0,0.0,9.1825,9.1402,9.121,9.121,9.121,9.121,9.1133,9.0364,9.0094,8.9979,8.9133,8.8863,8.8594,8.6978,8.644,8.644,8.6324,8.6286,8.6247,8.6132,8.6094,8.594,8.5247,8.5055,8.4863,8.4093,8.3939,8.3939,8.3939,8.3939,8.3901,8.3785,8.3747,8.3747,8.3593,8.3593,8.3324,8.2593,8.3131,8.3324,8.2554,8.1747,8.1285,8.14,8.1323,8.1323,8.14,8.1439,8.1439,8.1439,8.1439,8.1439,8.1439,8.1439,8.1439,8.1439,8.1439,8.1785,8.2477,8.2477,8.2862,8.3593,8.3593,8.3593,7.418,7.5312,7.5859,7.6562,7.5,7.3047,7.1992,6.7812,0.0,0.0,0.0,5.6836,5.7539,5.9414,0.0,6.9414,0.0,0.0,0.0,0.0,0.0,0.0,0.0,0.0,0.0,0.0,0.0,0.0,0.0,9.1914,9.2344,9.3047,9.3867,9.4726,9.4883,9.5039,9.5195,9.5195,9.5195,9.5195,9.5195,9.5117,9.4961,9.4961,9.4492,9.3632,9.3185,0.0,9.1825,9.1402,9.121,9.121,9.121,9.121,9.1171,9.1018,9.0979,9.0864,8.9979,8.971,8.9517,8.8556,8.8248,8.8094,8.7401,8.7171,8.7017,8.6286,8.6094,8.6055,8.594,8.5901,8.5863,8.5709,8.567,8.567,8.567,8.567,8.5478,8.4786,8.467,8.4439,8.3708,8.3593,8.3555,8.3401,8.3478,8.3555,8.3401,8.2631,8.2362,8.3093,8.2516,8.2362,8.3093,8.317,8.317,8.317,8.317,8.317,8.317,8.317,8.317,8.317,8.317,8.3247,8.3362,8.3362,8.3439,8.3593,8.3593,8.3593,7.5898,7.6914,7.7344,7.7773,7.5898,7.3281,7.0625,0.0,0.0,0.0,0.0,5.5273,5.5195,0.0,0.0,0.0,0.0,0.0,0.0,0.0,0.0,0.0,0.0,0.0,0.0,0.0,0.0,0.0,0.0,9.3945,9.3945,9.4336,9.4961,9.5859,9.5898,9.6094,9.6484,9.6484,9.6484,9.6484,9.6484,9.6289,9.5898,9.5898,9.539,9.4531,9.403,0.0,9.2553,9.2056,9.1595,9.121,9.121,9.121,9.121,9.121,9.121,9.1133,9.071,9.0594,9.0517,9.0133,8.9402,8.8632,8.8209,8.8055,8.7979,8.7555,8.744,8.7363,8.6901,8.6786,8.6671,8.6209,8.6094,8.6094,8.6094,8.6094,8.5978,8.5593,8.5517,8.5401,8.4978,8.4901,8.4747,8.4324,8.4632,8.4747,8.4324,8.3901,8.3632,8.3593,8.3208,8.3131,8.3555,8.3593,8.3593,8.3593,8.3593,8.3593,8.3593,8.3593,8.3593,8.3593,8.3593,8.3824,8.4286,8.4286,8.4478,8.4901,8.4901,8.4901,7.668,7.7851,7.8515,7.8515,7.625,7.3008,6.9101,6.4922,0.0,0.0,0.0,0.0,5.3398,0.0,0.0,0.0,0.0,0.0,0.0,0.0,0.0,0.0,0.0,0.0,0.0,0.0,0.0,0.0,0.0,0.0,9.5508,9.5625,9.6054,9.6758,9.6758,9.707,9.7695,9.7695,9.7695,9.7695,9.7695,9.7383,9.6758,9.6758,9.6289,9.5468,9.4958,0.0,0.0,9.2746,9.2018,9.121,9.121,9.121,9.121,9.121,9.121,9.121,9.121,9.121,9.121,9.121,9.0325,8.921,8.9017,8.894,8.8902,8.8748,8.8709,8.8517,8.7863,8.7671,8.7517,8.6824,8.6671,8.6671,8.6671,8.6671,8.6671,8.6671,8.6517,8.6363,8.6363,8.6209,8.5901,8.5247,8.5709,8.5863,8.5247,8.517,8.4901,8.4209,8.3978,8.3939,8.4132,8.4132,8.4132,8.4132,8.4132,8.4132,8.4132,8.4132,8.4132,8.4132,8.4132,8.4478,8.517,8.5363,8.5747,8.6363,8.6555,8.6671,7.6523,7.7851,7.8515,7.8515,7.5351,7.1523,6.8828,0.0,0.0,0.0,5.3398,5.2422,5.4648,0.0,0.0,0.0,0.0,0.0,0.0,0.0,0.0,0.0,0.0,0.0,0.0,0.0,0.0,0.0,0.0,0.0,9.6406,9.707,9.75,9.7578,9.7578,9.7617,9.7695,9.7695,9.7695,9.7695,9.7695,9.7656,9.7578,9.7578,9.7148,9.6367,9.6052,0.0,0.0,9.29,9.2168,9.121,9.121,9.121,9.121,9.121,9.121,9.121,9.121,9.121,9.121,9.121,9.1095,9.0825,9.0017,8.9787,8.9633,8.8902,8.8709,8.8671,8.8594,8.8556,8.8556,8.8479,8.844,8.844,8.844,8.844,8.844,8.844,8.7825,8.7286,8.7286,8.6632,8.6055,8.6017,8.6055,8.6055,8.6017,8.5978,8.5978,8.5901,8.5209,8.5093,8.5824,8.5863,8.5863,8.5863,8.5863,8.5863,8.5863,8.5863,8.5863,8.5863,8.5863,8.5901,8.5978,8.6786,8.7209,8.7286,8.8094,8.844,7.6992,7.8594,7.9219,7.9219,7.5976,7.1836,6.8242,0.0,0.0,5.5,5.3281,5.2656,5.4219,5.539,0.0,0.0,0.0,0.0,0.0,0.0,0.0,0.0,0.0,0.0,0.0,0.0,0.0,0.0,0.0,0.0,9.7226,9.7539,9.7695,9.7695,9.7695,9.7695,9.7695,9.7695,9.7695,9.7695,9.7695,9.7695,9.7695,9.7695,9.7539,9.7226,9.6992,0.0,0.0,9.3862,9.2823,9.1364,9.1364,9.1325,9.121,9.121,9.121,9.121,9.121,9.121,9.121,9.121,9.121,9.1133,9.0787,9.0671,9.0633,9.0287,9.021,9.0094,8.9556,8.9056,8.8709,8.8709,8.8709,8.8709,8.8709,8.8709,8.8709,8.8709,8.8402,8.8171,8.8171,8.7902,8.7478,8.6978,8.6863,8.6709,8.617,8.6094,8.6094,8.6094,8.5824,8.5747,8.6055,8.6094,8.6094,8.6094,8.6094,8.6094,8.6094,8.6594,8.6863,8.6863,8.7401,8.7671,8.7671,8.8017,8.8171,8.8171,8.8517,8.8709,7.5859,7.793,7.8945,7.8945,7.5703,7.1484,0.0,0.0,5.6914,5.4805,5.3476,5.3047,5.418,5.5586,5.7344,0.0,0.0,0.0,0.0,0.0,0.0,0.0,0.0,0.0,0.0,0.0,0.0,0.0,0.0,0.0,0.0,9.7695,9.7695,9.7695,9.7695,9.7695,9.7695,9.7695,9.7695,9.7695,9.7695,9.7695,9.7695,9.7695,9.7695,9.7695,0.0,0.0,0.0,9.4989,9.3706,9.1901,9.1891,9.1595,9.121,9.121,9.121,9.121,9.121,9.121,9.121,9.121,9.121,9.121,9.121,9.121,9.121,9.121,9.121,9.1056,9.0441,8.9863,8.944,8.944,8.944,8.944,8.944,8.944,8.944,8.944,8.921,8.9056,8.9056,8.8863,8.8479,8.7863,8.7786,8.7555,8.694,8.6863,8.6863,8.6863,8.6863,8.6748,8.6517,8.6709,8.6863,8.6863,8.6863,8.6863,8.6863,8.744,8.7786,8.7786,8.8402,8.8709,8.8709,8.894,8.9056,8.9056,8.9325,8.944,7.2422,7.5234,7.7226,7.7226,7.3945,6.9844,0.0,6.0937,5.6367,5.5469,5.3906,5.3242,5.4961,5.6015,5.7187,0.0,0.0,0.0,0.0,0.0,0.0,0.0,0.0,0.0,0.0,0.0,0.0,0.0,0.0,0.0,0.0,9.7695,9.7695,9.7695,9.7695,9.7695,9.7695,9.7695,9.7695,9.7695,9.7695,9.7695,9.7695,9.7695,9.7695,0.0,0.0,0.0,0.0,9.6093,9.4783,9.2765,9.2788,9.2168,9.121,9.121,9.121,9.121,9.121,9.121,9.121,9.121,9.121,9.121,9.121,9.121,9.121,9.121,9.121,9.121,9.121,9.1171,9.1171,9.1171,9.1171,9.1171,9.1171,9.1171,9.1171,9.1171,9.0479,8.9902,8.9902,8.9248,8.8709,8.8671,8.8671,8.8671,8.8671,8.8671,8.8671,8.8671,8.8671,8.8325,8.744,8.8171,8.8671,8.8671,8.8671,8.8671,8.8671,8.8671,8.8671,8.8671,8.8709,8.8709,8.8709,8.9517,8.9902,8.9902,9.0787,9.1171,6.8164,7.0781,7.2617,7.207,7.0,6.7344,6.4492,6.0547,5.707,5.5586,5.4844,5.4648,5.5195,5.6015,5.793,6.2031,0.0,0.0,0.0,0.0,0.0,0.0,0.0,0.0,0.0,0.0,0.0,0.0,0.0,0.0,0.0,9.7695,9.7695,9.7695,9.7695,9.7695,9.7695,9.7695,9.7695,9.7695,9.7695,9.7695,9.7695,9.7695,0.0,0.0,0.0,0.0,0.0,9.6367,9.5052,9.3084,9.3076,9.2322,9.121,9.121,9.121,9.1287,9.1864,9.171,9.1287,9.1902,9.1672,9.121,9.121,9.121,9.121,9.121,9.121,9.121,9.121,9.121,9.121,9.121,9.121,9.121,9.121,9.121,9.121,9.121,9.0979,9.0787,9.0787,9.0594,9.021,8.9594,8.9517,8.9325,8.8748,8.8709,8.8709,8.8709,8.9171,8.921,8.8363,8.8517,8.8709,8.8709,8.8709,8.8709,8.8709,8.9248,8.9517,8.9517,9.0094,9.0402,9.0402,9.0671,9.0787,9.0787,9.1056,9.121,0.0,6.7305,6.9219,6.9062,6.7461,6.5312,6.3047,5.9844,5.7109,5.6015,5.5547,5.539,5.5742,5.6484,5.8242,6.1797,0.0,0.0,0.0,0.0,0.0,0.0,0.0,0.0,0.0,0.0,0.0,0.0,0.0,0.0,0.0,9.7695,9.7695,9.7695,9.7695,9.7695,9.7695,9.7695,9.7695,9.7695,9.7695,9.7695,9.7695,9.7695,0.0,0.0,0.0,0.0,0.0,9.6953,9.5652,9.3707,9.4034,9.313,9.1748,9.2018,9.2133,9.221,9.2749,9.2595,9.2172,9.2402,9.1902,9.121,9.121,9.121,9.121,9.121,9.121,9.121,9.121,9.121,9.121,9.121,9.121,9.121,9.121,9.121,9.121,9.121,9.121,9.121,9.121,9.121,9.1018,9.0479,9.0402,9.021,8.971,8.9633,8.9633,8.9633,9.0094,9.021,8.9671,8.9633,8.9633,8.9633,8.9633,8.9633,8.9633,9.0133,9.0402,9.0402,9.0941,9.121,9.121,9.1518,9.171,9.171,9.2018,9.2133,0.0,6.418,6.6367,6.7109,6.5508,6.332,6.164,5.8789,0.0,5.6523,5.5859,5.5586,5.6601,5.7383,5.832,0.0,0.0,0.0,0.0,0.0,0.0,0.0,0.0,0.0,0.0,0.0,0.0,0.0,0.0,0.0,0.0,9.7695,9.7695,9.7695,9.7695,9.7695,9.7695,9.7695,9.7695,9.7695,9.7695,9.7695,9.7695,9.7695,0.0,0.0,0.0,0.0,0.0,9.7695,9.6472,9.464,9.5424,9.44,9.2672,9.3403,9.371,9.371,9.3749,9.3749,9.3595,9.2826,9.2018,9.1287,9.1287,9.1248,9.121,9.121,9.121,9.121,9.121,9.121,9.121,9.121,9.121,9.121,9.121,9.121,9.121,9.121,9.121,9.121,9.121,9.121,9.121,9.121,9.121,9.121,9.121,9.121,9.121,9.121,9.121,9.121,9.121,9.121,9.121,9.121,9.121,9.121,9.121,9.121,9.121,9.121,9.1248,9.1287,9.1287,9.2172,9.2595,9.2595,9.3364,9.371,5.4141,0.0,5.8906,5.8437,5.8359,5.8125,0.0,0.0,0.0,0.0,0.0,0.0,0.0,0.0,0.0,0.0,0.0,0.0,0.0,0.0,0.0,0.0,0.0,0.0,0.0,0.0,0.0,0.0,0.0,0.0,0.0,9.7695,9.7695,9.7695,9.7695,9.7695,9.7695,9.7695,9.7695,9.7695,9.7695,9.7695,9.7695,9.7695,0.0,0.0,0.0,0.0,9.7695,9.7695,9.6816,9.5438,9.5656,9.4785,9.3441,9.3633,9.371,9.3787,9.4441,9.4249,9.3672,9.348,9.2864,9.2172,9.2172,9.1748,9.121,9.121,9.121,9.121,9.121,9.121,9.121,9.121,9.121,9.121,9.121,9.121,9.121,9.121,9.121,9.121,9.121,9.121,9.121,9.121,9.121,9.121,9.121,9.121,9.121,9.121,9.121,9.121,9.121,9.121,9.121,9.121,9.121,9.121,9.121,9.121,9.121,9.121,9.1864,9.2172,9.221,9.3018,9.3403,9.3403,9.3595,9.371,5.0,5.3398,5.668,5.6992,5.7148,5.707,0.0,0.0,0.0,0.0,0.0,0.0,0.0,0.0,0.0,0.0,0.0,0.0,0.0,0.0,0.0,0.0,0.0,0.0,0.0,0.0,0.0,0.0,0.0,0.0,0.0,9.7695,9.7695,9.7695,9.7695,9.7695,9.7695,9.7695,9.7695,9.7695,9.7695,9.7695,9.7695,9.7695,9.7695,0.0,0.0,0.0,9.7695,9.7695,9.6973,9.59,9.6203,9.5555,9.448,9.4788,9.4903,9.4941,9.5441,9.5018,9.4287,9.4287,9.371,9.3056,9.3056,9.271,9.2172,9.1441,9.121,9.121,9.121,9.121,9.121,9.121,9.121,9.121,9.121,9.121,9.1325,9.171,9.1787,9.1902,9.2287,9.2364,9.2364,9.2364,9.2364,9.2364,9.2364,9.2364,9.2364,9.2364,9.2364,9.2364,9.2364,9.2364,9.2018,9.1248,9.121,9.121,9.121,9.1595,9.1979,9.2326,9.2826,9.3056,9.3056,9.3903,9.4287,9.4287,9.4711,9.4903,4.8203,5.2305,5.664,5.7734,5.7734,5.7461,0.0,0.0,0.0,0.0,0.0,0.0,0.0,0.0,0.0,0.0,0.0,0.0,0.0,0.0,0.0,0.0,0.0,0.0,0.0,0.0,0.0,0.0,0.0,0.0,0.0,9.7695,9.7695,9.7695,9.7695,9.7695,9.7695,9.7695,9.7695,9.7695,9.7695,9.7695,9.7695,9.7695,9.7695,0.0,0.0,0.0,9.7695,9.7695,9.7108,9.63,9.6812,9.6394,9.5595,9.6095,9.6288,9.6288,9.6288,9.5826,9.5211,9.5211,9.4595,9.3903,9.3903,9.3787,9.3403,9.1979,9.1595,9.1595,9.1595,9.1595,9.1556,9.1441,9.1479,9.1556,9.1441,9.1479,9.1787,9.2556,9.2672,9.2903,9.3595,9.371,9.371,9.371,9.371,9.371,9.371,9.371,9.371,9.371,9.371,9.371,9.371,9.371,9.3095,9.1672,9.1595,9.1595,9.1595,9.2287,9.2979,9.3672,9.3826,9.3903,9.3903,9.4749,9.5211,9.5211,9.5942,9.6288,5.0937,5.3672,5.5039,5.3086,5.4141,5.5508,0.0,0.0,0.0,0.0,0.0,0.0,0.0,0.0,0.0,0.0,0.0,0.0,0.0,0.0,0.0,0.0,0.0,0.0,0.0,0.0,0.0,0.0,0.0,0.0,0.0,9.7695,9.7695,9.7695,9.7695,9.7695,9.7695,9.7695,9.7695,9.7695,9.7695,9.7695,9.7695,9.7695,9.7695,0.0,0.0,9.7695,9.7695,9.7695,9.7382,9.6865,9.6954,9.6666,9.6172,9.6288,9.6288,9.6288,9.6288,9.6211,9.6095,9.6095,9.5518,9.4788,9.4788,9.4287,9.3633,9.3403,9.3326,9.3326,9.3326,9.3326,9.3133,9.2441,9.2826,9.3133,9.2441,9.2826,9.3364,9.348,9.3518,9.3557,9.3672,9.371,9.371,9.371,9.371,9.371,9.371,9.371,9.371,9.371,9.371,9.371,9.371,9.371,9.3595,9.3326,9.3326,9.3326,9.3326,9.3441,9.3557,9.371,9.4403,9.4788,9.4788,9.5672,9.6095,9.6095,9.6249,9.6288,4.8711,5.1523,5.3711,5.3008,5.5469,0.0,0.0,0.0,0.0,0.0,0.0,0.0,0.0,0.0,0.0,0.0,0.0,0.0,0.0,0.0,0.0,0.0,0.0,0.0,0.0,0.0,0.0,0.0,0.0,0.0,0.0,0.0,9.7695,9.7695,9.7695,9.7695,9.7695,9.7695,9.7695,9.7695,9.7695,9.7695,9.7695,9.7695,9.7695,9.7695,0.0,9.7695,9.7695,9.7695,9.7522,9.7218,9.7064,9.6783,9.6442,9.6326,9.6288,9.6288,9.6288,9.6288,9.6288,9.6288,9.6019,9.5711,9.5711,9.5403,9.5095,9.5095,9.4441,9.371,9.371,9.371,9.3595,9.3249,9.3441,9.3595,9.321,9.3441,9.3826,9.4287,9.4403,9.4557,9.5018,9.5095,9.5095,9.5095,9.5095,9.5095,9.5095,9.5095,9.5095,9.5095,9.5095,9.5095,9.5095,9.5095,9.4711,9.3749,9.371,9.3903,9.4364,9.4403,9.4634,9.5095,9.548,9.5711,9.5711,9.6095,9.6288,9.6288,9.6288,9.6288,4.7891,5.0508,5.332,0.0,0.0,0.0,0.0,0.0,0.0,0.0,0.0,0.0,0.0,0.0,0.0,0.0,0.0,0.0,0.0,0.0,0.0,0.0,0.0,0.0,0.0,0.0,0.0,0.0,0.0,0.0,0.0,0.0,9.7695,9.7695,9.7695,9.7695,9.7695,9.7695,9.7695,9.7695,9.7695,9.7695,9.7695,9.7695,9.7695,9.7695,9.7695,9.7695,9.7695,9.7684,9.7559,9.7297,9.709,9.6788,9.6519,9.6365,9.6288,9.6288,9.6288,9.6288,9.6288,9.6288,9.6288,9.6288,9.6288,9.6288,9.6288,9.6288,9.5326,9.4326,9.4326,9.4326,9.4249,9.4057,9.4172,9.4249,9.4057,9.4172,9.4518,9.5172,9.5288,9.5518,9.6172,9.6288,9.6288,9.6288,9.6288,9.6288,9.6288,9.6288,9.6288,9.6288,9.6288,9.6288,9.6288,9.6288,9.5749,9.4403,9.4326,9.4595,9.5288,9.5288,9.5634,9.6288,9.6288,9.6288,9.6288,9.6288,9.6288,9.6288,9.6288,9.6288,5.2578,5.3672,5.4492,0.0,0.0,0.0,0.0,0.0,0.0,0.0,0.0,0.0,0.0,0.0,0.0,0.0,0.0,0.0,0.0,0.0,0.0,0.0,0.0,0.0,0.0,0.0,0.0,0.0,0.0,0.0,0.0,0.0,0.0,9.7695,9.7695,9.7695,9.7695,9.7695,9.7695,9.7695,9.7695,9.7695,9.7695,9.7695,9.7695,9.7695,9.7695,9.7695,9.7694,9.7682,9.742,9.703,9.7021,9.6711,9.6326,9.6326,9.6288,9.6288,9.6288,9.6288,9.6288,9.6288,9.6288,9.6288,9.6288,9.6288,9.6288,9.6288,9.6211,9.6095,9.6095,9.6095,9.5903,9.5095,9.5518,9.5903,9.5057,9.5518,9.6134,9.6211,9.6211,9.6249,9.6288,9.6288,9.6288,9.6288,9.6288,9.6288,9.6288,9.6288,9.6288,9.6288,9.6288,9.6288,9.6288,9.6288,9.6249,9.6134,9.6095,9.6134,9.6211,9.6211,9.6249,9.6288,9.6288,9.6288,9.6288,9.6288,9.6288,9.6288,9.6288,9.6288,5.0469,5.2383,0.0,0.0,0.0,0.0,0.0,0.0,0.0,0.0,0.0,0.0,0.0,0.0,0.0,0.0,0.0,0.0,0.0,0.0,0.0,0.0,0.0,0.0,0.0,0.0,0.0,0.0,0.0,0.0,0.0,0.0,0.0,9.7695,9.7695,9.7695,9.7695,9.7187,9.6953,9.6953,9.7461,9.7695,9.7695,9.7695,9.7422,9.6953,9.6953,9.6953,9.6952,9.6954,9.6973,9.6954,9.6706,9.6442,9.6288,9.6288,9.6288,9.6288,9.6288,9.6288,9.6288,9.6288,9.6288,9.6288,9.6288,9.6288,9.6288,9.6288,9.6288,9.6288,9.6288,9.6288,9.6211,9.5903,9.6057,9.6211,9.5865,9.6057,9.6288,9.6288,9.6288,9.6288,9.6288,9.6288,9.6288,9.6288,9.6288,9.6288,9.6288,9.6288,9.6288,9.6288,9.6288,9.6288,9.6288,9.6288,9.6288,9.6288,9.6288,9.6288,9.6288,9.6288,9.6288,9.6288,9.6288,9.6288,9.6288,9.6288,9.6288,9.6288,9.6288,9.6288,4.9766,5.1797,0.0,0.0,0.0,0.0,0.0,0.0,0.0,0.0,0.0,0.0,0.0,0.0,0.0,0.0,0.0,0.0,0.0,0.0,0.0,0.0,0.0,0.0,0.0,0.0,0.0,0.0,0.0,0.0,0.0,0.0,0.0,0.0,9.7461,9.7304,9.7304,9.6484,9.6094,9.6094,9.664,9.6914,9.6914,9.6914,9.6601,9.6094,9.6094,9.6094,9.6093,9.6408,9.6719,9.6979,9.6459,9.6288,9.6288,9.6288,9.6288,9.6288,9.6288,9.6288,9.6288,9.6288,9.6288,9.6288,9.6288,9.6288,9.6288,9.6288,9.6288,9.6288,9.6288,9.6288,9.6288,9.6288,9.6288,9.6288,9.6288,9.6288,9.6288,9.6288,9.6288,9.6288,9.6288,9.6288,9.6288,9.6288,9.6288,9.6288,9.6288,9.6288,9.6288,9.6288,9.6288,9.6288,9.6288,9.6288,9.6288,9.6288,9.6288,9.6288,9.6288,9.6288,9.6288,9.6288,9.6288,9.6288,9.6288,9.6288,9.6288,9.6288,9.6288,9.6288,5.1641,5.2656,0.0,0.0,0.0,0.0,0.0,0.0,0.0,0.0,0.0,0.0,0.0,0.0,0.0,0.0,0.0,0.0,0.0,0.0,0.0,0.0,0.0,0.0,0.0,0.0,0.0,0.0,0.0,0.0,0.0,0.0,0.0,0.0,9.6914,9.6484,9.6484,9.5625,9.5195,9.5195,9.5195,9.5195,9.5195,9.5195,9.5195,9.5195,9.5195,9.5195,9.5233,9.6135,9.6695,9.6942,9.648,9.6288,9.6288,9.6288,9.6288,9.6288,9.6288,9.6288,9.6288,9.6288,9.6288,9.6288,9.6288,9.6288,9.6288,9.6288,9.6288,9.6288,9.6288,9.6288,9.6288,9.6288,9.6288,9.6288,9.6288,9.6288,9.6288,9.6288,9.6288,9.6288,9.6288,9.6288,9.6288,9.6288,9.6288,9.6288,9.6288,9.6288,9.6288,9.6288,9.6288,9.6288,9.6288,9.6288,9.6288,9.6288,9.6288,9.6288,9.6288,9.6288,9.6288,9.6288,9.6288,9.6288,9.6288,9.6288,9.6288,9.6288,9.6288,9.6288,5.0781,0.0,0.0,0.0,0.0,0.0,0.0,0.0,0.0,0.0,0.0,0.0,0.0,0.0,0.0,0.0,0.0,0.0,0.0,0.0,0.0,0.0,0.0,0.0,0.0,0.0,0.0,0.0,0.0,0.0,0.0,0.0,0.0,0.0,9.5703,9.5586,9.5586,9.4726,9.4297,9.4297,9.3672,9.4023,9.5195,9.5195,9.4883,9.4297,9.4297,9.4297,9.4335,9.4823,9.5416,9.6057,9.5557,9.5749,9.6288,9.6288,9.6288,9.6288,9.6288,9.6288,9.6288,9.6288,9.6288,9.6288,9.6288,9.6288,9.6288,9.6288,9.6288,9.6288,9.6288,9.6288,9.6288,9.6288,9.6288,9.6288,9.6288,9.6288,9.6288,9.6288,9.6288,9.6288,9.6288,9.6288,9.6288,9.6288,9.6288,9.6288,9.6288,9.6288,9.6288,9.6288,9.6288,9.6288,9.6288,9.6288,9.6288,9.6288,9.6288,9.6288,9.6288,9.6288,9.6288,9.6288,9.6288,9.6288,9.6288,9.6288,9.6288,9.6288,9.6288,9.6288,0.0,0.0,0.0,0.0,0.0,0.0,0.0,0.0,0.0,0.0,0.0,0.0,0.0,0.0,0.0,0.0,0.0,0.0,0.0,0.0,0.0,0.0,0.0,0.0,0.0,0.0,0.0,0.0,0.0,0.0,0.0,0.0,0.0,0.0,9.4844,9.4687,9.4687,9.3828,9.3398,9.3398,9.2851,9.3164,9.4179,9.4179,9.3867,9.3398,9.3398,9.3594,9.3905,9.3926,9.4627,9.5634,9.5172,9.5518,9.6288,9.6288,9.6288,9.6288,9.6288,9.6288,9.6288,9.6288,9.6288,9.6288,9.6288,9.6288,9.6288,9.6288,9.6288,9.6288,9.6288,9.6288,9.6288,9.6288,9.6288,9.6288,9.6288,9.6288,9.6288,9.6288,9.6288,9.6288,9.6288,9.6288,9.6288,9.6288,9.6288,9.6288,9.6288,9.6288,9.6288,9.6288,9.6288,9.6288,9.6288,9.6288,9.6288,9.6288,9.6288,9.6288,9.6288,9.6288,9.6288,9.6288,9.6288,9.6288,9.6288,9.6288,9.6288,9.6288,9.6288,9.6288,0.0,0.0,0.0,0.0,0.0,0.0,0.0,0.0,0.0,0.0,0.0,0.0,0.0,0.0,0.0,0.0,0.0,0.0,0.0,0.0,0.0,0.0,0.0,0.0,0.0,0.0,0.0,0.0,0.0,0.0,0.0,0.0,0.0,9.4961,9.4179,9.3789,9.3789,9.3008,9.2617,0.0,9.2617,9.2617,9.2617,9.2617,9.2617,9.2617,9.2617,9.3047,9.3749,9.3302,9.4084,9.5553,9.5055,9.5441,9.6288,9.6288,9.6288,9.6288,9.6288,9.6288,9.6288,9.6288,9.6288,9.6288,9.6288,9.6288,9.6288,9.6288,9.6288,9.6288,9.6288,9.6288,9.6288,9.6288,9.6288,9.6288,9.6288,9.6288,9.6288,9.6288,9.6288,9.6288,9.6288,9.6288,9.6288,9.6288,9.6288,9.6288,9.6288,9.6288,9.6288,9.6288,9.6288,9.6288,9.6288,9.6288,9.6288,9.6288,9.6288,9.6288,9.6288,9.6288,9.6288,9.6288,9.6288,9.6288,9.6288,9.6288,9.6288,9.6288,9.6288,9.6288,0.0,0.0,0.0,0.0,0.0,0.0,0.0,0.0,0.0,0.0,0.0,0.0,0.0,0.0,0.0,0.0,0.0,0.0,0.0,0.0,0.0,0.0,0.0,0.0,0.0,0.0,0.0,0.0,0.0,0.0,0.0,0.0,0.0,9.3164,9.2969,9.289,9.289,9.2695,9.2617,0.0,9.2617,9.2617,9.2617,9.2617,9.2617,9.2617,9.2617,9.2695,9.285,9.2354,9.3167,9.4631,9.4134,9.4941,9.6288,9.6288,9.6288,9.6288,9.6288,9.6288,9.6288,9.6288,9.6288,9.6288,9.6288,9.6288,9.6288,9.6288,9.6288,9.6288,9.6288,9.6288,9.6288,9.6288,9.6288,9.6288,9.6288,9.6288,9.6288,9.6288,9.6288,9.6288,9.6288,9.6288,9.6288,9.6288,9.6288,9.6288,9.6288,9.6288,9.6288,9.6288,9.6288,9.6288,9.6288,9.6288,9.6288,9.6288,9.6288,9.6288,9.6288,9.6288,9.6288,9.6288,9.6288,9.6288,9.6288,9.6288,9.6288,9.6288,9.6288,9.6288,0.0,0.0,0.0,0.0,0.0,0.0,0.0,0.0,0.0,0.0,0.0,0.0,0.0,0.0,0.0,0.0,0.0,0.0,0.0,0.0,0.0,0.0,0.0,0.0,0.0,0.0,0.0,0.0,0.0,0.0,0.0,9.3281,9.3086,9.2617,9.2617,9.2617,9.2617,9.2617,9.2617,9.2617,9.2617,9.2617,9.2617,9.2617,9.2617,9.2617,9.2617,9.2528,9.2377,9.2048,9.2586,9.3633,9.3672,9.4518,9.5711,9.6134,9.6288,9.6288,9.6288,9.6288,9.6288,9.6288,9.6288,9.6288,9.6288,9.6288,9.6288,9.6288,9.6288,9.6288,9.6288,9.6288,9.6288,9.6288,9.6288,9.6288,9.6288,9.6288,9.6288,9.6288,9.6288,9.6288,9.6288,9.6288,9.6288,9.6288,9.6288,9.6288,9.6288,9.6288,9.6288,9.6288,9.6288,9.6288,9.6288,9.6288,9.6288,9.6288,9.6288,9.6288,9.6288,9.6288,9.6288,9.6288,9.6288,9.6288,9.6288,9.6288,9.6288,9.6288,9.6288,9.6288,0.0,0.0,0.0,0.0,0.0,0.0,0.0,0.0,0.0,0.0,0.0,0.0,0.0,0.0,0.0,0.0,0.0,0.0,0.0,0.0,0.0,0.0,0.0,0.0,0.0,0.0,0.0,0.0,0.0,0.0,9.2617,9.2617,9.2617,9.2617,9.2617,9.2617,9.2617,9.2617,9.2617,9.2617,9.2617,9.2617,9.2617,9.2617,9.2617,9.2617,9.2617,9.2458,9.2165,9.1965,9.2251,9.2864,9.3326,9.4018,9.4864,9.5749,9.6095,9.6095,9.6249,9.6288,9.6288,9.6288,9.6288,9.6288,9.6288,9.6288,9.6288,9.6288,9.6288,9.6288,9.6288,9.6288,9.6288,9.6288,9.6288,9.6288,9.6288,9.6288,9.6288,9.6288,9.6288,9.6288,9.6288,9.6288,9.6288,9.6288,9.6288,9.6288,9.6288,9.6288,9.6288,9.6288,9.6288,9.6288,9.6288,9.6288,9.6288,9.6288,9.6288,9.6288,9.6288,9.6288,9.6288,9.6288,9.6288,9.6288,9.6288,9.6288,9.6288,9.6288,9.6288,9.6288,0.0,0.0,0.0,0.0,0.0,0.0,0.0,0.0,0.0,0.0,0.0,0.0,0.0,0.0,0.0,0.0,0.0,0.0,0.0,0.0,0.0,0.0,0.0,0.0,0.0,0.0,0.0,0.0,0.0,0.0,9.2617,9.2617,9.2617,9.2617,9.2617,9.2617,9.2617,9.2617,9.2617,9.2617,9.2617,9.2617,9.2617,9.2617,9.2617,9.2617,9.2617,9.2458,9.2168,9.1963,9.2238,9.2787,9.271,9.3172,9.398,9.4826,9.5172,9.5288,9.6057,9.6288,9.6288,9.6288,9.6288,9.6288,9.6288,9.6288,9.6288,9.6288,9.6288,9.6288,9.6288,9.6288,9.6288,9.6288,9.6288,9.6288,9.6288,9.6288,9.6288,9.6288,9.6288,9.6288,9.6288,9.6288,9.6288,9.6288,9.6288,9.6288,9.6288,9.6288,9.6288,9.6288,9.6288,9.6288,9.6288,9.6288,9.6288,9.6288,9.6288,9.6288,9.6288,9.6288,9.6288,9.6288,9.6288,9.6288,9.6288,9.6288,9.6288,9.6288,9.6288,9.6288,0.0,0.0,0.0,0.0,0.0,0.0,0.0,0.0,0.0,0.0,0.0,0.0,0.0,0.0,0.0,0.0,0.0,0.0,0.0,0.0,0.0,0.0,0.0,0.0,0.0,0.0,0.0,0.0,0.0,9.2617,9.2617,9.2617,9.2617,9.2617,9.2617,9.2617,9.2617,9.2109,9.1875,9.1875,9.2383,9.2617,9.2617,9.2617,9.2617,9.2617,9.2617,9.2393,9.2031,9.1946,9.1902,9.1941,9.2326,9.271,9.3172,9.4518,9.498,9.5095,9.6019,9.6288,9.6288,9.6288,9.6288,9.6288,9.6288,9.6288,9.6288,9.6288,9.6288,9.6288,9.6288,9.6288,9.6288,9.6288,9.6288,9.6288,9.6288,9.6288,9.6288,9.6288,9.6288,9.6288,9.6288,9.6288,9.6288,9.6288,9.6288,9.6288,9.6288,9.6288,9.6288,9.6288,9.6288,9.6288,9.6288,9.6288,9.6288,9.6288,9.6288,9.6288,9.6288,9.6288,9.6288,9.6288,9.6288,9.6288,9.6288,9.6288,9.6288,9.6288,9.6288,9.6288,0.0,0.0,0.0,0.0,0.0,0.0,0.0,0.0,0.0,0.0,0.0,0.0,0.0,0.0,0.0,0.0,0.0,0.0,0.0,0.0,0.0,0.0,0.0,0.0,0.0,0.0,0.0,0.0,0.0,9.2187,9.1953,9.1953,9.1953,9.1953,9.1953,9.1953,9.1953,9.1289,9.0976,9.0976,9.1836,9.2265,9.2265,9.25,9.2617,9.2617,9.2535,9.2249,9.1878,9.1801,9.1556,9.1248,9.1902,9.2172,9.2364,9.4057,9.4672,9.4826,9.5903,9.6288,9.6288,9.6288,9.6288,9.6288,9.6288,9.6288,9.6288,9.6288,9.6288,9.6288,9.6288,9.6288,9.6288,9.6288,9.6288,9.6288,9.6288,9.6288,9.6288,9.6288,9.6288,9.6288,9.6288,9.6288,9.6288,9.6288,9.6288,9.6288,9.6288,9.6288,9.6288,9.6288,9.6288,9.6288,9.6288,9.6288,9.6288,9.6288,9.6288,9.6288,9.6288,9.6288,9.6288,9.6288,9.6288,9.6288,9.6288,9.6288,9.6288,9.6288,9.6288,9.6288,0.0,0.0,0.0,0.0,0.0,0.0,0.0,0.0,0.0,0.0,0.0,0.0,0.0,0.0,0.0,0.0,0.0,0.0,0.0,0.0,0.0,0.0,0.0,0.0,0.0,0.0,0.0,0.0,0.0,9.1015,9.0195,9.0156,9.0156,9.0156,9.0156,9.0156,9.0156,9.0078,9.0078,9.0078,9.0937,9.1367,9.1406,9.2226,9.2617,9.2576,9.2348,9.2081,9.1878,9.1608,9.1402,9.121,9.1248,9.1287,9.1479,9.3133,9.3749,9.4018,9.5711,9.6288,9.6288,9.6288,9.6288,9.6288,9.6288,9.6288,9.6288,9.6288,9.6288,9.6288,9.6288,9.6288,9.6288,9.6288,9.6288,9.6288,9.6288,9.6288,9.6288,9.6288,9.6288,9.6288,9.6288,9.6288,9.6288,9.6288,9.6288,9.6288,9.6288,9.6288,9.6288,9.6288,9.6288,9.6288,9.6288,9.6288,9.6288,9.6288,9.6288,9.6288,9.6288,9.6288,9.6288,9.6288,9.6288,9.6288,9.6288,9.6288,9.6288,9.6288,9.6288,9.6288,0.0,0.0,0.0,0.0,0.0,0.0,0.0,0.0,0.0,0.0,0.0,0.0,0.0,0.0,0.0,0.0,0.0,0.0,0.0,0.0,0.0,0.0,0.0,0.0,0.0,0.0,0.0,0.0,0.0,9.0312,9.0039,9.0,9.0,9.0,9.0,8.9726,8.9179,8.9726,8.9726,8.9179,9.0039,9.0742,9.1328,9.1601,9.1991,9.2316,9.2115,9.1993,9.189,9.1616,9.1364,9.121,9.121,9.121,9.1402,9.3095,9.371,9.3941,9.5711,9.6288,9.6288,9.6288,9.6288,9.6288,9.6288,9.6288,9.6288,9.6288,9.6288,9.6288,9.6288,9.6288,9.6288,9.6288,9.6288,9.6288,9.6288,9.6288,9.6288,9.6288,9.6288,9.6288,9.6288,9.6288,9.6288,9.6288,9.6288,9.6288,9.6288,9.6288,9.6288,9.6288,9.6288,9.6288,9.6288,9.6288,9.6288,9.6288,9.6288,9.6288,9.6288,9.6288,9.6288,9.6288,9.6288,9.6288,9.6288,9.6288,9.6288,9.6288,9.6288,9.6288,0.0,0.0,0.0,0.0,0.0,0.0,0.0,0.0,0.0,0.0,0.0,0.0,0.0,0.0,0.0,0.0,0.0,0.0,0.0,0.0,0.0,0.0,0.0,0.0,0.0,0.0,0.0,0.0,0.0,0.0,8.9179,8.914,8.914,8.914,8.914,8.8867,8.8281,8.8867,8.8867,8.832,8.914,8.9883,9.0429,9.0742,9.121,9.1784,9.1566,9.1561,9.1748,9.1479,9.1325,9.121,9.121,9.121,9.1402,9.3095,9.371,9.3941,9.5711,9.6288,9.6288,9.6288,9.6288,9.6288,9.6288,9.6288,9.6288,9.6288,9.6288,9.6288,9.6288,9.6288,9.6288,9.6288,9.6288,9.6288,9.6288,9.6288,9.6288,9.6288,9.6288,9.6288,9.6288,9.6288,9.6288,9.6288,9.6288,9.6288,9.6288,9.6288,9.6288,9.6288,9.6288,9.6288,9.6288,9.6288,9.6288,9.6288,9.6288,9.6288,9.6288,9.6288,9.6288,9.6288,9.6288,9.6288,9.6288,9.6288,9.6288,9.6288,9.6288,9.6288,0.0,0.0,0.0,0.0,0.0,0.0,0.0,0.0,0.0,0.0,0.0,0.0,0.0,0.0,0.0,0.0,0.0,0.0,0.0,0.0,0.0,0.0,0.0,0.0,0.0,0.0,0.0,0.0,8.8672,8.832,8.7539,8.75,8.75,8.75,8.75,8.75,8.75,8.75,8.75,8.75,8.8281,8.8672,8.8711,8.9569,9.0301,9.0937,9.071,9.0941,9.1441,9.1287,9.121,9.121,9.121,9.121,9.1441,9.3095,9.371,9.398,9.5711,9.6288,9.6288,9.6288,9.6288,9.6288,9.6288,9.6288,9.6288,9.6288,9.6288,9.6288,9.6288,9.6288,9.6288,9.6288,9.6288,9.6288,9.6288,9.6288,9.6288,9.6288,9.6288,9.6288,9.6288,9.6288,9.6288,9.6288,9.6288,9.6288,9.6288,9.6288,9.6288,9.6288,9.6288,9.6288,9.6288,9.6288,9.6288,9.6288,9.6288,9.6288,9.6288,9.6288,9.6288,9.6288,9.6288,9.6288,9.6288,9.6288,9.6288,9.6288,9.6288,9.6288,4.582,0.0,0.0,0.0,0.0,0.0,0.0,0.0,0.0,0.0,0.0,0.0,0.0,0.0,0.0,0.0,0.0,0.0,0.0,0.0,0.0,0.0,0.0,0.0,0.0,0.0,0.0,0.0,8.7812,8.7734,8.75,8.75,8.75,8.75,8.75,8.75,8.75,8.75,8.75,8.75,8.7734,8.8125,8.8711,8.8818,8.9182,8.9771,9.0196,9.0364,9.0402,9.0979,9.121,9.121,9.121,9.1595,9.2287,9.3326,9.4095,9.4788,9.5903,9.6288,9.6288,9.6288,9.6288,9.6288,9.6288,9.6288,9.6288,9.6288,9.6288,9.6288,9.6288,9.6288,9.6288,9.6288,9.6288,9.6288,9.6288,9.6288,9.6288,9.6288,9.6288,9.6288,9.6288,9.6288,9.6288,9.6288,9.6288,9.6288,9.6288,9.6288,9.6288,9.6288,9.6288,9.6288,9.6288,9.6288,9.6288,9.6288,9.6288,9.6288,9.6288,9.6288,9.6288,9.6288,9.6288,9.6288,9.6288,9.6288,9.6288,9.6288,9.6288,9.6288,0.0,0.0,0.0,0.0,0.0,0.0,0.0,0.0,0.0,0.0,0.0,0.0,0.0,0.0,0.0,0.0,0.0,0.0,0.0,0.0,0.0,0.0,0.0,0.0,0.0,8.6133,8.6562,8.6914,8.6953,8.7109,8.7461,8.75,8.75,8.75,8.75,8.75,8.75,8.75,8.75,8.75,8.739,8.7585,8.8038,8.7847,8.8068,8.8646,8.9054,8.9479,8.994,9.0441,9.0864,9.121,9.121,9.1748,9.2595,9.3403,9.4249,9.5095,9.6019,9.6288,9.6288,9.6288,9.6288,9.6288,9.6288,9.6288,9.6288,9.6288,9.6288,9.6288,9.6288,9.6288,9.6288,9.6288,9.6288,9.6288,9.6288,9.6288,9.6288,9.6288,9.6288,9.6288,9.6288,9.6288,9.6288,9.6288,9.6288,9.6288,9.6288,9.6288,9.6288,9.6288,9.6288,9.6288,9.6288,9.6288,9.6288,9.6288,9.6288,9.6288,9.6288,9.6288,9.6288,9.6288,9.6288,9.6288,9.6288,9.6288,9.6288,9.6288,9.6288,9.6288,0.0,0.0,0.0,0.0,0.0,0.0,6.0937,6.0664,0.0,0.0,0.0,0.0,0.0,0.0,0.0,0.0,0.0,0.0,0.0,0.0,0.0,0.0,0.0,0.0,8.4765,8.4844,8.5234,8.6015,8.6054,8.6404,8.7288,8.7327,8.7333,8.7416,8.7418,8.7418,8.7418,8.7418,8.7418,8.7416,8.7187,8.707,8.7083,8.6871,8.7033,8.7594,8.7632,8.8479,8.9787,8.9863,9.0402,9.121,9.121,9.1787,9.271,9.3441,9.4287,9.5249,9.6019,9.6288,9.6288,9.6288,9.6288,9.6288,9.6288,9.6288,9.6288,9.6288,9.6288,9.6288,9.6288,9.6288,9.6288,9.6288,9.6288,9.6288,9.6288,9.6288,9.6288,9.6288,9.6288,9.6288,9.6288,9.6288,9.6288,9.6288,9.6288,9.6288,9.6288,9.6288,9.6288,9.6288,9.6288,9.6288,9.6288,9.6288,9.6288,9.6288,9.6288,9.6288,9.6288,9.6288,9.6288,9.6288,9.6288,9.6288,9.6288,9.6288,9.6288,9.6288,9.6288,9.6288,0.0,0.0,0.0,0.0,0.0,0.0,0.0,5.457,0.0,0.0,0.0,0.0,0.0,0.0,0.0,0.0,0.0,0.0,0.0,0.0,0.0,0.0,0.0,0.0,8.3867,8.4492,8.4961,8.5156,8.5156,8.5434,8.612,8.6119,8.6366,8.6922,8.6936,8.6936,8.6936,8.6936,8.6936,8.6936,8.6882,8.6853,8.6858,8.667,8.6601,8.6748,8.7248,8.8017,8.8979,8.9633,9.0402,9.121,9.121,9.2133,9.348,9.3633,9.4711,9.6057,9.6249,9.6288,9.6288,9.6288,9.6288,9.6288,9.6288,9.6288,9.6288,9.6288,9.6288,9.6288,9.6288,9.6288,9.6288,9.6288,9.6288,9.6288,9.6288,9.6288,9.6288,9.6288,9.6288,9.6288,9.6288,9.6288,9.6288,9.6288,9.6288,9.6288,9.6288,9.6288,9.6288,9.6288,9.6288,9.6288,9.6288,9.6288,9.6288,9.6288,9.6288,9.6288,9.6288,9.6288,9.6288,9.6288,9.6288,9.6288,9.6288,9.6288,9.6288,9.6288,9.6288,9.6288,0.0,0.0,0.0,5.6055,0.0,0.0,0.0,0.0,5.5117,0.0,0.0,0.0,0.0,0.0,0.0,0.0,0.0,0.0,0.0,0.0,0.0,0.0,0.0,0.0,8.2304,8.3086,8.3789,8.4219,8.4571,8.4883,8.519,8.5126,8.5235,8.5551,8.5575,8.5744,8.617,8.617,8.6364,8.679,8.6713,8.6644,8.6632,8.6401,8.6286,8.6324,8.7094,8.7902,8.8748,8.9556,9.0402,9.121,9.121,9.1979,9.3133,9.3557,9.4518,9.5711,9.6134,9.6288,9.6288,9.6288,9.6288,9.6288,9.6288,9.6288,9.6288,9.6288,9.6288,9.6288,9.6288,9.6288,9.6288,9.6288,9.6288,9.6288,9.6288,9.6288,9.6288,9.6288,9.6288,9.6288,9.6288,9.6288,9.6288,9.6288,9.6288,9.6288,9.6288,9.6288,9.6288,9.6288,9.6288,9.6288,9.6288,9.6288,9.6288,9.6288,9.6288,9.6288,9.6288,9.6288,9.6288,9.6288,9.6288,9.6288,9.6288,9.6288,9.6288,9.6326,9.6711,9.6903,0.0,0.0,0.0,0.0,0.0,5.6289,0.0,0.0,0.0,5.8164,0.0,0.0,0.0,0.0,0.0,0.0,0.0,0.0,0.0,0.0,0.0,0.0,0.0,0.0,0.0,8.0586,8.152,8.3164,8.3031,8.3272,8.4188,8.4048,8.4048,8.4164,8.4164,8.4478,8.5132,8.5291,8.5747,8.6401,8.644,8.6401,8.6401,8.6209,8.6094,8.617,8.7017,8.7902,8.8748,8.9556,9.0402,9.121,9.121,9.1748,9.2595,9.3403,9.4249,9.5095,9.6019,9.6288,9.6288,9.6288,9.6288,9.6288,9.6288,9.6288,9.6288,9.6288,9.6288,9.6288,9.6288,9.6288,9.6288,9.6288,9.6288,9.6288,9.6288,9.6288,9.6288,9.6288,9.6288,9.6288,9.6288,9.6288,9.6288,9.6288,9.6288,9.6288,9.6288,9.6288,9.6288,9.6288,9.6288,9.6288,9.6288,9.6288,9.6288,9.6288,9.6288,9.6288,9.6288,9.6288,9.6288,9.6288,9.6288,9.6288,9.6288,9.648,9.6442,9.6326,9.7134,9.7519,0.0,0.0,0.0,0.0,6.1172,0.0,0.0,0.0,5.5664,5.3945,0.0,0.0,0.0,0.0,0.0,0.0,0.0,0.0,0.0,0.0,0.0,0.0,0.0,0.0,0.0,7.6328,7.734,8.1852,7.8738,7.8461,8.2593,8.2824,8.3054,8.367,8.367,8.3708,8.3824,8.4593,8.5016,8.5132,8.5824,8.617,8.6132,8.6094,8.6094,8.617,8.7017,8.7902,8.8748,8.9556,9.0402,9.121,9.121,9.1748,9.2595,9.3403,9.4249,9.5095,9.6019,9.6288,9.6288,9.6288,9.6288,9.6288,9.6288,9.6288,9.6288,9.6288,9.6288,9.6288,9.6288,9.6288,9.6288,9.6288,9.6288,9.6288,9.6288,9.6288,9.6288,9.6288,9.6288,9.6288,9.6288,9.6288,9.6288,9.6288,9.6288,9.6288,9.6288,9.6288,9.6288,9.6288,9.6288,9.6288,9.6288,9.6288,9.6288,9.6288,9.6288,9.6288,9.6288,9.6288,9.6288,9.6288,9.6288,9.6288,9.6288,9.7019,9.7019,9.6326,9.7134,9.7519,0.0,0.0,0.0,0.0,0.0,0.0,0.0,0.0,5.3467,0.0,0.0,0.0,0.0,0.0,0.0,0.0,0.0,0.0,0.0,0.0,0.0,0.0,0.0,0.0,0.0,0.0,0.0,0.0,7.6698,7.6784,8.0238,8.1246,8.1862,8.2131,8.2131,8.2362,8.2824,8.3708,8.4401,8.4901,8.5709,8.6094,8.6094,8.6094,8.6094,8.617,8.7555,8.8363,8.8786,9.0094,9.0864,9.121,9.121,9.1441,9.1902,9.321,9.3941,9.4441,9.5826,9.6288,9.6288,9.6288,9.6288,9.6288,9.6288,9.6288,9.6288,9.6288,9.6288,9.6288,9.6288,9.6288,9.6288,9.6288,9.6288,9.6288,9.6288,9.6288,9.6288,9.6288,9.6288,9.6288,9.6288,9.6288,9.6288,9.6288,9.6288,9.6288,9.6288,9.6288,9.6288,9.6288,9.6288,9.6288,9.6288,9.6288,9.6288,9.6288,9.6288,9.6288,9.6288,9.6749,9.7019,9.7019,9.748,9.775,9.775,9.8096,9.8096,9.7788,9.8634,9.9019,6.4531,0.0,0.0,0.0,0.0,0.0,0.0,0.0,0.0,0.0,0.0,0.0,0.0,0.0,0.0,0.0,0.0,0.0,0.0,0.0,0.0,0.0,0.0,0.0,0.0,0.0,0.0,0.0,0.0,7.435,7.8507,7.9785,8.0592,8.1093,8.1093,8.1362,8.1977,8.2824,8.367,8.4555,8.5401,8.5901,8.6094,8.6094,8.6094,8.6209,8.794,8.8709,8.8825,9.0517,9.121,9.121,9.121,9.121,9.1402,9.3095,9.371,9.3941,9.5711,9.6288,9.6288,9.6288,9.6288,9.6288,9.6288,9.6288,9.6288,9.6288,9.6288,9.6288,9.6288,9.6288,9.6288,9.6288,9.6288,9.6288,9.6288,9.6288,9.6288,9.6288,9.6288,9.6288,9.6288,9.6288,9.6288,9.6288,9.6288,9.6288,9.6288,9.6288,9.6288,9.6288,9.6288,9.6288,9.6288,9.6288,9.6288,9.6288,9.6519,9.6634,9.6634,9.7403,9.7865,9.7865,9.8481,9.8788,9.8788,9.9019,9.9173,9.9173,9.9788,10.0096,0.0,0.0,0.0,6.1367,0.0,0.0,0.0,0.0,5.6992,0.0,0.0,0.0,0.0,0.0,0.0,0.0,0.0,0.0,0.0,0.0,0.0,0.0,0.0,0.0,0.0,0.0,0.0,0.0,0.0,0.0,7.8092,7.8554,7.9361,8.1054,8.1093,8.1093,8.1131,8.1939,8.2785,8.3632,8.4516,8.5363,8.6094,8.6094,8.6094,8.6209,8.794,8.8709,8.8825,9.0517,9.121,9.121,9.121,9.121,9.1402,9.3095,9.371,9.3941,9.5711,9.6288,9.6288,9.6288,9.6288,9.6288,9.6288,9.6288,9.6288,9.6288,9.6288,9.6288,9.6288,9.6288,9.6288,9.6288,9.6288,9.6288,9.6288,9.6288,9.6288,9.6288,9.6288,9.6288,9.6288,9.6288,9.6288,9.6288,9.6288,9.6288,9.6288,9.6288,9.6288,9.6288,9.6288,9.6288,9.6288,9.6288,9.6288,9.6288,9.7019,9.7442,9.7442,9.8288,9.875,9.875,9.8788,9.8788,9.8788,9.9635,10.0096,10.0096,10.0096,10.0096,0.0,0.0,7.2773,6.5312,0.0,0.0,0.0,0.0,0.0,0.0,0.0,0.0,0.0,0.0,0.0,0.0,0.0,0.0,0.0,0.0,0.0,0.0,0.0,0.0,0.0,0.0,0.0,0.0,6.7475,0.0,0.0,7.7592,7.9015,8.0208,8.0785,8.1093,8.1093,8.19,8.2747,8.3593,8.4478,8.5324,8.6094,8.6094,8.6094,8.6209,8.794,8.8709,8.8825,9.0517,9.121,9.121,9.121,9.121,9.1402,9.3095,9.371,9.3941,9.5711,9.6288,9.6288,9.6288,9.6288,9.6288,9.6288,9.6288,9.6288,9.6288,9.6288,9.6288,9.6288,9.6288,9.6288,9.6288,9.6288,9.6288,9.6288,9.6288,9.6288,9.6288,9.6288,9.6288,9.6288,9.6288,9.6288,9.6288,9.6288,9.6288,9.6288,9.6288,9.6288,9.6288,9.6288,9.6288,9.6288,9.6788,9.7096,9.7096,9.7904,9.8365,9.8365,9.9211,9.9635,9.9635,10.0212,10.0519,10.0519,10.0305,10.0206,10.0206,9.9629,9.9629,7.2851,7.4375,0.0,6.8828,6.7422,0.0,5.9062,0.0,0.0,0.0,0.0,0.0,0.0,0.0,0.0,0.0,0.0,0.0,0.0,0.0,0.0,0.0,0.0,0.0,0.0,0.0,6.1058,6.4831,0.0,0.0,0.0,0.0,7.7823,7.9285,8.0477,8.1093,8.1093,8.1593,8.2439,8.3593,8.417,8.5016,8.6094,8.6094,8.6094,8.6209,8.794,8.8709,8.8825,9.0517,9.121,9.121,9.121,9.121,9.1402,9.3095,9.4095,9.4788,9.5903,9.6288,9.6288,9.6288,9.6288,9.6288,9.6288,9.6288,9.6288,9.6288,9.6288,9.6288,9.6288,9.6288,9.6288,9.6288,9.6288,9.6288,9.6288,9.6288,9.6288,9.6288,9.6288,9.6288,9.6288,9.6288,9.6288,9.6288,9.6288,9.6288,9.6288,9.6288,9.6288,9.6288,9.6288,9.6442,9.6711,9.7211,9.7634,9.7942,9.8788,9.925,9.925,10.0096,10.0481,10.0481,10.1019,10.121,10.0889,10.0375,10.0125,9.9758,9.8949,9.8831]},{"header":{"parameterUnit":"m.s-1","parameterCategory":1,"la1":30.6,"la2":29.2853,"lo1":-89.7004,"lo2":-87.6739,"dy":0.0162,"dx":0.0183,"nx":112,"ny":82,"refTime":"2025-04-09T12:00:00:Z","depth":0,"parameterNumber":3,"parameterNumberName":"V-component_of_WINDS"},"data":[0.0,0.0,0.0,0.0,0.0,0.0,0.0,0.0,0.0,0.0,0.0,0.0,0.0,0.0,0.0,0.0,0.0,0.0,0.0,0.0,0.0,0.0,0.0,0.0,0.0,0.0,0.0,0.0,0.0,0.0,0.0,0.0,0.0,0.0,0.0,0.0,0.0,0.0,0.0,0.0,0.0,0.0,0.0,0.0,0.0,0.0,0.0,0.0,0.0,0.0,0.0,0.0,0.0,0.0,0.0,0.0,0.0,0.0,0.0,0.0,0.0,0.0,0.0,0.0,0.0,0.0,0.0,0.0,0.0,0.0,0.0,0.0,0.0,0.0,0.0,0.0,0.0,0.0,0.0,0.0,0.0,0.0,0.0,0.0,0.0,0.0,0.0,0.0,0.0,0.0,0.0,-0.8982,-0.9897,-1.0466,-1.0324,-1.0107,-0.951,-0.8411,0.0,0.0,0.0,0.0,0.0,0.0,0.0,0.0,0.0,0.0,0.0,0.0,0.0,0.0,0.0,0.0,0.0,0.0,0.0,0.0,0.0,0.0,0.0,0.0,0.0,0.0,0.0,0.0,0.0,0.0,0.0,0.0,0.0,0.0,0.0,0.0,0.0,0.0,0.0,0.0,0.0,0.0,0.0,0.0,0.0,0.0,0.0,0.0,0.0,0.0,0.0,0.0,0.0,0.0,0.0,0.0,0.0,0.0,0.0,0.0,0.0,0.0,0.0,0.0,0.0,0.0,0.0,0.0,0.0,0.0,0.0,0.0,0.0,0.0,0.0,0.0,0.0,0.0,0.0,0.0,0.0,0.0,0.0,0.0,0.0,0.0,0.0,0.0,0.0,0.0,0.0,0.0,0.0,0.0,0.0,0.0,0.0,0.0,0.0,0.0,0.0,0.0,0.0,0.0,-1.0425,-1.0121,-1.0426,-1.0622,-1.0473,-0.9978,-0.9381,-0.8689,0.0,0.0,0.0,0.0,0.0,0.0,0.0,0.0,0.0,0.0,0.0,0.0,0.0,0.0,0.0,0.0,0.0,0.0,0.0,0.0,0.0,0.0,0.0,0.0,0.0,0.0,0.0,0.0,0.0,0.0,0.0,0.0,0.0,0.0,0.0,0.0,0.0,0.0,0.0,0.0,0.0,0.0,0.0,0.0,0.0,0.0,0.0,0.0,0.0,0.0,0.0,0.0,0.0,0.0,0.0,0.0,0.0,0.0,0.0,0.0,0.0,0.0,0.0,0.0,0.0,0.0,0.0,0.0,0.0,0.0,0.0,0.0,0.0,0.0,0.0,0.0,0.0,0.0,0.0,0.0,0.0,0.0,0.0,0.0,0.0,0.0,0.0,0.0,0.0,0.0,0.0,0.0,0.0,0.0,0.0,0.0,0.0,0.0,0.0,0.0,0.0,0.0,0.0,-1.0103,-0.9911,-1.0383,-1.0588,-1.069,-1.0622,-1.0141,-0.9557,-0.8879,-0.7916,0.0,0.0,0.0,0.0,0.0,0.0,0.0,0.0,0.0,0.0,0.0,0.0,0.0,0.0,0.0,0.0,0.0,0.0,0.0,0.0,0.0,0.0,0.0,0.0,0.0,0.0,0.0,0.0,0.0,0.0,0.0,0.0,0.0,0.0,0.0,0.0,0.0,0.0,0.0,0.0,0.0,0.0,0.0,0.0,0.0,0.0,0.0,0.0,0.0,0.0,0.0,0.0,0.0,0.0,0.0,0.0,0.0,0.0,0.0,0.0,0.0,0.0,0.0,0.0,0.0,0.0,0.0,0.0,0.0,0.0,0.0,0.0,0.0,0.0,0.0,0.0,0.0,0.0,0.0,0.0,0.0,0.0,0.0,0.0,0.0,0.0,0.0,0.0,0.0,0.0,0.0,0.0,0.0,0.0,0.0,0.0,0.0,0.0,0.0,0.0,0.0,0.0,-1.0039,-0.9544,-1.0446,-1.0649,-1.0717,-1.0717,-1.0209,-0.9618,-0.8981,-0.7855,0.0,0.0,0.0,0.0,0.0,0.0,0.0,0.0,0.0,0.0,0.0,0.0,0.0,0.0,0.0,0.0,0.0,0.0,0.0,0.0,0.0,0.0,0.0,0.0,0.0,0.0,0.0,0.0,0.0,0.0,0.0,0.0,0.0,0.0,0.0,0.0,0.0,0.0,0.0,0.0,0.0,0.0,0.0,0.0,0.0,0.0,0.0,0.0,0.0,0.0,0.0,0.0,0.0,0.0,0.0,0.0,0.0,0.0,0.0,0.0,0.0,0.0,0.0,0.0,0.0,0.0,0.0,0.0,0.0,0.0,0.0,0.0,0.0,0.0,0.0,0.0,0.0,0.0,0.0,0.0,0.0,0.0,0.0,0.0,0.0,0.0,0.0,0.0,0.0,0.0,0.0,0.0,0.0,0.0,0.0,0.0,0.0,0.0,0.0,0.0,0.0,0.0,-1.0624,-1.0161,-1.0649,-1.0711,-1.0717,-1.0717,-0.9924,-0.9286,-0.896,-0.7563,0.0,0.0,0.0,0.0,0.0,0.0,0.0,0.0,0.0,0.0,0.0,0.0,0.0,0.0,0.0,0.0,0.0,0.0,0.0,0.0,0.0,0.0,0.0,0.0,0.0,0.0,0.0,0.0,0.0,0.0,0.0,0.0,0.0,0.0,0.0,0.0,0.0,0.0,0.0,0.0,0.0,0.0,0.0,0.0,0.0,0.0,0.0,0.0,0.0,0.0,0.0,0.0,0.0,0.0,0.0,0.0,0.0,0.0,0.0,0.0,0.0,0.0,0.0,0.0,0.0,0.0,0.0,0.0,0.0,0.0,0.0,0.0,0.0,0.0,0.0,0.0,0.0,0.0,0.0,0.0,0.0,0.0,0.0,0.0,0.0,0.0,0.0,0.0,0.0,0.0,0.0,0.0,0.0,0.0,0.0,0.0,0.0,0.0,0.0,0.0,0.0,0.0,-0.9603,-0.991,0.0,-1.0717,-1.0717,-1.0717,-1.0154,-0.9551,-0.8974,0.0,0.0,0.0,0.0,0.0,0.0,0.0,0.0,0.0,0.0,0.0,0.0,0.0,0.0,0.0,0.0,0.0,0.0,0.0,0.0,0.0,0.0,0.0,0.0,0.0,0.0,0.0,0.0,0.0,0.0,0.0,0.0,0.0,0.0,0.0,0.0,0.0,0.0,0.0,0.0,0.0,0.0,0.0,0.0,0.0,0.0,0.0,0.0,0.0,0.0,0.0,0.0,0.0,0.0,0.0,0.0,0.0,0.0,0.0,0.0,0.0,0.0,0.0,0.0,0.0,0.0,0.0,0.0,0.0,0.0,0.0,0.0,0.0,0.0,0.0,0.0,0.0,0.0,0.0,0.0,0.0,0.0,0.0,0.0,0.0,0.0,0.0,0.0,0.0,0.0,0.0,0.0,0.0,0.0,0.0,0.0,0.0,0.0,0.0,0.0,0.0,0.0,-0.8998,-0.9467,-0.9985,0.0,-1.0717,-1.0717,-1.0717,-1.0175,-0.9557,-0.8906,0.0,0.0,0.0,0.0,0.0,0.0,0.0,0.0,0.0,0.0,0.0,0.0,0.0,0.0,0.0,0.0,0.0,0.0,0.0,0.0,0.0,0.0,0.0,0.0,0.0,0.0,0.0,0.0,0.0,0.0,0.0,0.0,0.0,0.0,0.0,0.0,0.0,0.0,0.0,0.0,0.0,0.0,0.0,0.0,0.0,0.0,0.0,0.0,0.0,0.0,0.0,0.0,0.0,0.0,0.0,0.0,0.0,0.0,0.0,0.0,0.0,0.0,0.0,0.0,0.0,0.0,0.0,0.0,0.0,0.0,0.0,0.0,0.0,0.0,0.0,0.0,0.0,0.0,0.0,0.0,0.0,0.0,0.0,0.0,0.0,0.0,0.0,0.0,0.0,0.0,0.0,0.0,0.0,0.0,0.0,0.0,0.0,0.0,0.0,0.0,0.0,0.0,-1.0055,-1.035,-1.0555,-1.0704,-1.0724,-1.0724,-1.0724,-0.9903,-0.9198,0.0,0.0,0.0,0.0,0.0,0.0,0.0,0.0,0.0,0.0,0.0,0.0,0.0,0.0,0.0,0.0,0.0,0.0,0.0,0.0,0.0,0.0,0.0,0.0,0.0,0.0,0.0,0.0,0.0,0.0,0.0,0.0,0.0,0.0,0.0,0.0,0.0,0.0,0.0,0.0,0.0,0.0,0.0,0.0,0.0,0.0,0.0,0.0,0.0,0.0,0.0,0.0,0.0,0.0,0.0,0.0,0.0,0.0,0.0,0.0,0.0,0.0,0.0,0.0,0.0,0.0,0.0,0.0,0.0,0.0,0.0,0.0,0.0,0.0,0.0,0.0,0.0,0.0,0.0,0.0,0.0,0.0,0.0,0.0,0.0,0.0,0.0,0.0,0.0,0.0,0.0,0.0,0.0,0.0,0.0,0.0,0.0,0.0,0.0,0.0,0.0,0.0,0.0,0.0,-0.9964,-1.0711,-1.0867,-1.088,-1.088,-1.088,-1.0249,-0.9571,-0.8913,0.0,0.0,0.0,0.0,0.0,0.0,0.0,0.0,0.0,0.0,0.0,0.0,0.0,0.0,0.0,0.0,0.0,0.0,0.0,0.0,0.0,0.0,0.0,0.0,0.0,0.0,0.0,0.0,0.0,0.0,0.0,0.0,0.0,0.0,0.0,0.0,0.0,0.0,0.0,0.0,0.0,0.0,0.0,0.0,0.0,0.0,0.0,0.0,0.0,0.0,0.0,0.0,0.0,0.0,0.0,0.0,0.0,0.0,0.0,0.0,0.0,0.0,0.0,0.0,0.0,0.0,0.0,0.0,0.0,0.0,0.0,0.0,0.0,0.0,0.0,0.0,0.0,0.0,0.0,0.0,0.0,0.0,0.0,0.0,0.0,0.0,0.0,0.0,0.0,0.0,0.0,0.0,0.0,0.0,0.0,0.0,0.0,0.0,0.0,0.0,0.0,0.0,-0.8893,-1.0012,-1.0867,-1.1016,-1.1036,-1.1009,-1.0955,-1.0507,-0.9856,-0.8994,0.0,0.0,0.0,0.0,0.0,0.0,0.0,0.0,0.0,0.0,0.0,0.0,0.0,0.0,0.0,0.0,0.0,0.0,0.0,0.0,0.0,0.0,0.0,0.0,0.0,0.0,0.0,0.0,0.0,0.0,0.0,0.0,0.0,0.0,0.0,0.0,0.0,0.0,0.0,0.0,0.0,0.0,0.0,0.0,0.0,0.0,0.0,0.0,0.0,0.0,0.0,0.0,0.0,0.0,0.0,0.0,0.0,0.0,0.0,0.0,0.0,0.0,0.0,0.0,0.0,0.0,0.0,0.0,0.0,0.0,0.0,0.0,0.0,0.0,0.0,0.0,0.0,0.0,0.0,0.0,0.0,0.0,0.0,0.0,0.0,0.0,0.0,0.0,0.0,0.0,0.0,0.0,0.0,0.0,0.0,0.0,0.0,0.0,0.0,0.0,0.0,0.0,-0.9062,-1.0222,-1.1023,-1.1165,-1.1185,-1.1124,-1.0982,-1.069,-1.008,-0.9069,0.0,0.0,0.0,0.0,0.0,0.0,0.0,0.0,0.0,0.0,0.0,0.0,0.0,0.0,0.0,0.0,0.0,0.0,0.0,0.0,0.0,0.0,0.0,0.0,0.0,0.0,0.0,0.0,0.0,0.0,0.0,0.0,0.0,0.0,0.0,0.0,0.0,0.0,0.0,0.0,0.0,0.0,0.0,0.0,0.0,0.0,0.0,0.0,0.0,0.0,0.0,0.0,0.0,0.0,0.0,0.0,0.0,0.0,0.0,0.0,-0.7278,0.0,0.0,0.0,0.0,0.0,0.0,0.0,0.0,0.0,0.0,0.0,0.0,0.0,0.0,0.0,0.0,0.0,0.0,0.0,0.0,0.0,0.0,0.0,0.0,0.0,0.0,0.0,0.0,0.0,0.0,0.0,0.0,0.0,0.0,0.0,0.0,0.0,0.0,0.0,0.0,0.0,-0.9218,-1.0378,-1.1172,-1.1328,-1.1341,-1.128,-1.1131,-1.0839,-1.0324,-0.9517,0.0,0.0,0.0,0.0,0.0,0.0,0.0,0.0,0.0,0.0,0.0,0.0,0.0,0.0,0.0,0.0,0.0,0.0,0.0,0.0,0.0,0.0,0.0,0.0,0.0,0.0,0.0,0.0,0.0,0.0,0.0,0.0,0.0,0.0,0.0,0.0,0.0,0.0,0.0,0.0,0.0,0.0,0.0,0.0,0.0,0.0,0.0,0.0,0.0,0.0,0.0,0.0,0.0,0.0,0.0,0.0,0.0,0.0,0.0,0.0,0.0,-0.7787,0.0,0.0,0.0,0.0,0.0,0.0,0.0,0.0,0.0,0.0,0.0,0.0,0.0,0.0,0.0,0.0,0.0,0.0,0.0,0.0,0.0,0.0,0.0,0.0,0.0,0.0,0.0,0.0,0.0,0.0,0.0,0.0,0.0,0.0,0.0,0.0,0.0,0.0,0.0,0.0,-0.9374,-1.0466,-1.1246,-1.1477,-1.1497,-1.1436,-1.1287,-1.1063,-1.0649,-0.9978,-0.9293,0.0,0.0,0.0,0.0,0.0,0.0,0.0,0.0,0.0,0.0,0.0,0.0,0.0,0.0,0.0,0.0,0.0,0.0,0.0,0.0,0.0,0.0,0.0,0.0,0.0,0.0,0.0,0.0,0.0,0.0,0.0,0.0,0.0,0.0,0.0,0.0,0.0,0.0,0.0,0.0,0.0,0.0,0.0,0.0,0.0,0.0,0.0,0.0,0.0,0.0,0.0,0.0,0.0,-0.9076,-0.9178,-0.9334,-0.9449,-0.9585,-0.9707,-0.9205,-0.894,-0.8838,0.0,0.0,0.0,0.0,0.0,0.0,0.0,0.0,0.0,0.0,0.0,0.0,0.0,0.0,0.0,0.0,0.0,0.0,0.0,0.0,0.0,0.0,0.0,0.0,0.0,-1.1427,-1.062,0.0,0.0,0.0,0.0,0.0,0.0,0.0,0.0,0.0,0.0,0.0,0.0,-0.9612,-1.0588,-1.1307,-1.1592,-1.1619,-1.1558,-1.1402,-1.1274,-1.0962,-1.0392,-0.9842,-0.9171,0.0,0.0,0.0,0.0,0.0,0.0,0.0,0.0,0.0,0.0,0.0,0.0,0.0,0.0,0.0,0.0,0.0,0.0,0.0,0.0,0.0,0.0,0.0,0.0,0.0,0.0,0.0,0.0,0.0,0.0,0.0,0.0,-0.6057,-0.6525,0.0,0.0,0.0,0.0,0.0,0.0,0.0,0.0,0.0,0.0,0.0,0.0,0.0,0.0,-0.9205,-0.9747,-1.01,-1.0263,-1.0527,-1.0731,-1.0867,-1.0887,-1.0982,-1.1124,-1.1043,0.0,-0.9476,-0.9286,0.0,0.0,0.0,0.0,0.0,0.0,0.0,0.0,0.0,0.0,0.0,0.0,0.0,0.0,0.0,0.0,0.0,0.0,0.0,0.0,0.0,0.0,-1.0406,-1.0482,-1.0587,-1.0447,0.0,-0.996,-0.9821,-0.9145,0.0,0.0,0.0,0.0,0.0,0.0,0.0,0.0,-1.0073,-1.0873,-1.143,-1.1599,-1.1619,-1.1558,-1.1402,-1.1369,-1.1165,-1.069,-1.0344,-0.993,-0.9422,-0.8601,0.0,0.0,0.0,0.0,0.0,0.0,0.0,0.0,0.0,0.0,0.0,0.0,0.0,0.0,0.0,0.0,0.0,0.0,0.0,0.0,0.0,0.0,0.0,0.0,0.0,0.0,0.0,0.0,0.0,-0.6261,-0.6858,-0.7054,-0.7163,-0.7156,0.0,0.0,0.0,0.0,0.0,0.0,0.0,0.0,0.0,-0.9347,-0.9713,-1.0059,-1.0378,-1.0731,-1.0975,-1.1131,-1.1341,-1.1477,-1.1538,-1.1626,-1.1748,-1.1898,-1.1898,-1.1552,-1.0941,-1.0371,-0.9734,-0.9096,0.0,0.0,0.0,0.0,-0.8811,-0.8982,-0.9909,-1.0295,0.0,0.0,0.0,0.0,0.0,0.0,0.0,0.0,0.0,0.0,0.0,0.0,0.0,-1.0731,-1.0826,-1.0833,-1.0704,-1.0573,-1.0201,0.0,-0.88,-0.8269,-0.7448,0.0,0.0,0.0,0.0,0.0,-1.0426,-1.1111,-1.1572,-1.1721,-1.1735,-1.1681,-1.1531,-1.1443,-1.1267,-1.0989,-1.069,-1.0365,-0.9998,-0.9367,-0.8662,0.0,0.0,0.0,0.0,0.0,0.0,0.0,0.0,0.0,0.0,0.0,0.0,0.0,0.0,0.0,0.0,0.0,0.0,0.0,0.0,0.0,0.0,0.0,0.0,0.0,0.0,0.0,0.0,-0.7021,-0.7556,-0.7597,-0.7896,-0.797,0.0,0.0,0.0,0.0,0.0,0.0,-0.9089,-0.9503,-0.993,-1.0378,-1.0717,-1.1056,-1.1389,-1.1579,-1.1755,-1.1904,-1.2013,-1.2081,-1.2121,-1.2237,-1.2352,-1.2461,-1.2461,-1.2372,-1.2169,-1.1341,-1.0609,-0.9992,-0.9842,-0.9625,-0.9442,-0.9815,-0.9903,-0.9937,-1.0649,-1.0819,-1.0795,-1.1209,0.0,-1.1065,-1.1214,0.0,0.0,0.0,0.0,-0.9856,-1.0419,-1.0697,-1.0921,-1.1253,-1.1362,-1.1382,-1.1341,-1.1246,-1.0819,0.0,-0.9605,-0.9435,-0.8357,0.0,0.0,0.0,0.0,-1.0093,-1.0799,-1.1348,-1.1728,-1.187,-1.1857,-1.1789,-1.1681,-1.1538,-1.1382,-1.1233,-1.0975,-1.0717,-1.046,-1.0019,-0.9415,-0.8628,0.0,0.0,0.0,0.0,0.0,0.0,0.0,0.0,0.0,0.0,0.0,0.0,0.0,0.0,0.0,0.0,0.0,0.0,0.0,0.0,0.0,0.0,0.0,0.0,0.0,0.0,0.0,0.0,0.0,-0.8208,-0.8615,0.0,0.0,0.0,0.0,-0.8859,-0.915,-0.9585,-1.0168,-1.0487,-1.086,-1.1307,-1.1755,-1.1993,-1.2013,-1.2305,-1.2522,-1.2671,-1.2678,-1.2759,-1.2901,-1.2915,-1.2922,-1.2929,-1.2929,-1.284,-1.2651,-1.2026,-1.1504,-1.107,-1.0928,-1.0772,-1.0649,-1.0819,-1.0962,-1.1104,-1.1294,-1.1355,-1.1341,-1.1461,-1.1063,-1.0575,-1.0534,-1.0218,0.0,0.0,-1.0527,-1.0758,-1.1219,-1.1545,-1.1769,-1.1789,-1.1911,-1.1979,-1.183,-1.1789,-1.1558,0.0,-1.0426,-1.0134,-0.9774,0.0,-0.9632,-0.991,-1.0236,-1.067,-1.128,-1.1626,-1.1877,-1.2033,-1.1918,-1.183,-1.1823,-1.1687,-1.1545,-1.1389,-1.1226,-1.107,-1.0921,-1.0487,-1.0025,-0.9551,-0.8682,0.0,0.0,0.0,0.0,0.0,0.0,0.0,0.0,0.0,0.0,0.0,0.0,0.0,0.0,0.0,0.0,0.0,0.0,0.0,0.0,0.0,0.0,0.0,0.0,0.0,0.0,0.0,0.0,-0.8954,-0.9293,0.0,0.0,-0.9361,-0.9564,-0.991,-1.0222,-1.0609,-1.1118,-1.1423,-1.1742,-1.2094,-1.2359,-1.2542,-1.2637,-1.2834,-1.2963,-1.3017,-1.3214,-1.3336,-1.3397,-1.3485,-1.3526,-1.3526,-1.3526,-1.3444,-1.3295,-1.3078,-1.2556,-1.1884,-1.183,-1.1721,-1.1606,-1.1755,-1.1843,-1.1911,-1.2054,-1.2047,-1.1938,-1.1735,-1.1463,-1.1219,-1.1219,-1.1104,-1.1009,-1.1172,-1.1321,-1.147,-1.1633,-1.1823,-1.1979,-1.1979,-1.202,-1.2047,-1.1993,-1.1979,-1.1898,-1.1633,-1.1267,-1.0867,-1.0466,-1.0439,-1.0473,-1.048,-1.0819,-1.1253,-1.1755,-1.1999,-1.2149,-1.2203,-1.2162,-1.2047,-1.185,-1.1782,-1.1606,-1.1267,-1.1192,-1.1056,-1.0812,-1.0649,-1.0304,-0.9754,-0.934,-0.8547,0.0,0.0,0.0,0.0,0.0,0.0,0.0,0.0,0.0,0.0,0.0,0.0,0.0,0.0,0.0,0.0,0.0,0.0,0.0,0.0,0.0,0.0,0.0,0.0,0.0,0.0,-0.9306,-0.9503,-0.9971,-1.0215,-1.0059,-1.0229,-1.0493,-1.0846,-1.1151,-1.1497,-1.1898,-1.2155,-1.242,-1.2718,-1.2874,-1.303,-1.3186,-1.3329,-1.3397,-1.3403,-1.36,-1.3702,-1.3702,-1.3797,-1.3838,-1.3838,-1.3838,-1.379,-1.3702,-1.3702,-1.3349,-1.28,-1.2644,-1.2494,-1.2379,-1.2481,-1.2515,-1.2528,-1.2623,-1.2562,-1.2406,-1.2203,-1.2033,-1.1918,-1.1918,-1.1918,-1.1925,-1.1979,-1.206,-1.2149,-1.2196,-1.2291,-1.2366,-1.2366,-1.2366,-1.2366,-1.2366,-1.2366,-1.2352,-1.2298,-1.1925,-1.1504,-1.1158,-1.1179,-1.1212,-1.1111,-1.1348,-1.1687,-1.2088,-1.223,-1.2311,-1.2359,-1.2318,-1.2189,-1.1932,-1.1816,-1.1613,-1.126,-1.1145,-1.0982,-1.0731,-1.067,-1.0405,-0.991,-0.9557,-0.8872,-0.7821,0.0,0.0,0.0,0.0,0.0,0.0,0.0,0.0,0.0,0.0,0.0,0.0,0.0,0.0,0.0,0.0,0.0,0.0,0.0,0.0,0.0,0.0,0.0,-0.8506,-0.9286,-0.9849,-0.9869,-1.0643,-1.1009,-1.0588,-1.107,-1.1477,-1.164,-1.1925,-1.2216,-1.2515,-1.2678,-1.2888,-1.3186,-1.3336,-1.3485,-1.3634,-1.3777,-1.3844,-1.3844,-1.3851,-1.3858,-1.3858,-1.3858,-1.3858,-1.3858,-1.3858,-1.3858,-1.3858,-1.3858,-1.3851,-1.3804,-1.3363,-1.3112,-1.299,-1.299,-1.299,-1.299,-1.2976,-1.2874,-1.2752,-1.2739,-1.2637,-1.2515,-1.2515,-1.2515,-1.2549,-1.2698,-1.2739,-1.2773,-1.2922,-1.2963,-1.2963,-1.2963,-1.2963,-1.2963,-1.2963,-1.2963,-1.2915,-1.2766,-1.2386,-1.204,-1.187,-1.1843,-1.1837,-1.1843,-1.1843,0.0,-1.2257,-1.2298,-1.2352,-1.2488,-1.2379,-1.2237,-1.2081,-1.1796,-1.1558,-1.1402,-1.1111,-1.088,-1.0724,-1.0575,-1.0358,-1.0066,-0.9334,-0.8743,-0.8303,0.0,0.0,0.0,0.0,0.0,0.0,0.0,0.0,0.0,0.0,0.0,0.0,0.0,0.0,0.0,0.0,0.0,0.0,0.0,0.0,0.0,0.0,-0.9293,-0.9435,-0.9944,-1.0473,-1.0907,-1.1274,-1.1572,-1.1775,-1.1843,-1.2026,-1.24,-1.2603,-1.284,-1.3139,-1.3295,-1.3464,-1.3648,-1.3695,-1.3743,-1.3783,-1.3933,-1.4007,-1.4007,-1.4122,-1.4177,-1.4177,-1.4177,-1.4177,-1.4177,-1.4177,-1.4177,-1.4177,-1.4177,-1.4109,-1.3987,-1.3749,-1.3634,-1.36,-1.36,-1.36,-1.3566,-1.3356,-1.3254,-1.318,-1.2969,-1.2868,-1.2834,-1.2834,-1.2834,-1.2847,-1.2888,-1.2895,-1.2908,-1.2949,-1.2963,-1.2963,-1.2963,-1.2963,-1.2963,-1.2963,-1.2963,-1.2949,-1.2908,-1.28,-1.2596,-1.223,-1.2074,-1.2033,-1.2149,-1.2162,0.0,-1.242,-1.244,-1.2461,-1.2501,-1.2467,-1.2386,-1.2237,-1.1945,-1.1667,-1.1409,-1.1111,-1.088,-1.0724,-1.0677,-1.0568,-1.0371,-0.9747,-0.9313,0.0,0.0,0.0,0.0,0.0,0.0,0.0,0.0,0.0,0.0,0.0,0.0,0.0,0.0,0.0,0.0,0.0,0.0,0.0,0.0,0.0,0.0,-0.9557,-1.012,-1.0521,-1.0744,-1.107,-1.1606,-1.1857,-1.2115,-1.244,-1.2508,-1.2664,-1.2983,-1.3152,-1.3342,-1.3573,-1.3668,-1.3783,-1.3933,-1.3939,-1.3966,-1.4034,-1.4122,-1.4163,-1.417,-1.4258,-1.4299,-1.4299,-1.4299,-1.4299,0.0,-1.4299,-1.4299,-1.4299,-1.4299,-1.4245,0.0,0.0,0.0,0.0,0.0,-1.3838,-1.3817,-1.3648,-1.3587,-1.3559,-1.3383,-1.3329,-1.3315,-1.3261,-1.3241,-1.3227,-1.3166,-1.3146,-1.3146,-1.3146,-1.3146,-1.3146,-1.3146,-1.3146,-1.3146,-1.3146,-1.3146,-1.3125,-1.3064,-1.3051,0.0,-1.263,-1.2494,-1.2467,-1.2556,-1.2569,-1.2603,-1.2684,-1.2637,-1.2623,-1.2684,-1.2637,-1.2535,-1.2393,-1.2101,0.0,0.0,0.0,-1.0853,-1.0636,-1.0568,0.0,0.0,0.0,0.0,0.0,0.0,0.0,0.0,-0.892,-0.9173,0.0,0.0,0.0,0.0,0.0,0.0,0.0,0.0,0.0,0.0,0.0,0.0,0.0,0.0,0.0,0.0,-1.0378,-1.0853,-1.1592,-1.1592,-1.1667,-1.2067,-1.2372,-1.2623,-1.2793,-1.3044,-1.3268,-1.3437,-1.3593,-1.3736,-1.3858,0.0,0.0,0.0,0.0,-1.4163,-1.4299,-1.4299,-1.4299,-1.4299,-1.4299,-1.4299,-1.4299,-1.4299,-1.4299,-1.4299,-1.4299,-1.4299,-1.4299,-1.4299,-1.4299,-1.4285,-1.415,-1.4014,-1.3892,-1.3892,-1.3892,-1.3892,-1.3871,0.0,0.0,-1.3844,-1.3838,-1.3817,-1.3688,-1.3654,-1.3627,-1.3492,-1.3451,-1.3451,-1.3451,-1.3451,-1.3451,-1.3451,-1.3451,-1.3444,-1.3431,-1.3424,-1.3383,-1.3227,-1.32,-1.3159,-1.303,-1.2983,-1.2963,-1.2963,-1.2963,-1.2963,-1.2963,-1.284,-1.2807,-1.2949,0.0,0.0,-1.2562,-1.2271,-1.1972,-1.1714,-1.1274,-1.09,-1.0629,-1.05,-1.0487,-1.0616,-1.0616,-1.0751,-1.1023,-1.1023,-1.1023,-1.0995,-0.989,-0.9666,0.0,0.0,0.0,0.0,0.0,0.0,0.0,0.0,0.0,0.0,0.0,0.0,0.0,0.0,0.0,-1.0317,-1.086,-1.1436,-1.2074,-1.2099,-1.2046,-1.2132,-1.2541,-1.299,-1.3281,-1.3336,-1.3464,-1.3736,-1.3899,-1.4,-1.4027,-1.4143,0.0,-1.4251,-1.4258,-1.4272,-1.4299,-1.4299,-1.4299,-1.4299,0.0,0.0,-1.4299,-1.4299,-1.4299,-1.4299,-1.4299,-1.4299,-1.4299,-1.4299,-1.4299,-1.4299,-1.4265,-1.4238,-1.4211,-1.4211,-1.4211,-1.4197,-1.4068,-1.4027,-1.4007,-1.3878,-1.3838,-1.3838,-1.381,-1.3797,0.0,-1.3763,-1.3756,-1.3756,-1.3756,-1.3756,-1.3756,-1.3756,-1.3756,-1.3722,-1.3607,-1.3587,-1.3539,-1.339,-1.3356,-1.3349,-1.3322,-1.3119,-1.2963,-1.2963,-1.2963,-1.2963,-1.2963,-1.2935,-1.2929,-1.2956,-1.2935,-1.2901,-1.2874,-1.2488,-1.2223,-1.2162,-1.1735,-1.1463,-1.1402,-1.1375,-1.1375,-1.1402,-1.1402,-1.143,-1.1491,-1.1491,-1.1491,-1.1477,-1.0995,-1.0839,0.0,0.0,0.0,0.0,0.0,0.0,0.0,0.0,0.0,0.0,0.0,-0.7743,0.0,0.0,-1.0012,-1.1054,-1.1469,-1.1864,-1.2313,-1.2581,-1.2722,-1.2722,-1.093,-1.0623,-1.3224,-1.3539,-1.3666,-1.38,-1.4122,-1.4211,-1.4211,-1.4285,-1.4333,-1.4353,-1.4353,-1.438,-1.4434,-1.4434,-1.4462,-1.4523,-1.4523,-1.4523,-1.4523,-1.4523,-1.4523,-1.4523,-1.4523,-1.4523,-1.4516,-1.4434,-1.4367,-1.4299,-1.4299,-1.4299,-1.4299,-1.4299,-1.4299,-1.4292,-1.4211,-1.4183,-1.4177,-1.4095,-1.4068,-1.4055,-1.398,-1.3953,-1.3939,-1.3865,-1.3838,-1.3838,-1.3838,-1.3838,-1.3838,-1.3838,-1.3838,-1.3824,-1.3749,-1.3736,-1.3709,-1.3634,-1.362,-1.362,-1.362,-1.3498,-1.3349,-1.3207,-1.318,-1.318,-1.318,-1.3112,-1.3098,-1.3173,-1.3112,-1.3064,-1.3064,-1.2725,-1.2447,-1.2298,-1.2081,-1.1925,-1.1843,-1.1843,-1.1877,-1.1952,-1.1952,-1.1993,-1.206,-1.206,-1.206,-1.206,-1.1986,-1.1789,0.0,0.0,0.0,0.0,0.0,0.0,0.0,0.0,-0.3834,-0.5958,-0.7696,-0.7851,-0.4732,-0.6095,-0.8308,-1.0363,-1.153,-1.238,-1.2549,-1.28,-1.2972,-1.3197,-0.9216,-0.7612,-1.0486,-1.1726,-1.2553,-1.2735,-1.3742,-1.436,-1.436,-1.3471,-1.2955,-1.2979,-1.2824,-1.3232,-1.3681,-1.4417,-1.4652,-1.474,-1.474,-1.474,-1.474,-1.474,-1.474,-1.474,-1.474,-1.474,-1.4733,-1.4604,-1.4489,-1.4387,-1.4387,-1.4387,-1.438,-1.4319,-1.4299,-1.4299,-1.4299,-1.4299,-1.4299,-1.4299,-1.4299,-1.4278,-1.4156,-1.4116,-1.4089,-1.3966,-1.3933,-1.3933,-1.3933,-1.3933,-1.3933,-1.3933,-1.3933,-1.3919,-1.3892,-1.3885,-1.3878,-1.3844,-1.3838,-1.3838,-1.3838,-1.3838,-1.3749,-1.3485,-1.3444,-1.3444,-1.3444,-1.3336,-1.3315,-1.3471,-1.3376,-1.3288,-1.3261,-1.3044,-1.2779,-1.2481,-1.2461,-1.2393,-1.2244,-1.2237,-1.2298,-1.242,-1.242,-1.2474,-1.2589,-1.2589,-1.2589,-1.2596,-1.2718,-1.2501,0.0,0.0,0.0,0.0,-0.0102,-0.0421,0.0,0.0,-0.3047,-0.1277,-0.5615,-0.8718,-0.5408,-0.2742,-0.2098,-0.5498,-0.9719,-1.2602,-1.2853,-1.2791,-1.2752,-1.335,-0.9431,-0.5314,-0.175,-0.5093,-0.7593,-0.7844,-1.1833,-1.4222,-1.4222,-1.0301,-0.7975,-0.7978,-0.7867,-0.8636,-1.0283,-1.3266,-1.476,-1.474,-1.474,-1.474,-1.474,-1.474,-1.474,-1.474,-1.474,-1.474,-1.474,-1.4719,-1.4706,-1.4692,-1.4692,-1.4692,-1.4658,-1.4394,-1.4299,-1.4299,-1.4299,-1.4299,-1.4299,-1.4299,-1.4299,-1.4299,-1.4278,-1.4272,-1.4272,-1.4251,-1.4251,-1.4251,-1.4251,-1.4251,-1.4251,-1.4251,-1.4251,-1.4211,-1.4075,-1.4048,-1.4007,-1.3865,-1.3838,-1.3838,-1.3838,-1.3838,-1.3783,-1.3627,-1.36,-1.36,-1.36,-1.3587,-1.3634,-1.3777,-1.3777,-1.3715,-1.3587,-1.3546,-1.3397,-1.3091,-1.3071,-1.301,-1.2868,-1.2861,-1.2868,-1.2888,-1.2888,-1.2895,-1.2908,-1.2908,-1.2908,-1.2908,-1.2929,-1.2827,0.0,0.0,0.0,0.0,0.0,0.0,0.0,-0.0759,-0.1167,-0.0271,-0.2244,-0.3614,-0.236,-0.091,-0.0468,0.0,-0.3915,-0.7143,-1.252,-1.3036,-1.3075,-1.3294,-0.7104,-0.2081,-0.0176,-0.1773,-0.2849,-0.3037,-0.4857,-0.8501,-1.4009,-1.2471,-0.864,-0.312,-0.295,-0.3331,-0.4084,-1.1382,-1.5004,-1.5038,-1.5038,-1.5025,-1.4997,-1.4997,-1.4997,-1.4997,-1.4997,-1.495,-1.4875,-1.4875,-1.4821,-1.474,-1.474,-1.474,-1.4713,-1.4502,-1.4421,-1.4414,-1.4326,-1.4299,-1.4299,-1.4299,-1.4299,-1.4299,-1.4299,-1.4299,-1.4299,-1.4299,-1.4299,-1.4299,-1.4299,-1.4299,-1.4299,-1.4299,-1.4299,-1.4285,-1.4217,-1.4204,-1.4183,-1.4122,-1.4109,-1.4109,-1.4109,-1.4109,-1.4061,-1.3905,-1.381,-1.3749,-1.3749,-1.3749,-1.3777,-1.3831,-1.3838,-1.3817,-1.3756,-1.3749,-1.3695,-1.3573,-1.3559,-1.3532,-1.3478,-1.3471,-1.3471,-1.3471,-1.3471,-1.3471,-1.3471,-1.3471,-1.3471,-1.3471,-1.3471,-1.3437,0.0,0.0,0.0,0.0,0.0,0.0,0.0,0.0,0.0,0.0,0.0,0.0,0.0,0.0,0.0,0.0,0.0,-0.2211,-0.8718,-1.1825,-1.2509,-0.9991,-0.4011,0.0,0.0,0.0,0.0,0.0,0.0,-0.3098,-0.9913,-1.0383,-0.726,-0.0186,0.0,0.0,0.0,-0.8712,-1.3163,-1.3049,-1.4609,-1.518,-1.5147,-1.5282,-1.5255,-1.5255,-1.5208,-1.5126,-1.5031,-1.5031,-1.4964,-1.4862,-1.4862,-1.4862,-1.4841,-1.4692,-1.4611,-1.4563,-1.4455,-1.4421,-1.4414,-1.4373,-1.436,-1.4353,-1.4312,-1.4299,-1.4299,-1.4299,-1.4299,-1.4299,-1.4299,-1.4299,-1.4299,-1.4299,-1.4299,-1.4299,-1.4299,-1.4299,-1.4299,-1.4299,-1.4299,-1.4299,-1.4299,-1.4299,-1.4265,-1.415,-1.4041,-1.3953,-1.3912,-1.3939,-1.3966,-1.3966,-1.3966,-1.3966,-1.3966,-1.3966,-1.3946,-1.3905,-1.3905,-1.3885,-1.3844,-1.3838,-1.3838,-1.3838,-1.3838,-1.3838,-1.3838,-1.3838,-1.3838,-1.3838,-1.3838,-1.3838,0.0,0.0,0.0,0.0,0.0,0.0,0.0,0.0,0.0,0.0,0.0,0.0,0.0,0.0,0.0,0.0,0.0,-0.0172,-0.0352,-0.7899,-1.0175,-0.1411,-0.0175,0.0,0.0,0.0,0.0,0.0,0.0,-0.0183,-0.037,-0.0374,-0.0376,-0.0,0.0,0.0,0.0,-0.5209,-0.7755,-0.7813,-1.2753,-1.5146,-1.5139,-1.5149,-1.5254,-1.5247,-1.5262,-1.5181,-1.5174,-1.5174,-1.5174,-1.5167,-1.5167,-1.5167,-1.5153,-1.5011,-1.4862,-1.4733,-1.4726,-1.4726,-1.4699,-1.4557,-1.4502,-1.4482,-1.434,-1.4299,-1.4299,-1.4299,-1.4299,-1.4299,-1.4299,-1.4299,-1.4299,-1.4299,-1.4299,-1.4299,-1.4299,-1.4299,-1.4299,-1.4299,-1.4299,-1.4299,-1.4299,-1.4299,-1.4299,-1.4292,-1.4292,-1.4231,-1.4082,-1.4197,-1.4285,-1.4285,-1.4285,-1.4285,-1.4285,-1.4285,-1.4224,-1.4075,-1.4061,-1.3994,-1.3844,-1.3838,-1.3838,-1.3838,-1.3838,-1.3838,-1.3838,-1.3838,-1.3838,-1.3838,-1.3838,-1.3838,0.0,0.0,0.0,0.0,0.0,0.0,0.0,0.0,0.0,0.0,0.0,0.0,0.0,0.0,0.0,0.0,0.0,0.0,0.0,-0.2655,-0.3338,-0.035,0.0,0.0,0.0,0.0,0.0,0.0,0.0,0.0,0.0,0.0,0.0,0.0,0.0,0.0,0.0,-0.1757,-0.2539,-0.2542,-0.7632,-1.0184,-1.0184,-1.014,-1.2073,-1.5415,-1.5355,-1.5506,-1.5486,-1.5486,-1.5425,-1.5337,-1.5337,-1.5269,-1.5174,-1.5126,-1.5079,-1.5004,-1.4808,-1.474,-1.4733,-1.4679,-1.4665,-1.4652,-1.4604,-1.4523,-1.4441,-1.4441,-1.4373,-1.4299,-1.4299,-1.4299,-1.4299,-1.4299,-1.4299,-1.4299,-1.4299,-1.4299,-1.4299,-1.4299,-1.4299,-1.4299,-1.4299,-1.4299,-1.4299,-1.4299,-1.4299,-1.4278,-1.4231,-1.4272,-1.4299,-1.4299,-1.4299,-1.4299,-1.4299,-1.4299,-1.4278,-1.4224,-1.4224,-1.4197,-1.415,-1.4143,-1.4143,-1.4143,-1.4143,-1.4143,-1.4143,-1.4143,-1.4143,-1.4143,-1.4143,-1.4143,0.0,0.0,0.0,0.0,0.0,0.0,0.0,0.0,0.0,0.0,0.0,0.0,0.0,0.0,0.0,0.0,0.0,0.0,0.0,0.0,0.0,0.0,0.0,0.0,0.0,0.0,0.0,0.0,0.0,0.0,0.0,0.0,0.0,0.0,0.0,0.0,0.0,0.0,0.0,-0.0,-0.3362,-0.4942,-0.4942,-0.4921,-0.6678,-1.0219,-1.3933,-1.5683,-1.5655,-1.5642,-1.5581,-1.5493,-1.5493,-1.5432,-1.5337,-1.5282,-1.5262,-1.5228,-1.4984,-1.4896,-1.4889,-1.4841,-1.4821,-1.4814,-1.4753,-1.4672,-1.459,-1.459,-1.4529,-1.4441,-1.4387,-1.4373,-1.4367,-1.4312,-1.4299,-1.4299,-1.4299,-1.4299,-1.4299,-1.4299,-1.4299,-1.4299,-1.4299,-1.4299,-1.4299,-1.4299,-1.4299,-1.4299,-1.4299,-1.4299,-1.4299,-1.4299,-1.4299,-1.4299,-1.4299,-1.4299,-1.4299,-1.4299,-1.4299,-1.4299,-1.4299,-1.4299,-1.4299,-1.4299,-1.4299,-1.4299,-1.4299,-1.4299,-1.4299,-1.4299,-1.4299,-1.4299,0.0,0.0,0.0,0.0,0.0,0.0,0.0,0.0,0.0,0.0,0.0,0.0,0.0,0.0,0.0,0.0,0.0,0.0,0.0,0.0,0.0,0.0,0.0,0.0,0.0,0.0,0.0,0.0,0.0,0.0,0.0,0.0,0.0,0.0,0.0,0.0,0.0,0.0,0.0,0.0,0.0,0.0,0.0,0.0,0.0,-0.0595,-1.1016,-1.5515,-1.5716,-1.5676,-1.5655,-1.5649,-1.5649,-1.5649,-1.5622,-1.5479,-1.5425,-1.5398,-1.5248,-1.5187,-1.516,-1.5025,-1.4984,-1.4957,-1.4808,-1.476,-1.4753,-1.4753,-1.4746,-1.4706,-1.4563,-1.4523,-1.4489,-1.4353,-1.4326,-1.4326,-1.4326,-1.4326,-1.4326,-1.4326,-1.4319,-1.4306,-1.4299,-1.4299,-1.4299,-1.4299,-1.4299,-1.4299,-1.4299,-1.4299,-1.4299,-1.4299,-1.4299,-1.4299,-1.4299,-1.4299,-1.4299,-1.4299,-1.4299,-1.4299,-1.4299,-1.4299,-1.4299,-1.4299,-1.4299,-1.4299,-1.4299,-1.4299,-1.4299,-1.4299,-1.4299,-1.4299,0.0,0.0,0.0,0.0,0.0,0.0,0.0,0.0,0.0,0.0,0.0,0.0,0.0,0.0,0.0,0.0,0.0,0.0,0.0,0.0,0.0,0.0,0.0,0.0,0.0,0.0,0.0,0.0,0.0,0.0,0.0,0.0,0.0,0.0,0.0,0.0,0.0,0.0,0.0,0.0,0.0,0.0,0.0,0.0,0.0,-0.0401,-0.6991,-1.2191,-1.6022,-1.5981,-1.59,-1.5798,-1.5798,-1.5737,-1.5635,-1.5594,-1.5581,-1.556,-1.5404,-1.5276,-1.5174,-1.514,-1.5126,-1.512,-1.5079,-1.4997,-1.4909,-1.4909,-1.4828,-1.4733,-1.4692,-1.4679,-1.4672,-1.4638,-1.4624,-1.4624,-1.4624,-1.4624,-1.4624,-1.4624,-1.4536,-1.4421,-1.4319,-1.4299,-1.4299,-1.4299,-1.4299,-1.4299,-1.4299,-1.4299,-1.4299,-1.4299,-1.4299,-1.4299,-1.4299,-1.4299,-1.4299,-1.4299,-1.4299,-1.4299,-1.4299,-1.4299,-1.4299,-1.4299,-1.4299,-1.4299,-1.4299,-1.4299,-1.4299,-1.4299,-1.4299,-1.4299,0.0,0.0,0.0,0.0,0.0,0.0,0.0,0.0,0.0,0.0,0.0,0.0,0.0,0.0,0.0,0.0,0.0,0.0,0.0,0.0,0.0,0.0,0.0,0.0,0.0,0.0,0.0,0.0,0.0,0.0,0.0,0.0,0.0,0.0,0.0,0.0,0.0,0.0,0.0,0.0,0.0,0.0,0.0,0.0,0.0,-0.0201,0.0,-1.1068,-1.6157,-1.6103,-1.6029,-1.5954,-1.5954,-1.5906,-1.5825,-1.5757,-1.5737,-1.571,-1.556,-1.5452,-1.5357,-1.5228,-1.5181,-1.5181,-1.5181,-1.5126,-1.5065,-1.5065,-1.4997,-1.4923,-1.4855,-1.4841,-1.4821,-1.4753,-1.474,-1.474,-1.474,-1.474,-1.474,-1.474,-1.4672,-1.4584,-1.4509,-1.4496,-1.4468,-1.4401,-1.4448,-1.4468,-1.4401,-1.434,-1.4299,-1.4299,-1.4299,-1.4299,-1.4299,-1.4299,-1.4299,-1.4299,-1.4299,-1.4299,-1.4299,-1.4299,-1.4299,-1.4299,-1.4299,-1.4333,-1.4394,-1.4394,-1.4428,-1.4496,-1.4496,-1.4496,0.0,0.0,0.0,0.0,0.0,0.0,0.0,0.0,0.0,0.0,0.0,0.0,0.0,0.0,0.0,0.0,0.0,0.0,0.0,0.0,0.0,0.0,0.0,0.0,0.0,0.0,0.0,0.0,0.0,0.0,0.0,0.0,0.0,0.0,0.0,0.0,0.0,0.0,0.0,0.0,0.0,0.0,0.0,0.0,0.0,-0.0202,0.0,0.0,-1.6191,-1.6117,-1.6083,-1.6083,-1.6083,-1.6083,-1.6069,-1.5934,-1.5886,-1.5866,-1.5716,-1.5669,-1.5622,-1.5337,-1.5242,-1.5242,-1.5221,-1.5215,-1.5208,-1.5187,-1.5181,-1.5153,-1.5031,-1.4997,-1.4964,-1.4828,-1.4801,-1.4801,-1.4801,-1.4801,-1.4794,-1.4774,-1.4767,-1.4767,-1.474,-1.474,-1.4692,-1.4563,-1.4658,-1.4692,-1.4557,-1.4414,-1.4333,-1.4353,-1.434,-1.434,-1.4353,-1.436,-1.436,-1.436,-1.436,-1.436,-1.436,-1.436,-1.436,-1.436,-1.436,-1.4421,-1.4543,-1.4543,-1.4611,-1.474,-1.474,-1.474,0.0,0.0,0.0,0.0,0.0,0.0,0.0,0.0,0.0,0.0,0.0,0.0,0.0,0.0,0.0,0.0,0.0,0.0,0.0,0.0,0.0,0.0,0.0,0.0,0.0,0.0,0.0,0.0,0.0,0.0,0.0,0.0,0.0,0.0,0.0,0.0,0.0,0.0,0.0,0.0,0.0,0.0,0.0,0.0,0.0,-0.0204,-0.5699,0.0,-1.6191,-1.6117,-1.6083,-1.6083,-1.6083,-1.6083,-1.6076,-1.6049,-1.6042,-1.6022,-1.5866,-1.5818,-1.5784,-1.5615,-1.556,-1.5533,-1.5411,-1.5371,-1.5343,-1.5215,-1.5181,-1.5174,-1.5153,-1.5147,-1.514,-1.5113,-1.5106,-1.5106,-1.5106,-1.5106,-1.5072,-1.495,-1.493,-1.4889,-1.476,-1.474,-1.4733,-1.4706,-1.4719,-1.4733,-1.4706,-1.457,-1.4523,-1.4652,-1.455,-1.4523,-1.4652,-1.4665,-1.4665,-1.4665,-1.4665,-1.4665,-1.4665,-1.4665,-1.4665,-1.4665,-1.4665,-1.4679,-1.4699,-1.4699,-1.4713,-1.474,-1.474,-1.474,0.0,0.0,0.0,0.0,0.0,0.0,0.0,0.0,0.0,0.0,0.0,0.0,0.0,0.0,0.0,0.0,0.0,0.0,0.0,0.0,0.0,0.0,0.0,0.0,0.0,0.0,0.0,0.0,0.0,0.0,0.0,0.0,0.0,0.0,0.0,0.0,0.0,0.0,0.0,0.0,0.0,0.0,0.0,0.0,0.0,-0.0206,-0.5957,0.0,-1.6112,-1.6232,-1.6151,-1.6083,-1.6083,-1.6083,-1.6083,-1.6083,-1.6083,-1.6069,-1.5995,-1.5974,-1.5961,-1.5893,-1.5764,-1.5628,-1.5554,-1.5527,-1.5513,-1.5438,-1.5418,-1.5404,-1.5323,-1.5303,-1.5282,-1.5201,-1.5181,-1.5181,-1.5181,-1.5181,-1.516,-1.5092,-1.5079,-1.5059,-1.4984,-1.497,-1.4943,-1.4869,-1.4923,-1.4943,-1.4869,-1.4794,-1.4746,-1.474,-1.4672,-1.4658,-1.4733,-1.474,-1.474,-1.474,-1.474,-1.474,-1.474,-1.474,-1.474,-1.474,-1.474,-1.478,-1.4862,-1.4862,-1.4896,-1.497,-1.497,-1.497,0.0,0.0,0.0,0.0,0.0,0.0,0.0,0.0,0.0,0.0,0.0,0.0,0.0,0.0,0.0,0.0,0.0,0.0,0.0,0.0,0.0,0.0,0.0,0.0,0.0,0.0,0.0,0.0,0.0,0.0,0.0,0.0,0.0,0.0,0.0,0.0,0.0,0.0,0.0,0.0,0.0,0.0,0.0,0.0,0.0,-0.0208,-0.4769,0.0,0.0,-1.6145,-1.6225,-1.6083,-1.6083,-1.6083,-1.6083,-1.6083,-1.6083,-1.6083,-1.6083,-1.6083,-1.6083,-1.6083,-1.5927,-1.573,-1.5696,-1.5683,-1.5676,-1.5649,-1.5642,-1.5608,-1.5493,-1.5459,-1.5432,-1.5309,-1.5282,-1.5282,-1.5282,-1.5282,-1.5282,-1.5282,-1.5255,-1.5228,-1.5228,-1.5201,-1.5147,-1.5031,-1.5113,-1.514,-1.5031,-1.5018,-1.497,-1.4848,-1.4808,-1.4801,-1.4835,-1.4835,-1.4835,-1.4835,-1.4835,-1.4835,-1.4835,-1.4835,-1.4835,-1.4835,-1.4835,-1.4896,-1.5018,-1.5052,-1.512,-1.5228,-1.5262,-1.5282,0.0,0.0,0.0,0.0,0.0,0.0,0.0,0.0,0.0,0.0,0.0,0.0,0.0,0.0,0.0,0.0,0.0,0.0,0.0,0.0,0.0,0.0,0.0,0.0,0.0,0.0,0.0,0.0,0.0,0.0,0.0,0.0,0.0,0.0,0.0,0.0,0.0,0.0,0.0,0.0,0.0,0.0,0.0,0.0,0.0,-0.0,-0.0629,0.0,0.0,-1.6172,-1.6045,-1.6083,-1.6083,-1.6083,-1.6083,-1.6083,-1.6083,-1.6083,-1.6083,-1.6083,-1.6083,-1.6083,-1.6062,-1.6015,-1.5872,-1.5832,-1.5805,-1.5676,-1.5642,-1.5635,-1.5622,-1.5615,-1.5615,-1.5601,-1.5594,-1.5594,-1.5594,-1.5594,-1.5594,-1.5594,-1.5486,-1.5391,-1.5391,-1.5276,-1.5174,-1.5167,-1.5174,-1.5174,-1.5167,-1.516,-1.516,-1.5147,-1.5025,-1.5004,-1.5133,-1.514,-1.514,-1.514,-1.514,-1.514,-1.514,-1.514,-1.514,-1.514,-1.514,-1.5147,-1.516,-1.5303,-1.5377,-1.5391,-1.5533,-1.5594,0.0,0.0,0.0,0.0,0.0,0.0,0.0,0.0,0.0,0.0,0.0,0.0,0.0,0.0,0.0,0.0,0.0,0.0,0.0,0.0,0.0,0.0,0.0,0.0,0.0,0.0,0.0,0.0,0.0,0.0,0.0,0.0,0.0,0.0,0.0,0.0,0.0,0.0,0.0,0.0,0.0,0.0,0.0,0.0,0.0,0.0,0.0,0.0,0.0,-1.3609,-1.6158,-1.611,-1.611,-1.6103,-1.6083,-1.6083,-1.6083,-1.6083,-1.6083,-1.6083,-1.6083,-1.6083,-1.6083,-1.6069,-1.6008,-1.5988,-1.5981,-1.592,-1.5906,-1.5886,-1.5791,-1.5703,-1.5642,-1.5642,-1.5642,-1.5642,-1.5642,-1.5642,-1.5642,-1.5642,-1.5588,-1.5547,-1.5547,-1.5499,-1.5425,-1.5337,-1.5316,-1.5289,-1.5194,-1.5181,-1.5181,-1.5181,-1.5133,-1.512,-1.5174,-1.5181,-1.5181,-1.5181,-1.5181,-1.5181,-1.5181,-1.5269,-1.5316,-1.5316,-1.5411,-1.5459,-1.5459,-1.552,-1.5547,-1.5547,-1.5608,-1.5642,0.0,0.0,0.0,0.0,0.0,0.0,0.0,0.0,0.0,0.0,0.0,0.0,0.0,0.0,0.0,0.0,0.0,0.0,0.0,0.0,0.0,0.0,0.0,0.0,0.0,0.0,0.0,0.0,0.0,0.0,0.0,0.0,0.0,0.0,0.0,0.0,0.0,0.0,0.0,0.0,0.0,0.0,0.0,0.0,0.0,0.0,0.0,0.0,0.0,-0.831,-1.2753,-1.4556,-1.5583,-1.6151,-1.6083,-1.6083,-1.6083,-1.6083,-1.6083,-1.6083,-1.6083,-1.6083,-1.6083,-1.6083,-1.6083,-1.6083,-1.6083,-1.6083,-1.6083,-1.6056,-1.5947,-1.5845,-1.5771,-1.5771,-1.5771,-1.5771,-1.5771,-1.5771,-1.5771,-1.5771,-1.573,-1.5703,-1.5703,-1.5669,-1.5601,-1.5493,-1.5479,-1.5438,-1.533,-1.5316,-1.5316,-1.5316,-1.5316,-1.5296,-1.5255,-1.5289,-1.5316,-1.5316,-1.5316,-1.5316,-1.5316,-1.5418,-1.5479,-1.5479,-1.5588,-1.5642,-1.5642,-1.5683,-1.5703,-1.5703,-1.575,-1.5771,0.0,0.0,0.0,0.0,0.0,0.0,0.0,0.0,0.0,0.0,0.0,0.0,0.0,0.0,0.0,0.0,0.0,0.0,0.0,0.0,0.0,0.0,0.0,0.0,0.0,0.0,0.0,0.0,0.0,0.0,0.0,0.0,0.0,0.0,0.0,0.0,0.0,0.0,0.0,0.0,0.0,0.0,0.0,0.0,0.0,0.0,0.0,0.0,0.0,-0.021,-0.4346,-1.1185,-1.4696,-1.6045,-1.6083,-1.6083,-1.6083,-1.6083,-1.6083,-1.6083,-1.6083,-1.6083,-1.6083,-1.6083,-1.6083,-1.6083,-1.6083,-1.6083,-1.6083,-1.6083,-1.6083,-1.6076,-1.6076,-1.6076,-1.6076,-1.6076,-1.6076,-1.6076,-1.6076,-1.6076,-1.5954,-1.5852,-1.5852,-1.5737,-1.5642,-1.5635,-1.5635,-1.5635,-1.5635,-1.5635,-1.5635,-1.5635,-1.5635,-1.5574,-1.5418,-1.5547,-1.5635,-1.5635,-1.5635,-1.5635,-1.5635,-1.5635,-1.5635,-1.5635,-1.5642,-1.5642,-1.5642,-1.5784,-1.5852,-1.5852,-1.6008,-1.6076,0.0,0.0,0.0,0.0,0.0,0.0,0.0,0.0,0.0,0.0,0.0,0.0,0.0,0.0,0.0,0.0,0.0,0.0,0.0,0.0,0.0,0.0,0.0,0.0,0.0,0.0,0.0,0.0,0.0,0.0,0.0,0.0,0.0,0.0,0.0,0.0,0.0,0.0,0.0,0.0,0.0,0.0,0.0,0.0,0.0,0.0,0.0,0.0,0.0,0.0,-0.3527,-0.9373,-1.4118,-1.6071,-1.6083,-1.6083,-1.6083,-1.6096,-1.6198,-1.6171,-1.6096,-1.6205,-1.6164,-1.6083,-1.6083,-1.6083,-1.6083,-1.6083,-1.6083,-1.6083,-1.6083,-1.6083,-1.6083,-1.6083,-1.6083,-1.6083,-1.6083,-1.6083,-1.6083,-1.6083,-1.6042,-1.6008,-1.6008,-1.5974,-1.5906,-1.5798,-1.5784,-1.575,-1.5649,-1.5642,-1.5642,-1.5642,-1.5723,-1.573,-1.5581,-1.5608,-1.5642,-1.5642,-1.5642,-1.5642,-1.5642,-1.5737,-1.5784,-1.5784,-1.5886,-1.594,-1.594,-1.5988,-1.6008,-1.6008,-1.6056,-1.6083,0.0,0.0,0.0,0.0,0.0,0.0,0.0,0.0,0.0,0.0,0.0,0.0,0.0,0.0,0.0,0.0,0.0,0.0,0.0,0.0,0.0,0.0,0.0,0.0,0.0,0.0,0.0,0.0,0.0,0.0,0.0,0.0,0.0,0.0,0.0,0.0,0.0,0.0,0.0,0.0,0.0,0.0,0.0,0.0,0.0,0.0,0.0,0.0,0.0,0.0,-0.3131,-0.861,-1.4053,-1.6212,-1.6178,-1.6225,-1.6246,-1.6259,-1.6354,-1.6327,-1.6252,-1.6293,-1.6205,-1.6083,-1.6083,-1.6083,-1.6083,-1.6083,-1.6083,-1.6083,-1.6083,-1.6083,-1.6083,-1.6083,-1.6083,-1.6083,-1.6083,-1.6083,-1.6083,-1.6083,-1.6083,-1.6083,-1.6083,-1.6083,-1.6049,-1.5954,-1.594,-1.5906,-1.5818,-1.5805,-1.5805,-1.5805,-1.5886,-1.5906,-1.5811,-1.5805,-1.5805,-1.5805,-1.5805,-1.5805,-1.5805,-1.5893,-1.594,-1.594,-1.6035,-1.6083,-1.6083,-1.6137,-1.6171,-1.6171,-1.6225,-1.6246,0.0,0.0,0.0,0.0,0.0,0.0,0.0,0.0,0.0,0.0,0.0,0.0,0.0,0.0,0.0,0.0,0.0,0.0,0.0,0.0,0.0,0.0,0.0,0.0,0.0,0.0,0.0,0.0,0.0,0.0,0.0,0.0,0.0,0.0,0.0,0.0,0.0,0.0,0.0,0.0,0.0,0.0,0.0,0.0,0.0,0.0,0.0,0.0,0.0,0.0,-0.3158,-0.8696,-1.4261,-1.6433,-1.6341,-1.6469,-1.6524,-1.6524,-1.653,-1.653,-1.6503,-1.6368,-1.6225,-1.6096,-1.6096,-1.609,-1.6083,-1.6083,-1.6083,-1.6083,-1.6083,-1.6083,-1.6083,-1.6083,-1.6083,-1.6083,-1.6083,-1.6083,-1.6083,-1.6083,-1.6083,-1.6083,-1.6083,-1.6083,-1.6083,-1.6083,-1.6083,-1.6083,-1.6083,-1.6083,-1.6083,-1.6083,-1.6083,-1.6083,-1.6083,-1.6083,-1.6083,-1.6083,-1.6083,-1.6083,-1.6083,-1.6083,-1.6083,-1.6083,-1.609,-1.6096,-1.6096,-1.6252,-1.6327,-1.6327,-1.6463,-1.6524,0.0,0.0,0.0,0.0,0.0,0.0,0.0,0.0,0.0,0.0,0.0,0.0,0.0,0.0,0.0,0.0,0.0,0.0,0.0,0.0,0.0,0.0,0.0,0.0,0.0,0.0,0.0,0.0,0.0,0.0,0.0,0.0,0.0,0.0,0.0,0.0,0.0,0.0,0.0,0.0,0.0,0.0,0.0,0.0,0.0,0.0,0.0,0.0,0.0,0.0,-0.3381,-0.898,-1.4296,-1.65,-1.6476,-1.651,-1.6524,-1.6537,-1.6653,-1.6619,-1.6517,-1.6483,-1.6374,-1.6252,-1.6252,-1.6178,-1.6083,-1.6083,-1.6083,-1.6083,-1.6083,-1.6083,-1.6083,-1.6083,-1.6083,-1.6083,-1.6083,-1.6083,-1.6083,-1.6083,-1.6083,-1.6083,-1.6083,-1.6083,-1.6083,-1.6083,-1.6083,-1.6083,-1.6083,-1.6083,-1.6083,-1.6083,-1.6083,-1.6083,-1.6083,-1.6083,-1.6083,-1.6083,-1.6083,-1.6083,-1.6083,-1.6083,-1.6083,-1.6083,-1.6198,-1.6252,-1.6259,-1.6402,-1.6469,-1.6469,-1.6503,-1.6524,0.0,0.0,0.0,0.0,0.0,0.0,0.0,0.0,0.0,0.0,0.0,0.0,0.0,0.0,0.0,0.0,0.0,0.0,0.0,0.0,0.0,0.0,0.0,0.0,0.0,0.0,0.0,0.0,0.0,0.0,0.0,0.0,0.0,0.0,0.0,0.0,0.0,0.0,0.0,0.0,0.0,0.0,0.0,0.0,0.0,0.0,0.0,0.0,0.0,0.0,-0.1904,-0.5446,-1.352,-1.6634,-1.6659,-1.6714,-1.6734,-1.6741,-1.6829,-1.6754,-1.6625,-1.6625,-1.6524,-1.6408,-1.6408,-1.6347,-1.6252,-1.6123,-1.6083,-1.6083,-1.6083,-1.6083,-1.6083,-1.6083,-1.6083,-1.6083,-1.6083,-1.6083,-1.6103,-1.6171,-1.6185,-1.6205,-1.6273,-1.6286,-1.6286,-1.6286,-1.6286,-1.6286,-1.6286,-1.6286,-1.6286,-1.6286,-1.6286,-1.6286,-1.6286,-1.6286,-1.6225,-1.609,-1.6083,-1.6083,-1.6083,-1.6151,-1.6218,-1.6279,-1.6368,-1.6408,-1.6408,-1.6558,-1.6625,-1.6625,-1.67,-1.6734,0.0,0.0,0.0,0.0,0.0,0.0,0.0,0.0,0.0,0.0,0.0,0.0,0.0,0.0,0.0,0.0,0.0,0.0,0.0,0.0,0.0,0.0,0.0,0.0,0.0,0.0,0.0,0.0,0.0,0.0,0.0,0.0,0.0,0.0,0.0,0.0,0.0,0.0,0.0,0.0,0.0,0.0,0.0,0.0,0.0,0.0,0.0,0.0,0.0,0.0,-0.0424,-0.2311,-1.1887,-1.6131,-1.6856,-1.6944,-1.6978,-1.6978,-1.6978,-1.6897,-1.6788,-1.6788,-1.668,-1.6558,-1.6558,-1.6537,-1.6469,-1.6218,-1.6151,-1.6151,-1.6151,-1.6151,-1.6144,-1.6123,-1.613,-1.6144,-1.6123,-1.613,-1.6185,-1.632,-1.6341,-1.6381,-1.6503,-1.6524,-1.6524,-1.6524,-1.6524,-1.6524,-1.6524,-1.6524,-1.6524,-1.6524,-1.6524,-1.6524,-1.6524,-1.6524,-1.6415,-1.6164,-1.6151,-1.6151,-1.6151,-1.6273,-1.6395,-1.6517,-1.6544,-1.6558,-1.6558,-1.6707,-1.6788,-1.6788,-1.6917,-1.6978,0.0,0.0,0.0,0.0,0.0,0.0,0.0,0.0,0.0,0.0,0.0,0.0,0.0,0.0,0.0,0.0,0.0,0.0,0.0,0.0,0.0,0.0,0.0,0.0,0.0,0.0,0.0,0.0,0.0,0.0,0.0,0.0,0.0,0.0,0.0,0.0,0.0,0.0,0.0,0.0,0.0,0.0,0.0,0.0,0.0,0.0,0.0,0.0,0.0,0.0,-0.2763,-0.7411,-0.9122,-1.2726,-1.6958,-1.6978,-1.6978,-1.6978,-1.6978,-1.6965,-1.6944,-1.6944,-1.6842,-1.6714,-1.6714,-1.6625,-1.651,-1.6469,-1.6456,-1.6456,-1.6456,-1.6456,-1.6422,-1.63,-1.6368,-1.6422,-1.63,-1.6368,-1.6463,-1.6483,-1.649,-1.6497,-1.6517,-1.6524,-1.6524,-1.6524,-1.6524,-1.6524,-1.6524,-1.6524,-1.6524,-1.6524,-1.6524,-1.6524,-1.6524,-1.6524,-1.6503,-1.6456,-1.6456,-1.6456,-1.6456,-1.6476,-1.6497,-1.6524,-1.6646,-1.6714,-1.6714,-1.687,-1.6944,-1.6944,-1.6971,-1.6978,0.0,0.0,0.0,0.0,0.0,0.0,0.0,0.0,0.0,0.0,0.0,0.0,0.0,0.0,0.0,0.0,0.0,0.0,0.0,0.0,0.0,0.0,0.0,0.0,0.0,0.0,0.0,0.0,0.0,0.0,0.0,0.0,0.0,0.0,0.0,0.0,0.0,0.0,0.0,0.0,0.0,0.0,0.0,0.0,0.0,0.0,0.0,0.0,0.0,0.0,-0.5111,-1.3015,-1.2994,-1.468,-1.7005,-1.6985,-1.6978,-1.6978,-1.6978,-1.6978,-1.6978,-1.6978,-1.6931,-1.6876,-1.6876,-1.6822,-1.6768,-1.6768,-1.6653,-1.6524,-1.6524,-1.6524,-1.6503,-1.6442,-1.6476,-1.6503,-1.6435,-1.6476,-1.6544,-1.6625,-1.6646,-1.6673,-1.6754,-1.6768,-1.6768,-1.6768,-1.6768,-1.6768,-1.6768,-1.6768,-1.6768,-1.6768,-1.6768,-1.6768,-1.6768,-1.6768,-1.67,-1.653,-1.6524,-1.6558,-1.6639,-1.6646,-1.6686,-1.6768,-1.6836,-1.6876,-1.6876,-1.6944,-1.6978,-1.6978,-1.6978,-1.6978,0.0,0.0,0.0,0.0,0.0,0.0,0.0,0.0,0.0,0.0,0.0,0.0,0.0,0.0,0.0,0.0,0.0,0.0,0.0,0.0,0.0,0.0,0.0,0.0,0.0,0.0,0.0,0.0,0.0,0.0,0.0,0.0,0.0,0.0,0.0,0.0,0.0,0.0,0.0,0.0,0.0,0.0,0.0,0.0,0.0,0.0,0.0,0.0,-0.0,-0.1492,-0.7036,-1.5193,-1.6465,-1.7066,-1.7019,-1.6992,-1.6978,-1.6978,-1.6978,-1.6978,-1.6978,-1.6978,-1.6978,-1.6978,-1.6978,-1.6978,-1.6978,-1.6978,-1.6809,-1.6632,-1.6632,-1.6632,-1.6619,-1.6585,-1.6605,-1.6619,-1.6585,-1.6605,-1.6666,-1.6781,-1.6802,-1.6842,-1.6958,-1.6978,-1.6978,-1.6978,-1.6978,-1.6978,-1.6978,-1.6978,-1.6978,-1.6978,-1.6978,-1.6978,-1.6978,-1.6978,-1.6883,-1.6646,-1.6632,-1.668,-1.6802,-1.6802,-1.6863,-1.6978,-1.6978,-1.6978,-1.6978,-1.6978,-1.6978,-1.6978,-1.6978,-1.6978,0.0,0.0,0.0,0.0,0.0,0.0,0.0,0.0,0.0,0.0,0.0,0.0,0.0,0.0,0.0,0.0,0.0,0.0,0.0,0.0,0.0,0.0,0.0,0.0,0.0,0.0,0.0,0.0,0.0,0.0,0.0,0.0,0.0,0.0,0.0,0.0,0.0,0.0,0.0,0.0,0.0,0.0,0.0,0.0,0.0,0.0,0.0,0.0,-0.0426,-0.5761,-0.8309,-0.9557,-1.4933,-1.7053,-1.6985,-1.6985,-1.6978,-1.6978,-1.6978,-1.6978,-1.6978,-1.6978,-1.6978,-1.6978,-1.6978,-1.6978,-1.6978,-1.6978,-1.6965,-1.6944,-1.6944,-1.6944,-1.691,-1.6768,-1.6842,-1.691,-1.6761,-1.6842,-1.6951,-1.6965,-1.6965,-1.6971,-1.6978,-1.6978,-1.6978,-1.6978,-1.6978,-1.6978,-1.6978,-1.6978,-1.6978,-1.6978,-1.6978,-1.6978,-1.6978,-1.6978,-1.6971,-1.6951,-1.6944,-1.6951,-1.6965,-1.6965,-1.6971,-1.6978,-1.6978,-1.6978,-1.6978,-1.6978,-1.6978,-1.6978,-1.6978,-1.6978,0.0,0.0,0.0,0.0,0.0,0.0,0.0,0.0,0.0,0.0,0.0,0.0,0.0,0.0,0.0,0.0,0.0,0.0,0.0,0.0,0.0,0.0,0.0,0.0,0.0,0.0,0.0,0.0,0.0,0.0,0.0,0.0,0.0,0.0,0.0,0.0,0.0,0.0,0.0,0.0,0.0,0.0,0.0,0.0,0.0,0.0,0.0,0.0,-0.0423,-0.6142,-0.8484,-0.9122,-1.4669,-1.7005,-1.6978,-1.6978,-1.6978,-1.6978,-1.6978,-1.6978,-1.6978,-1.6978,-1.6978,-1.6978,-1.6978,-1.6978,-1.6978,-1.6978,-1.6978,-1.6978,-1.6978,-1.6978,-1.6965,-1.691,-1.6937,-1.6965,-1.6904,-1.6937,-1.6978,-1.6978,-1.6978,-1.6978,-1.6978,-1.6978,-1.6978,-1.6978,-1.6978,-1.6978,-1.6978,-1.6978,-1.6978,-1.6978,-1.6978,-1.6978,-1.6978,-1.6978,-1.6978,-1.6978,-1.6978,-1.6978,-1.6978,-1.6978,-1.6978,-1.6978,-1.6978,-1.6978,-1.6978,-1.6978,-1.6978,-1.6978,-1.6978,-1.6978,0.0,0.0,0.0,0.0,0.0,0.0,0.0,0.0,0.0,0.0,0.0,0.0,0.0,0.0,0.0,0.0,0.0,0.0,0.0,0.0,0.0,0.0,0.0,0.0,0.0,0.0,0.0,0.0,0.0,0.0,0.0,0.0,0.0,0.0,0.0,0.0,0.0,0.0,0.0,0.0,0.0,0.0,0.0,0.0,0.0,0.0,0.0,0.0,-0.0419,-0.6108,-0.9526,-1.1478,-1.5493,-1.6978,-1.6978,-1.6978,-1.6978,-1.6978,-1.6978,-1.6978,-1.6978,-1.6978,-1.6978,-1.6978,-1.6978,-1.6978,-1.6978,-1.6978,-1.6978,-1.6978,-1.6978,-1.6978,-1.6978,-1.6978,-1.6978,-1.6978,-1.6978,-1.6978,-1.6978,-1.6978,-1.6978,-1.6978,-1.6978,-1.6978,-1.6978,-1.6978,-1.6978,-1.6978,-1.6978,-1.6978,-1.6978,-1.6978,-1.6978,-1.6978,-1.6978,-1.6978,-1.6978,-1.6978,-1.6978,-1.6978,-1.6978,-1.6978,-1.6978,-1.6978,-1.6978,-1.6978,-1.6978,-1.6978,-1.6978,-1.6978,-1.6978,-1.6978,0.0,0.0,0.0,0.0,0.0,0.0,0.0,0.0,0.0,0.0,0.0,0.0,0.0,0.0,0.0,0.0,0.0,0.0,0.0,0.0,0.0,0.0,0.0,0.0,0.0,0.0,0.0,0.0,0.0,0.0,0.0,0.0,0.0,0.0,0.0,0.0,0.0,0.0,0.0,0.0,0.0,0.0,0.0,0.0,0.0,0.0,0.0,0.0,-0.0416,-0.609,-1.1873,-1.7093,-1.7012,-1.6978,-1.6978,-1.6978,-1.6978,-1.6978,-1.6978,-1.6978,-1.6978,-1.6978,-1.6978,-1.6978,-1.6978,-1.6978,-1.6978,-1.6978,-1.6978,-1.6978,-1.6978,-1.6978,-1.6978,-1.6978,-1.6978,-1.6978,-1.6978,-1.6978,-1.6978,-1.6978,-1.6978,-1.6978,-1.6978,-1.6978,-1.6978,-1.6978,-1.6978,-1.6978,-1.6978,-1.6978,-1.6978,-1.6978,-1.6978,-1.6978,-1.6978,-1.6978,-1.6978,-1.6978,-1.6978,-1.6978,-1.6978,-1.6978,-1.6978,-1.6978,-1.6978,-1.6978,-1.6978,-1.6978,-1.6978,-1.6978,-1.6978,-1.6978,0.0,0.0,0.0,0.0,0.0,0.0,0.0,0.0,0.0,0.0,0.0,0.0,0.0,0.0,0.0,0.0,0.0,0.0,0.0,0.0,0.0,0.0,0.0,0.0,0.0,0.0,0.0,0.0,0.0,0.0,0.0,0.0,0.0,0.0,0.0,0.0,0.0,0.0,0.0,0.0,0.0,0.0,0.0,0.0,0.0,0.0,0.0,0.0,-0.0412,-0.58,-1.1716,-1.6937,-1.6849,-1.6883,-1.6978,-1.6978,-1.6978,-1.6978,-1.6978,-1.6978,-1.6978,-1.6978,-1.6978,-1.6978,-1.6978,-1.6978,-1.6978,-1.6978,-1.6978,-1.6978,-1.6978,-1.6978,-1.6978,-1.6978,-1.6978,-1.6978,-1.6978,-1.6978,-1.6978,-1.6978,-1.6978,-1.6978,-1.6978,-1.6978,-1.6978,-1.6978,-1.6978,-1.6978,-1.6978,-1.6978,-1.6978,-1.6978,-1.6978,-1.6978,-1.6978,-1.6978,-1.6978,-1.6978,-1.6978,-1.6978,-1.6978,-1.6978,-1.6978,-1.6978,-1.6978,-1.6978,-1.6978,-1.6978,-1.6978,-1.6978,-1.6978,-1.6978,0.0,0.0,0.0,0.0,0.0,0.0,0.0,0.0,0.0,0.0,0.0,0.0,0.0,0.0,0.0,0.0,0.0,0.0,0.0,0.0,0.0,0.0,0.0,0.0,0.0,0.0,0.0,0.0,0.0,0.0,0.0,0.0,0.0,0.0,0.0,0.0,0.0,0.0,0.0,0.0,0.0,0.0,0.0,0.0,0.0,0.0,0.0,0.0,-0.041,-0.5745,-1.1409,-1.6863,-1.6781,-1.6842,-1.6978,-1.6978,-1.6978,-1.6978,-1.6978,-1.6978,-1.6978,-1.6978,-1.6978,-1.6978,-1.6978,-1.6978,-1.6978,-1.6978,-1.6978,-1.6978,-1.6978,-1.6978,-1.6978,-1.6978,-1.6978,-1.6978,-1.6978,-1.6978,-1.6978,-1.6978,-1.6978,-1.6978,-1.6978,-1.6978,-1.6978,-1.6978,-1.6978,-1.6978,-1.6978,-1.6978,-1.6978,-1.6978,-1.6978,-1.6978,-1.6978,-1.6978,-1.6978,-1.6978,-1.6978,-1.6978,-1.6978,-1.6978,-1.6978,-1.6978,-1.6978,-1.6978,-1.6978,-1.6978,-1.6978,-1.6978,-1.6978,-1.6978,0.0,0.0,0.0,0.0,0.0,0.0,0.0,0.0,0.0,0.0,0.0,0.0,0.0,0.0,0.0,0.0,0.0,0.0,0.0,0.0,0.0,0.0,0.0,0.0,0.0,0.0,0.0,0.0,0.0,0.0,0.0,0.0,0.0,0.0,0.0,0.0,0.0,0.0,0.0,0.0,0.0,0.0,0.0,0.0,0.0,0.0,0.0,0.0,-0.0409,-0.5707,-1.1344,-1.6419,-1.6547,-1.6829,-1.6978,-1.6978,-1.6978,-1.6978,-1.6978,-1.6978,-1.6978,-1.6978,-1.6978,-1.6978,-1.6978,-1.6978,-1.6978,-1.6978,-1.6978,-1.6978,-1.6978,-1.6978,-1.6978,-1.6978,-1.6978,-1.6978,-1.6978,-1.6978,-1.6978,-1.6978,-1.6978,-1.6978,-1.6978,-1.6978,-1.6978,-1.6978,-1.6978,-1.6978,-1.6978,-1.6978,-1.6978,-1.6978,-1.6978,-1.6978,-1.6978,-1.6978,-1.6978,-1.6978,-1.6978,-1.6978,-1.6978,-1.6978,-1.6978,-1.6978,-1.6978,-1.6978,-1.6978,-1.6978,-1.6978,-1.6978,-1.6978,-1.6978,0.0,0.0,0.0,0.0,0.0,0.0,0.0,0.0,0.0,0.0,0.0,0.0,0.0,0.0,0.0,0.0,0.0,0.0,0.0,0.0,0.0,0.0,0.0,0.0,0.0,0.0,0.0,0.0,0.0,0.0,0.0,0.0,0.0,0.0,0.0,0.0,0.0,0.0,0.0,0.0,0.0,0.0,0.0,0.0,0.0,0.0,0.0,0.0,-0.0405,-0.5851,-1.144,-1.6473,-1.6598,-1.6741,-1.6978,-1.6978,-1.6978,-1.6978,-1.6978,-1.6978,-1.6978,-1.6978,-1.6978,-1.6978,-1.6978,-1.6978,-1.6978,-1.6978,-1.6978,-1.6978,-1.6978,-1.6978,-1.6978,-1.6978,-1.6978,-1.6978,-1.6978,-1.6978,-1.6978,-1.6978,-1.6978,-1.6978,-1.6978,-1.6978,-1.6978,-1.6978,-1.6978,-1.6978,-1.6978,-1.6978,-1.6978,-1.6978,-1.6978,-1.6978,-1.6978,-1.6978,-1.6978,-1.6978,-1.6978,-1.6978,-1.6978,-1.6978,-1.6978,-1.6978,-1.6978,-1.6978,-1.6978,-1.6978,-1.6978,-1.6978,-1.6978,-1.6978,0.0,0.0,0.0,0.0,0.0,0.0,0.0,0.0,0.0,0.0,0.0,0.0,0.0,0.0,0.0,0.0,0.0,0.0,0.0,0.0,0.0,0.0,0.0,0.0,0.0,0.0,0.0,0.0,0.0,0.0,0.0,0.0,0.0,0.0,0.0,0.0,0.0,0.0,0.0,0.0,0.0,0.0,0.0,0.0,0.0,0.0,0.0,-0.3029,-0.7676,-0.7851,-1.1368,-1.651,-1.6517,-1.6666,-1.6876,-1.6951,-1.6978,-1.6978,-1.6978,-1.6978,-1.6978,-1.6978,-1.6978,-1.6978,-1.6978,-1.6978,-1.6978,-1.6978,-1.6978,-1.6978,-1.6978,-1.6978,-1.6978,-1.6978,-1.6978,-1.6978,-1.6978,-1.6978,-1.6978,-1.6978,-1.6978,-1.6978,-1.6978,-1.6978,-1.6978,-1.6978,-1.6978,-1.6978,-1.6978,-1.6978,-1.6978,-1.6978,-1.6978,-1.6978,-1.6978,-1.6978,-1.6978,-1.6978,-1.6978,-1.6978,-1.6978,-1.6978,-1.6978,-1.6978,-1.6978,-1.6978,-1.6978,-1.6978,-1.6978,-1.6978,-1.6978,-1.6978,0.0,0.0,0.0,0.0,0.0,0.0,0.0,0.0,0.0,0.0,0.0,0.0,0.0,0.0,0.0,0.0,0.0,0.0,0.0,0.0,0.0,0.0,0.0,0.0,0.0,0.0,0.0,0.0,0.0,0.0,0.0,0.0,0.0,0.0,0.0,0.0,0.0,0.0,0.0,0.0,0.0,0.0,0.0,0.0,0.0,0.0,0.0,-0.606,-1.5837,-1.1292,-1.2145,-1.6374,-1.6456,-1.6578,-1.6727,-1.6883,-1.6944,-1.6944,-1.6971,-1.6978,-1.6978,-1.6978,-1.6978,-1.6978,-1.6978,-1.6978,-1.6978,-1.6978,-1.6978,-1.6978,-1.6978,-1.6978,-1.6978,-1.6978,-1.6978,-1.6978,-1.6978,-1.6978,-1.6978,-1.6978,-1.6978,-1.6978,-1.6978,-1.6978,-1.6978,-1.6978,-1.6978,-1.6978,-1.6978,-1.6978,-1.6978,-1.6978,-1.6978,-1.6978,-1.6978,-1.6978,-1.6978,-1.6978,-1.6978,-1.6978,-1.6978,-1.6978,-1.6978,-1.6978,-1.6978,-1.6978,-1.6978,-1.6978,-1.6978,-1.6978,-1.6978,-1.6978,0.0,0.0,0.0,0.0,0.0,0.0,0.0,0.0,0.0,0.0,0.0,0.0,0.0,0.0,0.0,0.0,0.0,0.0,0.0,0.0,0.0,0.0,0.0,0.0,0.0,0.0,0.0,0.0,0.0,0.0,0.0,0.0,0.0,0.0,0.0,0.0,0.0,0.0,0.0,0.0,0.0,0.0,0.0,0.0,0.0,0.0,0.0,-0.606,-1.6045,-1.5389,-1.5642,-1.6361,-1.6347,-1.6429,-1.6571,-1.672,-1.6781,-1.6802,-1.6937,-1.6978,-1.6978,-1.6978,-1.6978,-1.6978,-1.6978,-1.6978,-1.6978,-1.6978,-1.6978,-1.6978,-1.6978,-1.6978,-1.6978,-1.6978,-1.6978,-1.6978,-1.6978,-1.6978,-1.6978,-1.6978,-1.6978,-1.6978,-1.6978,-1.6978,-1.6978,-1.6978,-1.6978,-1.6978,-1.6978,-1.6978,-1.6978,-1.6978,-1.6978,-1.6978,-1.6978,-1.6978,-1.6978,-1.6978,-1.6978,-1.6978,-1.6978,-1.6978,-1.6978,-1.6978,-1.6978,-1.6978,-1.6978,-1.6978,-1.6978,-1.6978,-1.6978,-1.6978,0.0,0.0,0.0,0.0,0.0,0.0,0.0,0.0,0.0,0.0,0.0,0.0,0.0,0.0,0.0,0.0,0.0,0.0,0.0,0.0,0.0,0.0,0.0,0.0,0.0,0.0,0.0,0.0,0.0,0.0,0.0,0.0,0.0,0.0,0.0,0.0,0.0,0.0,0.0,0.0,0.0,0.0,0.0,0.0,0.0,0.0,0.0,-0.4438,-1.1708,-1.4769,-1.6205,-1.6212,-1.6279,-1.6347,-1.6429,-1.6666,-1.6748,-1.6768,-1.6931,-1.6978,-1.6978,-1.6978,-1.6978,-1.6978,-1.6978,-1.6978,-1.6978,-1.6978,-1.6978,-1.6978,-1.6978,-1.6978,-1.6978,-1.6978,-1.6978,-1.6978,-1.6978,-1.6978,-1.6978,-1.6978,-1.6978,-1.6978,-1.6978,-1.6978,-1.6978,-1.6978,-1.6978,-1.6978,-1.6978,-1.6978,-1.6978,-1.6978,-1.6978,-1.6978,-1.6978,-1.6978,-1.6978,-1.6978,-1.6978,-1.6978,-1.6978,-1.6978,-1.6978,-1.6978,-1.6978,-1.6978,-1.6978,-1.6978,-1.6978,-1.6978,-1.6978,-1.6978,0.0,0.0,0.0,0.0,0.0,0.0,0.0,0.0,0.0,0.0,0.0,0.0,0.0,0.0,0.0,0.0,0.0,0.0,0.0,0.0,0.0,0.0,0.0,0.0,0.0,0.0,0.0,0.0,0.0,0.0,0.0,0.0,0.0,0.0,0.0,0.0,0.0,0.0,0.0,0.0,0.0,0.0,0.0,0.0,0.0,-0.0202,-0.2827,-0.5642,-0.8442,-1.3925,-1.6144,-1.609,-1.6205,-1.6252,-1.6286,-1.6585,-1.6693,-1.672,-1.691,-1.6978,-1.6978,-1.6978,-1.6978,-1.6978,-1.6978,-1.6978,-1.6978,-1.6978,-1.6978,-1.6978,-1.6978,-1.6978,-1.6978,-1.6978,-1.6978,-1.6978,-1.6978,-1.6978,-1.6978,-1.6978,-1.6978,-1.6978,-1.6978,-1.6978,-1.6978,-1.6978,-1.6978,-1.6978,-1.6978,-1.6978,-1.6978,-1.6978,-1.6978,-1.6978,-1.6978,-1.6978,-1.6978,-1.6978,-1.6978,-1.6978,-1.6978,-1.6978,-1.6978,-1.6978,-1.6978,-1.6978,-1.6978,-1.6978,-1.6978,-1.6978,-1.6978,-1.6978,0.0,0.0,0.0,0.0,0.0,0.0,0.0,0.0,0.0,0.0,0.0,0.0,0.0,0.0,0.0,0.0,0.0,0.0,0.0,0.0,0.0,0.0,0.0,0.0,0.0,0.0,0.0,0.0,0.0,0.0,0.0,0.0,0.0,0.0,0.0,0.0,0.0,0.0,0.0,0.0,0.0,0.0,0.0,0.0,0.0,-0.0606,-1.0726,-1.2532,-0.8442,-1.3895,-1.6117,-1.6083,-1.609,-1.6096,-1.613,-1.6422,-1.653,-1.6578,-1.6876,-1.6978,-1.6978,-1.6978,-1.6978,-1.6978,-1.6978,-1.6978,-1.6978,-1.6978,-1.6978,-1.6978,-1.6978,-1.6978,-1.6978,-1.6978,-1.6978,-1.6978,-1.6978,-1.6978,-1.6978,-1.6978,-1.6978,-1.6978,-1.6978,-1.6978,-1.6978,-1.6978,-1.6978,-1.6978,-1.6978,-1.6978,-1.6978,-1.6978,-1.6978,-1.6978,-1.6978,-1.6978,-1.6978,-1.6978,-1.6978,-1.6978,-1.6978,-1.6978,-1.6978,-1.6978,-1.6978,-1.6978,-1.6978,-1.6978,-1.6978,-1.6978,-1.6978,-1.6978,0.0,0.0,0.0,0.0,0.0,0.0,0.0,0.0,0.0,0.0,0.0,0.0,0.0,0.0,0.0,0.0,0.0,0.0,0.0,0.0,0.0,0.0,0.0,0.0,0.0,0.0,0.0,0.0,0.0,0.0,0.0,0.0,0.0,0.0,0.0,0.0,0.0,0.0,0.0,0.0,0.0,0.0,0.0,0.0,-0.3815,-1.0314,-1.0699,-1.1703,-1.3323,-1.5331,-1.611,-1.6083,-1.6083,-1.6083,-1.6117,-1.6415,-1.6524,-1.6564,-1.6876,-1.6978,-1.6978,-1.6978,-1.6978,-1.6978,-1.6978,-1.6978,-1.6978,-1.6978,-1.6978,-1.6978,-1.6978,-1.6978,-1.6978,-1.6978,-1.6978,-1.6978,-1.6978,-1.6978,-1.6978,-1.6978,-1.6978,-1.6978,-1.6978,-1.6978,-1.6978,-1.6978,-1.6978,-1.6978,-1.6978,-1.6978,-1.6978,-1.6978,-1.6978,-1.6978,-1.6978,-1.6978,-1.6978,-1.6978,-1.6978,-1.6978,-1.6978,-1.6978,-1.6978,-1.6978,-1.6978,-1.6978,-1.6978,-1.6978,-1.6978,-1.6978,-1.6978,-1.6978,0.0,0.0,0.0,0.0,0.0,0.0,0.0,0.0,0.0,0.0,0.0,0.0,0.0,0.0,0.0,0.0,0.0,0.0,0.0,0.0,0.0,0.0,0.0,0.0,0.0,0.0,0.0,0.0,0.0,0.0,0.0,0.0,0.0,0.0,0.0,0.0,0.0,0.0,0.0,0.0,0.0,0.0,0.0,0.0,-0.5978,-1.5978,-1.2258,-1.2868,-1.6178,-1.613,-1.6103,-1.6083,-1.6083,-1.6083,-1.6117,-1.6415,-1.6524,-1.6564,-1.6876,-1.6978,-1.6978,-1.6978,-1.6978,-1.6978,-1.6978,-1.6978,-1.6978,-1.6978,-1.6978,-1.6978,-1.6978,-1.6978,-1.6978,-1.6978,-1.6978,-1.6978,-1.6978,-1.6978,-1.6978,-1.6978,-1.6978,-1.6978,-1.6978,-1.6978,-1.6978,-1.6978,-1.6978,-1.6978,-1.6978,-1.6978,-1.6978,-1.6978,-1.6978,-1.6978,-1.6978,-1.6978,-1.6978,-1.6978,-1.6978,-1.6978,-1.6978,-1.6978,-1.6978,-1.6978,-1.6978,-1.6978,-1.6978,-1.6978,-1.6978,-1.6978,-1.6978,-1.6978,0.0,0.0,0.0,0.0,0.0,0.0,0.0,0.0,0.0,0.0,0.0,0.0,0.0,0.0,0.0,0.0,0.0,0.0,0.0,0.0,0.0,0.0,0.0,0.0,0.0,0.0,0.0,0.0,0.0,0.0,0.0,0.0,0.0,0.0,0.0,0.0,0.0,0.0,0.0,0.0,0.0,0.0,-0.0,-0.0391,-0.6117,-1.583,-1.5995,-1.6035,-1.6123,-1.6096,-1.6083,-1.6083,-1.6083,-1.6083,-1.6123,-1.6415,-1.6524,-1.6571,-1.6876,-1.6978,-1.6978,-1.6978,-1.6978,-1.6978,-1.6978,-1.6978,-1.6978,-1.6978,-1.6978,-1.6978,-1.6978,-1.6978,-1.6978,-1.6978,-1.6978,-1.6978,-1.6978,-1.6978,-1.6978,-1.6978,-1.6978,-1.6978,-1.6978,-1.6978,-1.6978,-1.6978,-1.6978,-1.6978,-1.6978,-1.6978,-1.6978,-1.6978,-1.6978,-1.6978,-1.6978,-1.6978,-1.6978,-1.6978,-1.6978,-1.6978,-1.6978,-1.6978,-1.6978,-1.6978,-1.6978,-1.6978,-1.6978,-1.6978,-1.6978,-1.6978,-1.6978,-1.6978,0.0,0.0,0.0,0.0,0.0,0.0,0.0,0.0,0.0,0.0,0.0,0.0,0.0,0.0,0.0,0.0,0.0,0.0,0.0,0.0,0.0,0.0,0.0,0.0,0.0,0.0,0.0,0.0,0.0,0.0,0.0,0.0,0.0,0.0,0.0,0.0,0.0,0.0,0.0,0.0,0.0,0.0,-0.0194,-0.7575,-1.0555,-1.0228,-1.4084,-1.5934,-1.594,-1.6042,-1.6083,-1.6083,-1.6083,-1.6151,-1.6273,-1.6456,-1.6592,-1.6714,-1.691,-1.6978,-1.6978,-1.6978,-1.6978,-1.6978,-1.6978,-1.6978,-1.6978,-1.6978,-1.6978,-1.6978,-1.6978,-1.6978,-1.6978,-1.6978,-1.6978,-1.6978,-1.6978,-1.6978,-1.6978,-1.6978,-1.6978,-1.6978,-1.6978,-1.6978,-1.6978,-1.6978,-1.6978,-1.6978,-1.6978,-1.6978,-1.6978,-1.6978,-1.6978,-1.6978,-1.6978,-1.6978,-1.6978,-1.6978,-1.6978,-1.6978,-1.6978,-1.6978,-1.6978,-1.6978,-1.6978,-1.6978,-1.6978,-1.6978,-1.6978,-1.6978,-1.6978,-1.6978,0.0,0.0,0.0,0.0,0.0,0.0,0.0,0.0,0.0,0.0,0.0,0.0,0.0,0.0,0.0,0.0,0.0,0.0,0.0,0.0,0.0,0.0,0.0,0.0,0.0,0.0,0.0,0.0,0.0,0.0,0.0,0.0,0.0,0.0,0.0,0.0,0.0,0.0,0.0,-0.0,-0.4389,-0.6317,-0.6542,-1.0203,-1.1594,-1.1081,-1.4304,-1.5778,-1.5859,-1.5947,-1.6022,-1.6083,-1.6083,-1.6178,-1.6327,-1.6469,-1.6619,-1.6768,-1.6931,-1.6978,-1.6978,-1.6978,-1.6978,-1.6978,-1.6978,-1.6978,-1.6978,-1.6978,-1.6978,-1.6978,-1.6978,-1.6978,-1.6978,-1.6978,-1.6978,-1.6978,-1.6978,-1.6978,-1.6978,-1.6978,-1.6978,-1.6978,-1.6978,-1.6978,-1.6978,-1.6978,-1.6978,-1.6978,-1.6978,-1.6978,-1.6978,-1.6978,-1.6978,-1.6978,-1.6978,-1.6978,-1.6978,-1.6978,-1.6978,-1.6978,-1.6978,-1.6978,-1.6978,-1.6978,-1.6978,-1.6978,-1.6978,-1.6978,-1.6978,-1.6978,-1.6978,-1.6978,0.0,0.0,0.0,0.0,0.0,0.0,0.0,0.0,0.0,0.0,0.0,0.0,0.0,0.0,0.0,0.0,0.0,0.0,0.0,0.0,0.0,0.0,0.0,0.0,0.0,0.0,0.0,0.0,0.0,-0.0566,-0.1714,-0.1715,-0.1334,-0.0954,-0.0763,-0.0763,-0.0763,-0.0763,-0.0763,-0.0954,-1.0126,-1.4571,-1.4964,-1.0474,-1.1072,-1.5445,-1.5452,-1.5601,-1.5832,-1.5845,-1.594,-1.6083,-1.6083,-1.6185,-1.6347,-1.6476,-1.6625,-1.6795,-1.6931,-1.6978,-1.6978,-1.6978,-1.6978,-1.6978,-1.6978,-1.6978,-1.6978,-1.6978,-1.6978,-1.6978,-1.6978,-1.6978,-1.6978,-1.6978,-1.6978,-1.6978,-1.6978,-1.6978,-1.6978,-1.6978,-1.6978,-1.6978,-1.6978,-1.6978,-1.6978,-1.6978,-1.6978,-1.6978,-1.6978,-1.6978,-1.6978,-1.6978,-1.6978,-1.6978,-1.6978,-1.6978,-1.6978,-1.6978,-1.6978,-1.6978,-1.6978,-1.6978,-1.6978,-1.6978,-1.6978,-1.6978,-1.6978,-1.6978,-1.6978,-1.6978,-1.6978,-1.6978,0.0,0.0,0.0,0.0,0.0,0.0,0.0,0.0,0.0,0.0,0.0,0.0,0.0,0.0,0.0,0.0,0.0,0.0,0.0,0.0,0.0,0.0,0.0,0.0,0.0,0.0,0.0,0.0,0.0,-0.3543,-1.172,-1.2295,-1.0413,-0.6269,-0.6079,-0.6079,-0.6079,-0.6079,-0.6079,-0.6079,-0.8174,-1.1242,-1.512,-1.4115,-1.4298,-1.5296,-1.5384,-1.552,-1.5689,-1.5805,-1.594,-1.6083,-1.6083,-1.6246,-1.6483,-1.651,-1.67,-1.6937,-1.6971,-1.6978,-1.6978,-1.6978,-1.6978,-1.6978,-1.6978,-1.6978,-1.6978,-1.6978,-1.6978,-1.6978,-1.6978,-1.6978,-1.6978,-1.6978,-1.6978,-1.6978,-1.6978,-1.6978,-1.6978,-1.6978,-1.6978,-1.6978,-1.6978,-1.6978,-1.6978,-1.6978,-1.6978,-1.6978,-1.6978,-1.6978,-1.6978,-1.6978,-1.6978,-1.6978,-1.6978,-1.6978,-1.6978,-1.6978,-1.6978,-1.6978,-1.6978,-1.6978,-1.6978,-1.6978,-1.6978,-1.6978,-1.6978,-1.6978,-1.6978,-1.6978,-1.6978,-1.6978,0.0,0.0,0.0,0.0,0.0,0.0,0.0,0.0,0.0,0.0,0.0,0.0,0.0,0.0,0.0,0.0,0.0,0.0,0.0,0.0,0.0,0.0,0.0,0.0,0.0,0.0,0.0,0.0,-0.4432,-0.9296,-1.4447,-1.4819,-1.3691,-1.1263,-1.1076,-1.1288,-1.1345,-1.1345,-1.137,-1.1426,-1.1416,-1.2756,-1.5276,-1.5235,-1.5215,-1.5221,-1.5357,-1.5499,-1.5649,-1.5791,-1.594,-1.6083,-1.6083,-1.6218,-1.6422,-1.6497,-1.6666,-1.6876,-1.6951,-1.6978,-1.6978,-1.6978,-1.6978,-1.6978,-1.6978,-1.6978,-1.6978,-1.6978,-1.6978,-1.6978,-1.6978,-1.6978,-1.6978,-1.6978,-1.6978,-1.6978,-1.6978,-1.6978,-1.6978,-1.6978,-1.6978,-1.6978,-1.6978,-1.6978,-1.6978,-1.6978,-1.6978,-1.6978,-1.6978,-1.6978,-1.6978,-1.6978,-1.6978,-1.6978,-1.6978,-1.6978,-1.6978,-1.6978,-1.6978,-1.6978,-1.6978,-1.6978,-1.6978,-1.6978,-1.6978,-1.6978,-1.6978,-1.6978,-1.6978,-1.6985,-1.7053,-1.7087,0.0,0.0,0.0,0.0,0.0,0.0,0.0,0.0,0.0,0.0,0.0,0.0,0.0,0.0,0.0,0.0,0.0,0.0,0.0,0.0,0.0,0.0,0.0,0.0,0.0,0.0,-0.0711,-0.2541,-1.0011,-1.4309,-1.4277,-1.4631,-1.4631,-1.4651,-1.4651,-1.4896,-1.5011,-1.5231,-1.512,-1.5235,-1.5242,-1.5235,-1.5235,-1.5201,-1.5181,-1.5194,-1.5343,-1.5499,-1.5649,-1.5791,-1.594,-1.6083,-1.6083,-1.6178,-1.6327,-1.6469,-1.6619,-1.6768,-1.6931,-1.6978,-1.6978,-1.6978,-1.6978,-1.6978,-1.6978,-1.6978,-1.6978,-1.6978,-1.6978,-1.6978,-1.6978,-1.6978,-1.6978,-1.6978,-1.6978,-1.6978,-1.6978,-1.6978,-1.6978,-1.6978,-1.6978,-1.6978,-1.6978,-1.6978,-1.6978,-1.6978,-1.6978,-1.6978,-1.6978,-1.6978,-1.6978,-1.6978,-1.6978,-1.6978,-1.6978,-1.6978,-1.6978,-1.6978,-1.6978,-1.6978,-1.6978,-1.6978,-1.6978,-1.6978,-1.6978,-1.6978,-1.6978,-1.7012,-1.7005,-1.6985,-1.7127,-1.7195,0.0,0.0,0.0,0.0,0.0,0.0,0.0,0.0,0.0,0.0,0.0,0.0,0.0,0.0,0.0,0.0,0.0,0.0,0.0,0.0,0.0,0.0,0.0,0.0,0.0,0.0,-0.3546,-1.205,-1.3707,-1.4365,-1.4563,-1.4604,-1.4645,-1.4753,-1.4753,-1.476,-1.478,-1.4916,-1.4991,-1.5011,-1.5133,-1.5194,-1.5187,-1.5181,-1.5181,-1.5194,-1.5343,-1.5499,-1.5649,-1.5791,-1.594,-1.6083,-1.6083,-1.6178,-1.6327,-1.6469,-1.6619,-1.6768,-1.6931,-1.6978,-1.6978,-1.6978,-1.6978,-1.6978,-1.6978,-1.6978,-1.6978,-1.6978,-1.6978,-1.6978,-1.6978,-1.6978,-1.6978,-1.6978,-1.6978,-1.6978,-1.6978,-1.6978,-1.6978,-1.6978,-1.6978,-1.6978,-1.6978,-1.6978,-1.6978,-1.6978,-1.6978,-1.6978,-1.6978,-1.6978,-1.6978,-1.6978,-1.6978,-1.6978,-1.6978,-1.6978,-1.6978,-1.6978,-1.6978,-1.6978,-1.6978,-1.6978,-1.6978,-1.6978,-1.6978,-1.6978,-1.6978,-1.7107,-1.7107,-1.6985,-1.7127,-1.7195,0.0,0.0,0.0,0.0,0.0,0.0,0.0,0.0,-0.4208,0.0,0.0,0.0,0.0,0.0,0.0,0.0,0.0,0.0,0.0,0.0,0.0,0.0,0.0,0.0,0.0,0.0,0.0,0.0,-1.3351,-1.3539,-1.3968,-1.4326,-1.4434,-1.4482,-1.4482,-1.4523,-1.4604,-1.476,-1.4882,-1.497,-1.5113,-1.5181,-1.5181,-1.5181,-1.5181,-1.5194,-1.5438,-1.5581,-1.5655,-1.5886,-1.6022,-1.6083,-1.6083,-1.6123,-1.6205,-1.6435,-1.6564,-1.6653,-1.6897,-1.6978,-1.6978,-1.6978,-1.6978,-1.6978,-1.6978,-1.6978,-1.6978,-1.6978,-1.6978,-1.6978,-1.6978,-1.6978,-1.6978,-1.6978,-1.6978,-1.6978,-1.6978,-1.6978,-1.6978,-1.6978,-1.6978,-1.6978,-1.6978,-1.6978,-1.6978,-1.6978,-1.6978,-1.6978,-1.6978,-1.6978,-1.6978,-1.6978,-1.6978,-1.6978,-1.6978,-1.6978,-1.6978,-1.6978,-1.6978,-1.6978,-1.6978,-1.706,-1.7107,-1.7107,-1.7188,-1.7236,-1.7236,-1.7297,-1.7297,-1.7243,-1.7392,-1.746,0.0,0.0,0.0,0.0,0.0,0.0,0.0,0.0,0.0,0.0,0.0,0.0,0.0,0.0,0.0,0.0,0.0,0.0,0.0,0.0,0.0,0.0,0.0,0.0,0.0,0.0,0.0,0.0,0.0,-1.2943,-1.3666,-1.4068,-1.4211,-1.4299,-1.4299,-1.4346,-1.4455,-1.4604,-1.4753,-1.4909,-1.5059,-1.5147,-1.5181,-1.5181,-1.5181,-1.5201,-1.5506,-1.5642,-1.5662,-1.5961,-1.6083,-1.6083,-1.6083,-1.6083,-1.6117,-1.6415,-1.6524,-1.6564,-1.6876,-1.6978,-1.6978,-1.6978,-1.6978,-1.6978,-1.6978,-1.6978,-1.6978,-1.6978,-1.6978,-1.6978,-1.6978,-1.6978,-1.6978,-1.6978,-1.6978,-1.6978,-1.6978,-1.6978,-1.6978,-1.6978,-1.6978,-1.6978,-1.6978,-1.6978,-1.6978,-1.6978,-1.6978,-1.6978,-1.6978,-1.6978,-1.6978,-1.6978,-1.6978,-1.6978,-1.6978,-1.6978,-1.6978,-1.6978,-1.7019,-1.7039,-1.7039,-1.7175,-1.7256,-1.7256,-1.7365,-1.7419,-1.7419,-1.746,-1.7487,-1.7487,-1.7595,-1.765,0.0,0.0,0.0,0.0,0.0,0.0,0.0,0.0,-1.2374,0.0,0.0,0.0,0.0,0.0,0.0,0.0,0.0,0.0,0.0,0.0,0.0,0.0,0.0,0.0,0.0,0.0,0.0,0.0,0.0,0.0,-1.377,-1.3851,-1.3994,-1.4292,-1.4299,-1.4299,-1.4306,-1.4448,-1.4597,-1.4746,-1.4903,-1.5052,-1.5181,-1.5181,-1.5181,-1.5201,-1.5506,-1.5642,-1.5662,-1.5961,-1.6083,-1.6083,-1.6083,-1.6083,-1.6117,-1.6415,-1.6524,-1.6564,-1.6876,-1.6978,-1.6978,-1.6978,-1.6978,-1.6978,-1.6978,-1.6978,-1.6978,-1.6978,-1.6978,-1.6978,-1.6978,-1.6978,-1.6978,-1.6978,-1.6978,-1.6978,-1.6978,-1.6978,-1.6978,-1.6978,-1.6978,-1.6978,-1.6978,-1.6978,-1.6978,-1.6978,-1.6978,-1.6978,-1.6978,-1.6978,-1.6978,-1.6978,-1.6978,-1.6978,-1.6978,-1.6978,-1.6978,-1.6978,-1.7107,-1.7182,-1.7182,-1.7331,-1.7412,-1.7412,-1.7419,-1.7419,-1.7419,-1.7568,-1.765,-1.765,-1.765,-1.765,0.0,0.0,0.0,0.0,0.0,0.0,0.0,0.0,0.0,0.0,0.0,0.0,0.0,0.0,0.0,0.0,0.0,0.0,0.0,0.0,0.0,0.0,0.0,0.0,0.0,0.0,0.0,0.0,-1.1898,0.0,0.0,-1.3682,-1.3933,-1.4143,-1.4245,-1.4299,-1.4299,-1.4441,-1.459,-1.474,-1.4896,-1.5045,-1.5181,-1.5181,-1.5181,-1.5201,-1.5506,-1.5642,-1.5662,-1.5961,-1.6083,-1.6083,-1.6083,-1.6083,-1.6117,-1.6415,-1.6524,-1.6564,-1.6876,-1.6978,-1.6978,-1.6978,-1.6978,-1.6978,-1.6978,-1.6978,-1.6978,-1.6978,-1.6978,-1.6978,-1.6978,-1.6978,-1.6978,-1.6978,-1.6978,-1.6978,-1.6978,-1.6978,-1.6978,-1.6978,-1.6978,-1.6978,-1.6978,-1.6978,-1.6978,-1.6978,-1.6978,-1.6978,-1.6978,-1.6978,-1.6978,-1.6978,-1.6978,-1.6978,-1.6978,-1.7066,-1.7121,-1.7121,-1.7263,-1.7344,-1.7344,-1.7494,-1.7568,-1.7568,-1.767,-1.7724,-1.7724,-1.9725,-2.0615,-2.0615,-2.2544,-2.2544,0.0,0.0,0.0,0.0,0.0,0.0,0.0,0.0,0.0,0.0,0.0,0.0,0.0,0.0,0.0,0.0,0.0,0.0,0.0,0.0,0.0,0.0,0.0,0.0,0.0,0.0,-1.0492,-1.114,0.0,0.0,0.0,0.0,-1.3722,-1.398,-1.419,-1.4299,-1.4299,-1.4387,-1.4536,-1.474,-1.4841,-1.4991,-1.5181,-1.5181,-1.5181,-1.5201,-1.5506,-1.5642,-1.5662,-1.5961,-1.6083,-1.6083,-1.6083,-1.6083,-1.6117,-1.6415,-1.6592,-1.6714,-1.691,-1.6978,-1.6978,-1.6978,-1.6978,-1.6978,-1.6978,-1.6978,-1.6978,-1.6978,-1.6978,-1.6978,-1.6978,-1.6978,-1.6978,-1.6978,-1.6978,-1.6978,-1.6978,-1.6978,-1.6978,-1.6978,-1.6978,-1.6978,-1.6978,-1.6978,-1.6978,-1.6978,-1.6978,-1.6978,-1.6978,-1.6978,-1.6978,-1.6978,-1.6978,-1.7005,-1.7053,-1.7141,-1.7216,-1.727,-1.7419,-1.75,-1.75,-1.765,-1.7717,-1.7717,-1.7812,-1.8302,-1.9383,-2.1335,-2.2656,-2.372,-2.6745,-2.7176]}]]